[[{"header":{"parameterUnit":"m.s-1","parameterCategory":1,"la1":31.0,"la2":29.5877,"lo1":-88.7671,"lo2":-86.6584,"dy":0.0162,"dx":0.0185,"nx":115,"ny":88,"refTime":"2024-08-20T06:00:00:Z","depth":0,"parameterNumber":2,"parameterNumberName":"U-component_of_WINDS"},"data":[0.0,0.0,0.0,0.0,0.0,0.0,0.0,0.0,0.0,0.0,0.0,0.0,0.0,0.0,0.0,0.0,0.0,0.0,0.0,0.0,0.0,0.0,0.0,0.0,0.0,0.0,0.0,0.0,0.0,0.0,0.0,0.0,0.0,0.0,0.0,0.0,0.0,0.0,0.0,0.0,0.0,0.0,0.0,0.0,0.0,0.0,0.0,0.0,0.0,0.0,0.0,0.0,0.0,0.0,0.0,0.0,0.0,0.0,0.0,0.0,0.0,0.0,0.0,0.0,0.0,0.0,0.0,0.0,0.0,0.0,0.0,0.0,0.0,0.0,0.0,0.0,0.0,0.0,0.0,0.0,0.0,0.0,0.0,0.0,0.0,0.0,0.0,0.0,0.0,0.0,0.0,0.0,0.0,0.0,0.0,0.0,0.0,0.0,0.0,0.0,0.0,0.0,0.0,0.0,0.0,0.0,0.0,0.0,0.0,0.0,0.0,0.0,0.0,0.0,0.0,0.0,0.0,0.0,0.0,0.0,0.0,0.0,0.0,0.0,0.0,0.0,0.0,0.0,0.0,0.0,0.0,0.0,0.0,0.0,0.0,0.0,0.0,0.0,0.0,0.0,0.0,0.0,0.0,0.0,0.0,0.0,0.0,0.0,0.0,0.0,0.0,0.0,0.0,0.0,0.0,0.0,0.0,0.0,0.0,0.0,0.0,0.0,0.0,0.0,0.0,0.0,0.0,0.0,0.0,0.0,0.0,0.0,0.0,0.0,0.0,0.0,0.0,0.0,0.0,0.0,0.0,0.0,0.0,0.0,0.0,0.0,0.0,0.0,0.0,0.0,0.0,0.0,0.0,0.0,0.0,0.0,0.0,0.0,0.0,0.0,0.0,0.0,0.0,0.0,0.0,0.0,0.0,0.0,0.0,0.0,0.0,0.0,0.0,0.0,0.0,0.0,0.0,0.0,0.0,0.0,0.0,0.0,0.0,0.0,0.0,0.0,0.0,0.0,0.0,0.0,0.0,0.0,0.0,0.0,0.0,0.0,0.0,0.0,0.0,0.0,0.0,0.0,0.0,0.0,0.0,0.0,0.0,0.0,0.0,0.0,0.0,0.0,0.0,0.0,0.0,0.0,0.0,0.0,0.0,0.0,0.0,0.0,0.0,0.0,0.0,0.0,0.0,0.0,0.0,0.0,0.0,0.0,0.0,0.0,0.0,0.0,0.0,0.0,0.0,0.0,0.0,0.0,0.0,0.0,0.0,0.0,0.0,0.0,0.0,0.0,0.0,0.0,0.0,0.0,0.0,0.0,0.0,0.0,0.0,0.0,0.0,0.0,0.0,0.0,0.0,0.0,0.0,0.0,0.0,0.0,0.0,0.0,0.0,0.0,0.0,0.0,0.0,0.0,0.0,0.0,0.0,0.0,0.0,0.0,0.0,0.0,0.0,0.0,0.0,0.0,0.0,0.0,0.0,0.0,0.0,0.0,0.0,0.0,0.0,0.0,0.0,0.0,0.0,0.0,0.0,0.0,0.0,0.0,0.0,0.0,0.0,0.0,0.0,0.0,0.0,0.0,0.0,0.0,0.0,0.0,0.0,0.0,0.0,0.0,0.0,0.0,0.0,0.0,0.0,0.0,0.0,0.0,0.0,0.0,0.0,0.0,0.0,0.0,0.0,0.0,0.0,0.0,0.0,0.0,0.0,0.0,0.0,0.0,0.0,0.0,0.0,0.0,0.0,0.0,0.0,0.0,0.0,0.0,0.0,0.0,0.0,0.0,0.0,0.0,0.0,0.0,0.0,0.0,0.0,0.0,0.0,0.0,0.0,0.0,0.0,0.0,0.0,0.0,0.0,0.0,0.0,0.0,0.0,0.0,0.0,0.0,0.0,0.0,0.0,0.0,0.0,0.0,0.0,0.0,0.0,0.0,0.0,0.0,0.0,0.0,0.0,0.0,0.0,0.0,0.0,0.0,0.0,0.0,0.0,0.0,0.0,0.0,0.0,0.0,0.0,0.0,0.0,0.0,0.0,0.0,0.0,0.0,0.0,0.0,0.0,0.0,0.0,0.0,0.0,0.0,0.0,0.0,0.0,0.0,0.0,0.0,0.0,0.0,0.0,0.0,0.0,0.0,0.0,0.0,0.0,0.0,0.0,0.0,0.0,0.0,0.0,0.0,0.0,0.0,0.0,0.0,0.0,0.0,0.0,0.0,0.0,0.0,0.0,0.0,0.0,0.0,0.0,0.0,0.0,0.0,0.0,0.0,0.0,0.0,0.0,0.0,0.0,0.0,0.0,0.0,0.0,0.0,0.0,0.0,0.0,0.0,0.0,0.0,0.0,0.0,0.0,0.0,0.0,0.0,0.0,0.0,0.0,0.0,0.0,0.0,0.0,0.0,0.0,0.0,0.0,0.0,0.0,0.0,0.0,0.0,0.0,0.0,0.0,0.0,0.0,0.0,0.0,0.0,0.0,0.0,0.0,0.0,0.0,0.0,0.0,0.0,0.0,0.0,0.0,0.0,0.0,0.0,0.0,0.0,0.0,0.0,0.0,0.0,0.0,0.0,0.0,0.0,0.0,0.0,0.0,0.0,0.0,0.0,0.0,0.0,0.0,0.0,0.0,0.0,0.0,0.0,0.0,0.0,0.0,0.0,0.0,0.0,0.0,0.0,0.0,0.0,0.0,0.0,0.0,0.0,0.0,0.0,0.0,0.0,0.0,0.0,0.0,0.0,0.0,0.0,0.0,0.0,0.0,0.0,0.0,0.0,0.0,0.0,0.0,0.0,0.0,0.0,0.0,0.0,0.0,0.0,0.0,0.0,0.0,0.0,0.0,0.0,0.0,0.0,0.0,0.0,0.0,0.0,0.0,0.0,0.0,0.0,0.0,0.0,0.0,0.0,0.0,0.0,0.0,0.0,0.0,0.0,0.0,0.0,0.0,0.0,0.0,0.0,0.0,0.0,0.0,0.0,0.0,0.0,0.0,0.0,0.0,0.0,0.0,0.0,0.0,0.0,0.0,0.0,0.0,0.0,0.0,0.0,0.0,0.0,0.0,0.0,0.0,0.0,0.0,0.0,0.0,0.0,0.0,0.0,0.0,0.0,0.0,0.0,0.0,0.0,0.0,0.0,0.0,0.0,0.0,0.0,0.0,0.0,0.0,0.0,0.0,0.0,0.0,0.0,0.0,0.0,0.0,0.0,0.0,0.0,0.0,0.0,0.0,0.0,0.0,0.0,0.0,0.0,0.0,0.0,0.0,0.0,0.0,0.0,0.0,0.0,0.0,0.0,0.0,0.0,0.0,0.0,0.0,0.0,0.0,0.0,0.0,0.0,0.0,0.0,0.0,0.0,0.0,0.0,0.0,0.0,0.0,0.0,0.0,0.0,0.0,0.0,0.0,0.0,0.0,0.0,0.0,0.0,0.0,0.0,0.0,0.0,0.0,0.0,0.0,0.0,0.0,0.0,0.0,0.0,0.0,0.0,0.0,0.0,0.0,0.0,0.0,0.0,0.0,0.0,0.0,0.0,0.0,0.0,0.0,0.0,0.0,0.0,0.0,0.0,0.0,0.0,0.0,0.0,0.0,0.0,0.0,0.0,0.0,0.0,0.0,0.0,0.0,0.0,0.0,0.0,0.0,0.0,0.0,0.0,0.0,0.0,0.0,0.0,0.0,0.0,0.0,0.0,0.0,0.0,0.0,0.0,0.0,0.0,0.0,0.0,0.0,0.0,0.0,0.0,0.0,0.0,0.0,0.0,0.0,0.0,0.0,0.0,0.0,0.0,0.0,0.0,0.0,0.0,0.0,0.0,0.0,0.0,0.0,0.0,0.0,0.0,0.0,0.0,0.0,0.0,0.0,0.0,0.0,0.0,0.0,0.0,0.0,0.0,0.0,0.0,0.0,0.0,0.0,0.0,0.0,0.0,0.0,0.0,0.0,0.0,0.0,0.0,0.0,0.0,0.0,0.0,0.0,0.0,0.0,0.0,0.0,0.0,0.0,0.0,0.0,0.0,0.0,0.0,0.0,0.0,0.0,0.0,0.0,0.0,0.0,0.0,0.0,0.0,0.0,0.0,0.0,0.0,0.0,0.0,0.0,0.0,0.0,0.0,0.0,0.0,0.0,0.0,0.0,0.0,0.0,0.0,0.0,0.0,0.0,0.0,0.0,0.0,0.0,0.0,0.0,0.0,0.0,0.0,0.0,0.0,0.0,0.0,0.0,0.0,0.0,0.0,0.0,0.0,0.0,0.0,0.0,0.0,0.0,0.0,2.7672,0.0,0.0,0.0,0.0,0.0,0.0,0.0,0.0,0.0,0.0,0.0,0.0,0.0,0.0,0.0,0.0,0.0,0.0,0.0,0.0,0.0,0.0,0.0,0.0,0.0,0.0,0.0,0.0,0.0,0.0,0.0,0.0,0.0,0.0,0.0,0.0,0.0,0.0,0.0,0.0,0.0,0.0,0.0,0.0,0.0,0.0,0.0,0.0,0.0,0.0,0.0,0.0,0.0,0.0,0.0,0.0,0.0,0.0,0.0,0.0,0.0,0.0,0.0,0.0,0.0,0.0,0.0,0.0,0.0,0.0,0.0,0.0,0.0,0.0,0.0,0.0,0.0,0.0,0.0,0.0,0.0,0.0,0.0,0.0,0.0,0.0,0.0,0.0,0.0,0.0,0.0,0.0,0.0,0.0,0.0,0.0,0.0,0.0,0.0,0.0,0.0,0.0,0.0,0.0,0.0,0.0,0.0,0.0,0.0,0.0,2.9922,2.9499,2.9161,2.8416,2.7249,0.0,0.0,0.0,0.0,0.0,0.0,0.0,0.0,0.0,0.0,0.0,0.0,0.0,0.0,0.0,0.0,0.0,0.0,0.0,0.0,0.0,0.0,0.0,0.0,0.0,0.0,0.0,0.0,0.0,0.0,0.0,0.0,0.0,0.0,0.0,0.0,0.0,0.0,0.0,0.0,0.0,0.0,0.0,0.0,0.0,0.0,0.0,0.0,0.0,0.0,0.0,0.0,0.0,0.0,0.0,0.0,0.0,0.0,0.0,0.0,0.0,0.0,0.0,0.0,0.0,0.0,0.0,0.0,0.0,0.0,0.0,0.0,0.0,0.0,0.0,0.0,0.0,0.0,0.0,0.0,0.0,0.0,0.0,0.0,0.0,0.0,0.0,0.0,0.0,0.0,0.0,0.0,0.0,0.0,0.0,0.0,0.0,0.0,0.0,0.0,0.0,0.0,0.0,0.0,0.0,0.0,0.0,0.0,0.0,0.0,0.0,0.0,2.9313,2.8518,2.7012,0.0,0.0,0.0,0.0,0.0,0.0,0.0,0.0,0.0,0.0,0.0,0.0,0.0,0.0,0.0,0.0,0.0,0.0,0.0,0.0,0.0,0.0,0.0,0.0,0.0,0.0,0.0,0.0,0.0,0.0,0.0,0.0,0.0,0.0,0.0,0.0,0.0,0.0,0.0,0.0,0.0,0.0,0.0,0.0,0.0,0.0,0.0,0.0,0.0,0.0,0.0,0.0,0.0,0.0,0.0,0.0,0.0,0.0,0.0,0.0,0.0,0.0,0.0,0.0,0.0,0.0,0.0,0.0,0.0,0.0,0.0,0.0,0.0,0.0,0.0,0.0,0.0,0.0,0.0,0.0,0.0,0.0,0.0,0.0,0.0,0.0,0.0,0.0,0.0,0.0,0.0,0.0,0.0,0.0,0.0,0.0,0.0,0.0,0.0,0.0,0.0,0.0,0.0,0.0,0.0,0.0,0.0,0.0,0.0,0.0,2.8975,3.0903,3.0328,0.0,2.7841,0.0,0.0,0.0,0.0,0.0,0.0,0.0,0.0,0.0,0.0,0.0,0.0,0.0,0.0,0.0,0.0,0.0,0.0,0.0,0.0,0.0,0.0,0.0,0.0,0.0,0.0,0.0,0.0,0.0,0.0,0.0,0.0,0.0,0.0,0.0,0.0,0.0,0.0,0.0,0.0,0.0,0.0,0.0,0.0,0.0,0.0,0.0,0.0,0.0,0.0,0.0,0.0,0.0,0.0,0.0,0.0,0.0,0.0,0.0,0.0,0.0,0.0,0.0,0.0,0.0,0.0,0.0,0.0,0.0,0.0,0.0,0.0,0.0,0.0,0.0,0.0,0.0,0.0,0.0,0.0,0.0,0.0,0.0,0.0,0.0,0.0,0.0,0.0,0.0,0.0,0.0,0.0,0.0,0.0,0.0,0.0,0.0,0.0,0.0,0.0,0.0,0.0,0.0,0.0,0.0,0.0,0.0,0.0,0.0,0.0,0.0,2.9871,2.8721,2.7791,0.0,0.0,0.0,0.0,0.0,0.0,0.0,0.0,0.0,0.0,0.0,0.0,0.0,0.0,0.0,0.0,0.0,0.0,0.0,0.0,0.0,0.0,0.0,0.0,0.0,0.0,0.0,0.0,0.0,0.0,0.0,0.0,0.0,0.0,0.0,0.0,0.0,0.0,0.0,0.0,0.0,0.0,0.0,0.0,0.0,0.0,0.0,0.0,0.0,0.0,0.0,0.0,0.0,0.0,0.0,0.0,0.0,0.0,0.0,0.0,0.0,0.0,0.0,0.0,0.0,0.0,0.0,0.0,0.0,0.0,0.0,0.0,0.0,0.0,0.0,0.0,0.0,0.0,0.0,0.0,0.0,0.0,0.0,0.0,0.0,0.0,0.0,0.0,0.0,0.0,0.0,0.0,0.0,0.0,0.0,0.0,0.0,0.0,0.0,0.0,0.0,0.0,0.0,0.0,0.0,0.0,0.0,0.0,0.0,0.0,2.9272,0.0,2.9466,2.8302,2.7249,2.642,0.0,0.0,0.0,0.0,0.0,0.0,0.0,0.0,0.0,0.0,0.0,0.0,0.0,0.0,0.0,0.0,0.0,0.0,0.0,0.0,0.0,0.0,0.0,0.0,0.0,0.0,0.0,0.0,0.0,0.0,0.0,0.0,0.0,0.0,0.0,0.0,0.0,0.0,0.0,0.0,0.0,0.0,0.0,0.0,0.0,0.0,0.0,0.0,0.0,0.0,0.0,0.0,0.0,0.0,0.0,0.0,0.0,0.0,0.0,0.0,0.0,0.0,0.0,0.0,0.0,0.0,0.0,0.0,0.0,0.0,0.0,0.0,0.0,0.0,0.0,0.0,0.0,0.0,0.0,0.0,0.0,0.0,0.0,0.0,0.0,0.0,0.0,0.0,0.0,0.0,0.0,0.0,0.0,0.0,0.0,0.0,0.0,0.0,0.0,0.0,0.0,0.0,0.0,0.0,0.0,0.0,0.0,0.0,0.0,3.0144,3.0038,3.0681,3.0219,2.8602,0.0,0.0,0.0,0.0,0.0,0.0,0.0,0.0,0.0,0.0,0.0,0.0,0.0,0.0,0.0,0.0,0.0,0.0,0.0,0.0,0.0,0.0,0.0,0.0,0.0,0.0,0.0,0.0,0.0,0.0,0.0,0.0,0.0,0.0,0.0,0.0,0.0,0.0,0.0,0.0,0.0,0.0,0.0,0.0,0.0,0.0,0.0,0.0,0.0,0.0,0.0,0.0,0.0,0.0,0.0,0.0,0.0,0.0,0.0,0.0,0.0,0.0,0.0,0.0,0.0,0.0,0.0,0.0,0.0,0.0,0.0,0.0,0.0,0.0,0.0,0.0,0.0,0.0,0.0,0.0,0.0,0.0,0.0,0.0,0.0,0.0,0.0,0.0,0.0,0.0,0.0,0.0,0.0,0.0,0.0,0.0,0.0,0.0,0.0,0.0,0.0,0.0,0.0,0.0,0.0,0.0,0.0,0.0,0.0,2.7944,2.9021,3.0404,3.1962,2.9397,2.7638,0.0,0.0,0.0,0.0,0.0,0.0,0.0,0.0,0.0,0.0,0.0,0.0,0.0,0.0,0.0,0.0,0.0,0.0,0.0,0.0,0.0,0.0,0.0,0.0,0.0,0.0,0.0,0.0,0.0,0.0,0.0,0.0,0.0,0.0,0.0,0.0,0.0,0.0,0.0,0.0,0.0,0.0,0.0,0.0,0.0,0.0,0.0,0.0,0.0,0.0,0.0,0.0,0.0,0.0,0.0,0.0,0.0,0.0,0.0,0.0,0.0,0.0,0.0,0.0,0.0,0.0,0.0,0.0,0.0,0.0,0.0,0.0,0.0,0.0,0.0,0.0,0.0,0.0,0.0,0.0,0.0,0.0,0.0,0.0,0.0,0.0,0.0,0.0,0.0,0.0,0.0,0.0,0.0,0.0,0.0,0.0,0.0,0.0,0.0,0.0,0.0,0.0,0.0,0.0,0.0,0.0,0.0,0.0,0.0,2.8076,0.0,3.1376,0.0,2.9127,2.7011,0.0,0.0,0.0,0.0,0.0,0.0,0.0,0.0,0.0,0.0,0.0,0.0,0.0,0.0,0.0,0.0,0.0,0.0,0.0,0.0,0.0,0.0,0.0,0.0,0.0,0.0,0.0,0.0,0.0,0.0,0.0,0.0,0.0,0.0,0.0,0.0,0.0,0.0,0.0,0.0,0.0,0.0,0.0,0.0,0.0,0.0,0.0,0.0,0.0,0.0,0.0,0.0,0.0,0.0,0.0,0.0,0.0,0.0,0.0,0.0,0.0,0.0,0.0,0.0,0.0,0.0,0.0,0.0,0.0,0.0,0.0,0.0,0.0,0.0,0.0,0.0,0.0,0.0,0.0,0.0,0.0,0.0,0.0,0.0,0.0,0.0,0.0,0.0,0.0,0.0,0.0,0.0,0.0,0.0,0.0,0.0,0.0,0.0,0.0,0.0,0.0,0.0,0.0,0.0,0.0,0.0,0.0,0.0,2.8047,3.1794,3.2941,3.2816,3.1658,2.9534,2.6888,0.0,0.0,0.0,0.0,0.0,0.0,0.0,0.0,0.0,0.0,0.0,0.0,0.0,0.0,0.0,0.0,0.0,0.0,0.0,0.0,0.0,0.0,0.0,0.0,0.0,0.0,0.0,0.0,0.0,0.0,0.0,0.0,0.0,0.0,0.0,0.0,0.0,0.0,0.0,0.0,0.0,0.0,0.0,0.0,0.0,0.0,0.0,0.0,0.0,0.0,0.0,0.0,0.0,0.0,0.0,0.0,0.0,0.0,0.0,0.0,0.0,0.0,0.0,0.0,0.0,0.0,0.0,0.0,0.0,0.0,0.0,0.0,0.0,0.0,0.0,0.0,0.0,0.0,0.0,0.0,0.0,0.0,0.0,0.0,0.0,0.0,0.0,0.0,0.0,0.0,0.0,0.0,0.0,0.0,0.0,0.0,0.0,0.0,0.0,0.0,0.0,0.0,0.0,0.0,0.0,0.0,0.0,0.0,0.0,2.9233,3.0753,3.1775,3.2107,2.8984,2.719,0.0,0.0,0.0,0.0,0.0,0.0,0.0,0.0,0.0,0.0,0.0,0.0,0.0,0.0,0.0,0.0,0.0,0.0,0.0,0.0,0.0,0.0,0.0,0.0,0.0,0.0,0.0,0.0,0.0,0.0,0.0,0.0,0.0,0.0,0.0,0.0,0.0,0.0,0.0,0.0,0.0,0.0,0.0,0.0,0.0,0.0,0.0,0.0,0.0,0.0,0.0,0.0,0.0,0.0,0.0,0.0,0.0,0.0,0.0,0.0,0.0,0.0,0.0,0.0,0.0,0.0,0.0,0.0,0.0,0.0,0.0,0.0,0.0,0.0,0.0,0.0,0.0,0.0,0.0,0.0,0.0,0.0,0.0,0.0,0.0,0.0,0.0,0.0,0.0,0.0,0.0,0.0,0.0,0.0,0.0,0.0,0.0,0.0,0.0,0.0,0.0,0.0,0.0,0.0,0.0,0.0,0.0,0.0,0.0,3.0101,3.1671,3.2599,3.2721,2.9523,2.7825,2.7818,0.0,0.0,0.0,0.0,0.0,0.0,0.0,0.0,0.0,0.0,0.0,0.0,0.0,0.0,0.0,0.0,0.0,0.0,0.0,0.0,0.0,0.0,0.0,0.0,0.0,0.0,0.0,0.0,0.0,0.0,0.0,0.0,0.0,0.0,0.0,0.0,0.0,0.0,0.0,0.0,0.0,0.0,0.0,0.0,0.0,0.0,0.0,0.0,0.0,0.0,0.0,0.0,0.0,0.0,0.0,0.0,0.0,0.0,0.0,0.0,0.0,0.0,0.0,0.0,0.0,0.0,0.0,0.0,0.0,0.0,0.0,0.0,0.0,0.0,0.0,0.0,0.0,0.0,0.0,0.0,0.0,0.0,0.0,0.0,0.0,0.0,0.0,0.0,0.0,0.0,0.0,0.0,0.0,0.0,0.0,0.0,0.0,0.0,0.0,0.0,0.0,0.0,0.0,0.0,0.0,0.0,0.0,0.0,3.3565,3.5169,3.5144,3.3341,3.0959,2.8835,0.0,0.0,0.0,0.0,0.0,0.0,0.0,0.0,0.0,0.0,0.0,0.0,0.0,0.0,0.0,0.0,0.0,0.0,0.0,0.0,0.0,0.0,0.0,0.0,0.0,0.0,0.0,0.0,0.0,0.0,0.0,0.0,0.0,0.0,0.0,0.0,0.0,0.0,0.0,0.0,0.0,0.0,0.0,0.0,0.0,0.0,0.0,0.0,0.0,0.0,0.0,0.0,0.0,0.0,0.0,0.0,0.0,0.0,0.0,0.0,0.0,0.0,0.0,0.0,0.0,0.0,0.0,0.0,0.0,0.0,0.0,0.0,0.0,0.0,0.0,0.0,0.0,0.0,0.0,0.0,0.0,0.0,0.0,0.0,0.0,0.0,0.0,0.0,0.0,0.0,0.0,0.0,0.0,0.0,0.0,0.0,0.0,0.0,0.0,0.0,0.0,0.0,0.0,0.0,0.0,0.0,0.0,0.0,0.0,3.4339,3.6308,3.6792,3.5532,3.2454,3.0443,0.0,0.0,0.0,0.0,0.0,0.0,0.0,0.0,0.0,0.0,0.0,0.0,0.0,0.0,0.0,0.0,0.0,0.0,0.0,0.0,0.0,0.0,0.0,0.0,0.0,0.0,0.0,0.0,0.0,0.0,0.0,0.0,0.0,0.0,0.0,0.0,0.0,0.0,0.0,0.0,0.0,0.0,0.0,0.0,0.0,0.0,0.0,0.0,0.0,0.0,0.0,0.0,0.0,0.0,0.0,0.0,0.0,0.0,0.0,0.0,0.0,0.0,0.0,0.0,0.0,0.0,0.0,0.0,0.0,0.0,0.0,0.0,0.0,0.0,0.0,0.0,0.0,0.0,0.0,0.0,0.0,0.0,0.0,0.0,0.0,0.0,0.0,0.0,0.0,0.0,0.0,0.0,0.0,0.0,0.0,0.0,0.0,0.0,0.0,0.0,0.0,0.0,0.0,0.0,0.0,0.0,0.0,0.0,3.451,3.5754,3.749,3.7912,3.7065,3.4151,3.1924,0.0,0.0,0.0,0.0,0.0,0.0,0.0,0.0,0.0,0.0,0.0,0.0,0.0,0.0,0.0,0.0,0.0,0.0,0.0,0.0,0.0,0.0,0.0,0.0,0.0,0.0,0.0,0.0,0.0,0.0,0.0,0.0,0.0,0.0,0.0,0.0,0.0,0.0,0.0,0.0,0.0,0.0,0.0,0.0,0.0,0.0,0.0,0.0,0.0,0.0,0.0,0.0,0.0,0.0,0.0,0.0,0.0,0.0,0.0,0.0,0.0,0.0,0.0,0.0,0.0,0.0,0.0,0.0,0.0,0.0,0.0,0.0,0.0,0.0,0.0,0.0,0.0,0.0,0.0,0.0,0.0,0.0,0.0,0.0,0.0,0.0,0.0,0.0,0.0,0.0,0.0,0.0,0.0,0.0,0.0,0.0,0.0,0.0,0.0,0.0,0.0,0.0,0.0,0.0,0.0,0.0,0.0,0.0,3.5566,3.7465,3.8581,3.8717,3.7889,3.5757,3.322,0.0,0.0,0.0,0.0,0.0,0.0,0.0,0.0,0.0,0.0,0.0,0.0,0.0,0.0,0.0,0.0,0.0,0.0,0.0,0.0,0.0,0.0,0.0,0.0,0.0,0.0,0.0,0.0,0.0,0.0,0.0,0.0,0.0,0.0,0.0,0.0,0.0,0.0,0.0,0.0,0.0,0.0,0.0,0.0,0.0,0.0,0.0,0.0,0.0,0.0,0.0,0.0,0.0,0.0,0.0,0.0,0.0,0.0,0.0,0.0,0.0,0.0,0.0,0.0,0.0,0.0,0.0,0.0,0.0,0.0,0.0,0.0,0.0,0.0,0.0,0.0,0.0,0.0,0.0,0.0,0.0,0.0,0.0,0.0,0.0,0.0,0.0,0.0,0.0,0.0,0.0,0.0,0.0,0.0,0.0,0.0,0.0,0.0,0.0,0.0,0.0,0.0,0.0,0.0,0.0,0.0,0.0,0.0,3.6063,3.8225,3.933,3.9225,3.7939,3.6265,3.3998,0.0,0.0,0.0,0.0,0.0,0.0,0.0,0.0,0.0,0.0,0.0,0.0,0.0,0.0,0.0,0.0,0.0,0.0,0.0,0.0,0.0,0.0,0.0,0.0,0.0,0.0,0.0,0.0,0.0,0.0,0.0,0.0,0.0,0.0,0.0,0.0,0.0,0.0,0.0,0.0,0.0,0.0,0.0,0.0,0.0,0.0,0.0,0.0,2.8517,0.0,0.0,0.0,0.0,0.0,0.0,0.0,0.0,0.0,0.0,0.0,0.0,0.0,0.0,0.0,0.0,0.0,0.0,0.0,0.0,0.0,0.0,0.0,0.0,0.0,0.0,0.0,0.0,0.0,0.0,0.0,0.0,0.0,0.0,0.0,0.0,0.0,0.0,0.0,0.0,0.0,0.0,0.0,0.0,0.0,0.0,0.0,0.0,0.0,0.0,0.0,0.0,0.0,0.0,0.0,0.0,0.0,0.0,0.0,3.7025,3.8704,3.9627,3.9377,3.7956,3.711,3.4857,0.0,0.0,0.0,0.0,0.0,0.0,0.0,0.0,0.0,0.0,0.0,0.0,0.0,0.0,0.0,0.0,0.0,0.0,0.0,0.0,0.0,0.0,0.0,0.0,0.0,0.0,0.0,0.0,0.0,0.0,0.0,0.0,0.0,0.0,0.0,0.0,0.0,0.0,0.0,0.0,0.0,0.0,0.0,0.0,0.0,0.0,0.0,0.0,0.0,0.0,0.0,0.0,0.0,0.0,0.0,0.0,0.0,0.0,0.0,0.0,0.0,0.0,0.0,0.0,0.0,0.0,0.0,0.0,0.0,0.0,0.0,0.0,0.0,0.0,0.0,0.0,0.0,0.0,0.0,0.0,0.0,0.0,0.0,0.0,0.0,0.0,0.0,0.0,0.0,0.0,0.0,0.0,0.0,0.0,0.0,0.0,0.0,0.0,0.0,0.0,0.0,0.0,0.0,0.0,0.0,0.0,0.0,3.5223,3.7689,3.9139,3.9766,3.9377,3.7973,3.7922,3.5467,3.05,0.0,0.0,0.0,0.0,0.0,0.0,0.0,0.0,0.0,0.0,0.0,0.0,0.0,0.0,0.0,0.0,0.0,0.0,0.0,0.0,0.0,0.0,0.0,0.0,0.0,0.0,0.0,0.0,0.0,0.0,0.0,0.0,0.0,0.0,0.0,0.0,0.0,0.0,2.8099,2.9191,0.0,0.0,0.0,0.0,0.0,0.0,0.0,0.0,3.0283,0.0,0.0,0.0,0.0,0.0,0.0,0.0,0.0,0.0,0.0,0.0,0.0,0.0,0.0,0.0,0.0,0.0,0.0,0.0,0.0,0.0,0.0,0.0,0.0,0.0,0.0,0.0,0.0,0.0,0.0,0.0,0.0,0.0,0.0,0.0,0.0,0.0,0.0,0.0,0.0,0.0,0.0,0.0,0.0,0.0,0.0,0.0,0.0,0.0,0.0,0.0,0.0,0.0,0.0,0.0,0.0,3.4749,3.4948,3.6576,3.9783,4.0003,3.9377,3.799,3.7922,3.5328,3.0103,0.0,0.0,0.0,0.0,0.0,0.0,0.0,0.0,0.0,0.0,0.0,0.0,0.0,0.0,0.0,0.0,0.0,0.0,0.0,0.0,0.0,0.0,0.0,0.0,0.0,0.0,0.0,0.0,0.0,0.0,0.0,0.0,0.0,0.0,0.0,0.0,0.0,0.0,0.0,3.0737,3.1048,0.0,0.0,0.0,0.0,0.0,0.0,0.0,0.0,3.065,0.0,0.0,0.0,0.0,0.0,0.0,0.0,0.0,0.0,0.0,0.0,0.0,0.0,0.0,0.0,0.0,0.0,0.0,0.0,0.0,0.0,0.0,0.0,0.0,0.0,0.0,0.0,0.0,0.0,0.0,0.0,0.0,0.0,0.0,0.0,0.0,0.0,0.0,0.0,0.0,0.0,0.0,0.0,0.0,0.0,0.0,0.0,0.0,0.0,0.0,0.0,0.0,0.0,0.0,0.0,3.4252,3.5639,3.7499,3.9969,3.9715,3.9005,3.7922,3.6383,3.3661,0.0,0.0,0.0,0.0,0.0,0.0,0.0,0.0,0.0,0.0,0.0,0.0,0.0,0.0,0.0,0.0,0.0,0.0,0.0,0.0,0.0,0.0,0.0,0.0,0.0,0.0,0.0,0.0,0.0,0.0,0.0,0.0,0.0,0.0,0.0,0.0,0.0,0.0,0.0,0.0,3.1623,3.1892,3.2229,0.0,0.0,0.0,0.0,0.0,0.0,3.0999,3.0613,0.0,0.0,0.0,0.0,0.0,0.0,0.0,0.0,0.0,0.0,0.0,0.0,0.0,0.0,0.0,0.0,0.0,0.0,0.0,0.0,0.0,0.0,0.0,0.0,0.0,0.0,0.0,0.0,0.0,0.0,0.0,0.0,0.0,0.0,0.0,0.0,0.0,0.0,0.0,0.0,0.0,0.0,0.0,0.0,0.0,0.0,0.0,0.0,0.0,0.0,0.0,0.0,0.0,0.0,0.0,3.3372,3.6079,3.8311,3.9952,3.9377,3.865,3.7889,3.5133,3.2294,0.0,0.0,0.0,0.0,0.0,0.0,0.0,0.0,0.0,0.0,0.0,0.0,0.0,0.0,0.0,0.0,0.0,0.0,0.0,0.0,0.0,0.0,0.0,0.0,0.0,0.0,0.0,0.0,0.0,0.0,0.0,0.0,0.0,0.0,0.0,0.0,0.0,0.0,0.0,0.0,0.0,3.3186,3.2679,3.3231,0.0,0.0,0.0,0.0,3.2716,3.1898,0.0,0.0,0.0,0.0,0.0,0.0,0.0,0.0,0.0,0.0,0.0,0.0,0.0,0.0,0.0,0.0,0.0,0.0,0.0,0.0,0.0,0.0,0.0,0.0,0.0,0.0,0.0,0.0,0.0,0.0,0.0,0.0,0.0,0.0,0.0,0.0,0.0,0.0,0.0,0.0,0.0,0.0,0.0,0.0,0.0,0.0,0.0,0.0,0.0,0.0,0.0,0.0,0.0,0.0,0.0,0.0,3.3271,3.5047,3.7246,3.9884,3.936,3.865,3.7922,3.5733,3.2747,0.0,0.0,0.0,0.0,0.0,0.0,0.0,0.0,0.0,0.0,0.0,0.0,0.0,0.0,0.0,0.0,0.0,0.0,0.0,0.0,0.0,0.0,0.0,0.0,0.0,0.0,0.0,0.0,0.0,0.0,0.0,0.0,0.0,0.0,0.0,0.0,0.0,0.0,0.0,0.0,0.0,3.5559,3.4751,3.3866,3.3542,0.0,0.0,3.3172,3.3588,3.41,0.0,0.0,0.0,0.0,0.0,0.0,0.0,0.0,0.0,0.0,0.0,0.0,0.0,0.0,0.0,0.0,0.0,0.0,0.0,0.0,0.0,0.0,0.0,0.0,0.0,0.0,0.0,0.0,0.0,0.0,0.0,0.0,0.0,0.0,0.0,0.0,0.0,0.0,0.0,0.0,0.0,0.0,0.0,0.0,0.0,0.0,0.0,0.0,0.0,0.0,0.0,0.0,0.0,0.0,0.0,2.9786,3.3322,3.5707,3.7939,3.9952,3.8971,3.8227,3.7905,3.4205,3.092,0.0,0.0,0.0,0.0,0.0,0.0,0.0,0.0,0.0,0.0,0.0,0.0,0.0,0.0,0.0,0.0,0.0,0.0,0.0,0.0,0.0,0.0,0.0,0.0,0.0,0.0,0.0,0.0,0.0,0.0,0.0,0.0,0.0,0.0,0.0,0.0,0.0,0.0,0.0,0.0,0.0,0.0,3.4939,3.5051,0.0,0.0,0.0,3.4661,3.5145,0.0,0.0,0.0,0.0,0.0,0.0,0.0,0.0,0.0,0.0,0.0,0.0,0.0,0.0,0.0,0.0,0.0,0.0,0.0,0.0,0.0,0.0,0.0,0.0,0.0,0.0,0.0,0.0,0.0,0.0,0.0,0.0,0.0,0.0,0.0,0.0,0.0,0.0,0.0,0.0,0.0,0.0,0.0,0.0,0.0,0.0,0.0,0.0,0.0,0.0,0.0,0.0,0.0,0.0,0.0,0.0,0.0,3.3372,3.6366,3.8616,3.9969,3.8667,3.7922,3.7838,3.3172,0.0,0.0,0.0,0.0,0.0,0.0,0.0,0.0,0.0,0.0,0.0,0.0,0.0,0.0,0.0,0.0,0.0,0.0,0.0,0.0,0.0,0.0,0.0,0.0,0.0,0.0,0.0,2.2073,0.0,0.0,0.0,0.0,0.0,0.0,0.0,0.0,0.0,0.0,0.0,0.0,0.0,0.0,3.5836,3.5596,3.6307,3.6558,0.0,0.0,3.5804,3.6316,3.564,3.431,0.0,0.0,0.0,0.0,0.0,0.0,0.0,0.0,0.0,0.0,0.0,0.0,0.0,0.0,0.0,0.0,0.0,0.0,0.0,0.0,0.0,0.0,0.0,0.0,0.0,0.0,0.0,0.0,0.0,0.0,0.0,0.0,0.0,0.0,0.0,0.0,0.0,0.0,0.0,0.0,0.0,0.0,0.0,0.0,0.0,0.0,0.0,0.0,0.0,0.0,0.0,0.0,0.0,0.0,0.0,3.3389,3.6383,3.8616,3.9969,3.8667,3.7922,3.7807,3.3742,3.0306,0.0,0.0,0.0,0.0,0.0,0.0,0.0,0.0,0.0,0.0,0.0,0.0,0.0,0.0,0.0,0.0,0.0,0.0,0.0,0.0,0.0,0.0,0.0,0.0,0.0,0.0,0.0,0.0,0.0,0.0,0.0,0.0,0.0,0.0,0.0,0.0,0.0,0.0,0.0,0.0,0.0,3.8227,3.7697,3.7381,3.7463,0.0,3.6891,3.6132,3.6615,3.7603,3.6827,3.2286,0.0,0.0,0.0,0.0,0.0,0.0,0.0,0.0,0.0,0.0,0.0,0.0,0.0,0.0,0.0,0.0,0.0,0.0,0.0,0.0,0.0,0.0,0.0,0.0,0.0,0.0,0.0,0.0,0.0,0.0,0.0,0.0,0.0,0.0,0.0,0.0,0.0,0.0,0.0,0.0,0.0,0.0,0.0,0.0,0.0,0.0,0.0,0.0,0.0,0.0,0.0,0.0,0.0,3.0446,3.3389,3.6383,3.8616,3.9952,3.8667,3.7922,3.7922,3.3776,3.0567,0.0,0.0,0.0,0.0,0.0,0.0,0.0,0.0,0.0,0.0,0.0,0.0,0.0,0.0,0.0,0.0,0.0,0.0,0.0,0.0,0.0,0.0,0.0,0.0,0.0,0.0,0.0,0.0,2.2327,2.236,2.251,0.0,0.0,0.0,0.0,0.0,0.0,0.0,0.0,0.0,0.0,3.7845,3.8232,3.817,0.0,0.0,3.8297,3.816,3.8132,3.8041,3.6906,3.3839,3.2954,0.0,0.0,0.0,0.0,0.0,0.0,0.0,0.0,0.0,0.0,0.0,0.0,0.0,0.0,0.0,0.0,0.0,0.0,0.0,0.0,0.0,0.0,0.0,0.0,0.0,0.0,0.0,0.0,0.0,0.0,0.0,0.0,0.0,0.0,0.0,0.0,0.0,0.0,0.0,0.0,0.0,0.0,0.0,0.0,0.0,0.0,0.0,0.0,0.0,0.0,0.0,0.0,3.0784,3.3711,3.6705,3.8819,4.0087,3.865,3.7793,3.7481,3.3664,3.0699,0.0,0.0,0.0,0.0,0.0,0.0,0.0,0.0,0.0,0.0,0.0,0.0,0.0,0.0,0.0,0.0,0.0,0.0,0.0,0.0,0.0,0.0,0.0,0.0,0.0,0.0,0.0,0.0,2.2327,2.2398,2.2686,0.0,0.0,0.0,0.0,0.0,0.0,0.0,0.0,0.0,0.0,3.8046,3.8807,3.8936,3.8936,3.8953,3.907,3.91,3.9032,3.8569,3.7454,3.5299,0.0,0.0,0.0,0.0,0.0,0.0,0.0,0.0,0.0,0.0,0.0,0.0,0.0,0.0,0.0,0.0,0.0,0.0,0.0,0.0,0.0,0.0,0.0,0.0,0.0,0.0,0.0,1.972,0.0,0.0,1.9705,0.0,0.0,0.0,0.0,0.0,0.0,0.0,0.0,0.0,0.0,0.0,0.0,0.0,0.0,0.0,0.0,0.0,0.0,0.0,0.0,0.0,0.0,3.1529,3.4438,3.7398,3.9326,4.002,3.865,3.7549,3.6786,3.3454,3.0641,2.8607,0.0,0.0,0.0,0.0,0.0,0.0,0.0,0.0,0.0,0.0,0.0,0.0,0.0,0.0,0.0,0.0,0.0,0.0,0.0,0.0,0.0,0.0,0.0,0.0,0.0,0.0,2.2327,2.2327,2.2415,0.0,0.0,0.0,0.0,0.0,0.0,0.0,0.0,0.0,0.0,3.787,3.9434,3.9656,3.9732,3.9777,3.9759,3.8993,3.8528,3.9067,3.948,3.8984,0.0,0.0,0.0,0.0,0.0,0.0,0.0,0.0,0.0,0.0,0.0,0.0,0.0,0.0,0.0,0.0,0.0,0.0,0.0,0.0,0.0,0.0,0.0,0.0,0.0,0.0,0.0,2.2936,2.2263,0.0,0.0,0.0,0.0,0.0,0.0,0.0,0.0,0.0,0.0,0.0,2.6632,2.7724,0.0,0.0,0.0,0.0,0.0,0.0,0.0,0.0,0.0,0.0,0.0,0.0,3.2036,3.4506,3.7466,3.9343,4.002,3.865,3.7549,3.6819,3.3859,3.0717,2.7385,0.0,0.0,0.0,0.0,0.0,0.0,0.0,0.0,0.0,0.0,0.0,0.0,0.0,0.0,0.0,0.0,0.0,0.0,0.0,0.0,0.0,0.0,0.0,0.0,0.0,2.2327,0.0,0.0,0.0,0.0,0.0,0.0,0.0,0.0,0.0,0.0,0.0,3.5215,3.6989,3.8633,3.9735,3.9956,4.0294,4.0417,0.0,0.0,0.0,0.0,0.0,0.0,0.0,0.0,0.0,0.0,0.0,0.0,0.0,0.0,3.8347,3.6125,3.5041,3.4661,3.5329,0.0,0.0,0.0,0.0,0.0,0.0,0.0,0.0,0.0,0.0,0.0,0.0,0.0,0.0,2.527,2.4597,2.3969,0.0,0.0,0.0,0.0,0.0,0.0,0.0,0.0,2.7821,2.8891,2.9325,3.0417,3.0357,0.0,2.952,2.8312,0.0,0.0,0.0,0.0,0.0,0.0,0.0,0.0,3.2866,3.5301,3.799,3.9597,3.9986,3.8403,3.7153,3.6427,3.3252,3.003,2.6711,2.5106,2.3595,0.0,0.0,0.0,0.0,0.0,0.0,0.0,0.0,0.0,0.0,0.0,0.0,0.0,0.0,0.0,0.0,0.0,0.0,0.0,0.0,0.0,0.0,0.0,2.2784,0.0,0.0,0.0,0.0,0.0,0.0,0.0,0.0,0.0,3.2966,3.4815,3.6614,3.8106,3.9238,3.9949,4.0103,0.0,0.0,0.0,0.0,0.0,0.0,0.0,3.8994,3.8789,3.7885,3.7102,3.6903,3.787,3.8608,3.8448,0.0,0.0,3.7982,3.7184,3.6987,3.7654,3.8174,3.8331,3.7767,3.8492,3.8994,0.0,0.0,0.0,0.0,0.0,0.0,0.0,0.0,2.7515,2.738,0.0,2.6093,0.0,0.0,0.0,0.0,2.3998,2.6501,0.0,0.0,3.124,3.2527,3.2587,3.317,3.317,3.2632,3.3155,3.2437,3.0458,2.7189,0.0,0.0,0.0,0.0,0.0,0.0,3.3927,3.6709,3.8888,4.007,3.9986,3.7952,3.6476,3.5674,3.1782,2.8794,2.6826,2.6063,2.4792,2.2892,2.2143,0.0,0.0,0.0,0.0,0.0,0.0,0.0,0.0,0.0,0.0,0.0,0.0,0.0,0.0,0.0,0.0,0.0,0.0,0.0,0.0,2.3393,0.0,0.0,0.0,0.0,0.0,0.0,0.0,0.0,0.0,0.0,3.4759,3.6552,3.8193,3.892,0.0,0.0,0.0,0.0,4.0336,4.078,4.0205,3.9936,4.0461,4.0535,4.0288,3.9766,0.0,0.0,3.8289,3.9123,3.9597,3.8244,3.9206,4.0417,4.1446,4.027,3.964,4.0335,3.9416,3.8862,3.9874,4.0166,4.0384,3.1734,0.0,0.0,0.0,0.0,3.0088,3.0821,3.2168,3.142,3.0731,3.0073,2.9385,0.0,0.0,0.0,0.0,0.0,0.0,3.0247,3.1256,3.2118,3.3006,3.3918,3.4113,3.4098,3.3933,3.4113,3.3664,3.2602,3.1185,2.9167,2.6734,0.0,0.0,0.0,0.0,3.4348,3.6655,3.8363,3.9262,3.9246,3.8124,3.6421,3.4178,3.1637,2.9968,2.9385,2.7859,2.6527,2.5495,2.3924,0.0,0.0,0.0,0.0,0.0,0.0,0.0,0.0,0.0,0.0,0.0,0.0,0.0,0.0,0.0,0.0,0.0,0.0,0.0,2.3325,2.3393,2.434,0.0,0.0,0.0,0.0,0.0,0.0,0.0,0.0,0.0,3.7601,3.8244,3.8954,0.0,0.0,4.0546,4.0171,4.04,4.0577,4.0368,4.0148,0.0,4.0189,3.9791,3.959,3.9944,4.0199,4.0133,3.9579,3.985,3.9935,3.9495,3.98,4.0204,4.0497,4.0562,4.0691,4.1258,4.106,4.0872,4.125,4.1327,4.1489,3.3933,3.2407,3.1509,3.1584,3.2287,3.2138,3.2841,3.4068,3.3514,3.3066,3.2662,3.1988,3.0896,2.949,2.8966,0.0,0.0,0.0,3.1953,3.315,3.3276,3.3858,3.4846,3.4876,3.4876,3.4891,3.4891,3.4681,3.4292,3.3903,3.233,2.9796,0.0,0.0,3.0914,3.2935,3.4883,3.6653,3.7883,3.8469,3.8453,3.7235,3.5459,3.3154,3.1407,3.0492,3.0477,2.9131,2.7934,2.7006,2.5585,2.4073,0.0,0.0,0.0,0.0,0.0,0.0,0.0,0.0,0.0,0.0,0.0,2.4103,2.3257,0.0,0.0,0.0,2.3714,2.4492,2.5524,2.6133,0.0,0.0,0.0,0.0,0.0,0.0,0.0,3.6941,3.7719,3.843,3.9292,3.9428,3.958,4.002,4.0385,4.0449,4.0171,0.0,4.0449,4.0171,4.0087,4.0087,4.007,3.9698,3.958,4.0003,4.0087,4.0087,4.0087,4.0087,4.0087,4.0087,4.0087,4.0087,4.0087,4.0368,4.0672,4.1013,4.1122,4.1213,4.1402,4.1446,4.1621,3.5654,3.5564,3.4322,3.3754,3.3709,3.4307,3.4203,3.3709,3.4292,3.4547,3.4517,3.3918,3.332,3.2677,3.1465,0.0,3.181,3.2467,3.3395,3.4547,3.4562,3.4891,3.5489,3.5489,3.5489,3.5489,3.5489,3.5489,3.5474,3.5474,3.4876,3.3649,3.2452,3.2397,3.3486,3.4295,3.5368,3.6644,3.7355,3.769,3.7674,3.5665,3.3946,3.2602,3.124,3.0492,3.0477,2.9849,2.8936,2.776,2.6976,2.5719,2.3864,0.0,0.0,0.0,0.0,0.0,0.0,0.0,0.0,0.0,0.0,0.0,0.0,0.0,0.0,0.0,2.6184,0.0,2.9062,3.0446,0.0,0.0,0.0,3.3169,3.4759,3.6146,3.7246,3.799,0.0,0.0,4.0087,4.0087,4.0087,4.0087,4.0087,4.0087,4.0087,4.0121,4.0087,4.0087,4.0087,4.0087,4.0087,4.0054,4.0037,4.007,4.0087,4.0087,4.0087,4.0087,4.0087,4.0087,4.0087,4.0087,4.0087,4.0121,4.007,4.0171,4.0171,4.0286,4.075,4.081,4.0995,3.6971,3.6926,3.6611,3.5923,3.5055,3.519,3.5175,3.504,3.5205,3.5265,3.525,3.51,3.4936,3.4771,3.4457,3.4412,3.4577,3.4726,3.4951,3.525,3.525,3.5355,3.5489,3.5489,3.5489,3.5489,3.5489,3.5489,3.5489,3.5489,3.534,3.5026,3.4711,3.4175,3.3532,3.4197,3.5263,3.6609,3.6826,3.6919,3.6812,3.485,3.3577,3.326,3.1465,3.0492,3.0477,2.943,2.8682,2.8338,2.723,2.6153,2.5181,2.343,0.0,0.0,0.0,0.0,0.0,0.0,0.0,0.0,0.0,2.6979,2.4692,0.0,2.7283,0.0,2.9245,3.026,3.0632,3.1478,0.0,0.0,3.5284,3.5859,3.8447,3.8582,3.8768,3.9478,3.9868,4.0087,4.0087,4.0087,4.0087,4.0087,4.0087,4.0087,4.0087,4.0087,4.0087,4.0087,4.0087,4.0087,4.0087,4.0087,4.0087,4.0087,4.0087,4.0087,4.0087,4.0087,4.0087,4.0087,4.0087,4.0087,4.0087,4.0087,4.0087,4.0087,4.0087,4.0121,4.0286,4.0286,4.0466,3.7404,3.7404,3.7404,3.7,3.6327,3.6058,3.5774,3.5504,3.5489,3.5489,3.5489,3.5489,3.5489,3.5489,3.5489,3.5489,3.5489,3.5489,3.5489,3.5489,3.5489,3.5489,3.5489,3.5489,3.5489,3.5489,3.5489,3.5489,3.5489,3.5489,3.5489,3.5489,3.5489,3.513,3.4442,3.4756,3.5356,3.6117,3.6117,3.6117,3.6072,3.4391,3.3365,3.3036,3.1704,3.0687,3.0103,2.9669,2.9056,2.8188,2.7425,2.6602,2.5644,2.4298,2.3385,0.0,0.0,0.0,0.0,0.0,0.0,0.0,0.0,0.0,0.0,0.0,2.9144,2.9905,3.1596,3.2933,3.3626,3.4641,3.6079,3.8041,3.7532,3.7869,3.9901,3.9429,3.936,4.0442,4.0578,4.0696,4.1001,4.1068,4.1068,4.1052,4.1068,4.0815,4.0256,4.0087,4.0087,4.0087,4.0087,4.0087,4.0087,4.0087,4.0087,4.0087,4.0087,4.0087,4.0087,4.0087,4.0087,4.0087,4.0087,4.0189,4.051,4.0578,4.0663,4.0984,4.1068,4.0815,4.0223,4.0341,4.0696,3.7674,3.7659,3.7659,3.7629,3.7494,3.6956,3.6312,3.5624,3.5639,3.5579,3.5489,3.5489,3.5489,3.5489,3.5489,3.5489,3.5489,3.5489,3.5489,3.5489,3.5489,3.5489,3.5489,3.5489,3.5489,3.5489,3.5489,3.5489,3.5489,3.5489,3.5489,3.5489,3.5489,3.5489,3.5489,3.5489,3.5489,3.5489,3.5489,3.5489,3.5474,3.4262,3.3305,3.2647,3.1839,3.0836,2.9654,3.0013,2.9475,2.788,2.7835,2.7275,2.6063,2.536,2.4956,0.0,2.4852,0.0,0.0,0.0,0.0,0.0,0.0,0.0,0.0,3.1134,3.1292,3.1732,3.3863,3.5707,3.6958,3.8246,3.9261,3.9817,3.9262,3.9119,3.9917,3.9481,3.9624,4.1133,4.1339,4.1593,4.2134,4.2303,4.2286,4.2202,4.2168,4.1745,4.0679,4.046,4.0476,4.0358,4.0273,4.0307,4.0307,4.0273,4.0307,4.0358,4.0341,4.0223,4.0257,4.0257,4.0257,4.0257,4.0375,4.0629,4.1238,4.1356,4.1542,4.2066,4.2168,4.1796,4.0832,4.0916,4.1322,3.9035,3.905,3.9035,3.8721,3.8197,3.8078,3.7375,3.6297,3.6297,3.6013,3.5504,3.5489,3.5489,3.5489,3.5489,3.5489,3.5489,3.5489,3.5489,3.5489,3.5489,3.5489,3.5489,3.5489,3.5489,3.5489,3.5489,3.5489,3.5489,3.5489,3.5489,3.5489,3.5489,3.5489,3.5489,0.0,0.0,0.0,3.5489,3.5489,3.5474,3.4711,3.3963,3.329,3.1614,0.0,2.9624,2.9175,2.8786,2.8442,2.8906,0.0,0.0,0.0,0.0,0.0,0.0,0.0,0.0,0.0,0.0,0.0,3.1102,3.135,3.1374,3.4443,3.5977,3.4979,3.7364,3.8903,3.8616,3.8772,3.8974,3.9053,3.8469,3.8545,3.9896,3.9941,4.0441,4.1876,4.2083,4.2134,4.232,4.2303,4.232,4.2388,4.2303,4.2185,4.1948,4.183,4.1847,4.1847,4.1339,4.1001,4.1001,4.0984,4.1187,4.1627,4.1356,4.1035,4.1001,4.0984,4.0984,4.1001,4.1474,4.1863,4.2066,4.2083,4.2151,4.2269,4.232,4.2202,4.1931,4.1982,4.2083,3.9903,3.9873,3.9544,3.9215,0.0,3.8901,3.8332,3.7404,3.7075,3.6761,3.6462,3.6447,3.6282,3.5998,3.5998,3.5818,3.5504,3.5489,3.5489,3.5489,3.5489,3.5489,3.5489,3.5489,3.5489,3.5489,3.5489,3.5489,3.5489,3.5489,3.5489,3.5489,3.5489,3.5489,3.5489,3.5489,3.5489,3.5489,3.5489,3.5489,3.5474,3.4831,3.4158,3.3499,3.2512,0.0,0.0,0.0,0.0,0.0,0.0,0.0,0.0,0.0,0.0,2.8068,2.8574,2.8728,2.847,3.0158,3.139,3.1852,3.3107,3.3577,3.2902,3.5593,3.6979,3.6288,3.7903,3.8809,3.848,3.84,3.8504,3.8772,3.8184,3.8293,3.9645,3.9949,4.0607,4.1982,4.2593,4.2963,4.3369,4.342,4.342,4.342,4.3403,4.3403,4.3335,4.2743,4.2303,4.2286,4.2016,4.1745,4.1745,4.1745,4.1847,4.2151,4.1982,4.1779,4.1745,4.1745,4.1745,4.1762,4.2049,4.2371,4.2777,4.2844,4.2946,4.3318,4.342,4.342,4.3403,4.3115,4.2844,4.0561,4.0516,3.9873,3.9604,3.9589,3.9469,3.9095,3.8512,3.7734,0.0,0.0,3.7404,3.7135,3.6656,3.6641,3.6357,3.5848,3.5848,3.5848,3.5833,3.5848,3.5848,3.5833,3.5848,3.5848,3.5848,3.5848,3.5833,3.5833,3.5848,3.5774,3.5684,3.5669,3.5624,3.5504,3.5489,3.5489,3.5489,3.5489,3.5489,3.5489,3.4951,3.4337,3.3679,3.3544,3.2662,3.0956,3.1405,3.0971,2.94,2.94,2.9415,2.9295,2.94,2.9654,3.0103,3.1225,3.1629,3.1106,3.2677,3.3484,3.3066,3.4592,3.5357,3.4794,3.6087,3.6869,3.6885,3.7412,3.787,3.7982,3.7823,3.8034,3.8674,3.806,3.8151,3.9534,3.9831,4.0534,4.2118,4.2956,4.3659,4.4401,4.4485,4.457,4.4553,4.4434,4.457,4.4434,4.3538,4.2777,4.2591,4.2523,4.2489,4.2489,4.2489,4.254,4.2777,4.2642,4.2489,4.2489,4.2489,4.2489,4.2489,4.2591,4.2997,4.3487,4.3623,4.3842,4.4451,4.457,4.457,4.4519,4.4079,4.3639,4.1235,4.119,4.0531,4.0262,4.0217,3.9664,3.9364,3.917,3.7958,3.7404,3.7404,3.7404,3.736,3.727,3.7285,3.7225,3.715,3.715,3.7135,3.7135,3.715,3.715,3.715,3.715,3.7135,3.715,3.7135,3.715,3.7135,3.712,3.6881,3.6402,3.6342,3.6073,3.5549,3.5489,3.5489,3.5489,3.5489,3.5489,3.5489,3.5415,3.504,3.4367,3.3799,3.3125,3.2287,3.2332,3.2258,3.2003,3.2497,3.2557,3.2018,3.2452,3.2602,3.2198,3.2796,3.317,3.3095,3.3858,3.4547,3.5026,3.5379,3.5715,3.6273,3.7128,3.7662,3.7678,3.7642,3.8019,3.8547,3.8025,3.7888,3.8477,3.7897,3.8022,3.9501,3.9776,4.061,4.2675,4.3218,4.3631,4.4333,4.4497,4.4514,4.457,4.457,4.457,4.4536,4.4418,4.3978,4.3436,4.325,4.3267,4.3267,4.3267,4.3487,4.4181,4.3639,4.3267,4.325,4.3267,4.3267,4.325,4.3707,4.4147,4.435,4.4418,4.4418,4.457,4.457,4.457,4.457,4.4434,4.4367,4.1923,4.1833,4.1205,4.0935,4.0891,4.0232,3.9738,3.9379,3.8781,3.8497,3.8497,3.8497,3.8287,3.7958,3.7943,3.7734,3.7404,3.7404,3.7404,3.7404,3.7404,3.7404,3.7404,3.7404,3.7404,3.7404,3.7404,3.7404,3.7404,3.7404,3.727,3.6971,3.6671,3.6327,3.6043,3.5684,3.5489,3.5489,3.5489,3.5489,3.5489,3.5489,3.5355,3.5026,3.4726,3.4277,3.3619,3.3574,3.3425,3.3051,3.3335,3.3365,3.308,3.3335,3.335,3.3095,3.3664,3.4038,3.4038,3.4651,3.516,3.5474,3.5489,3.5604,3.6006,3.6305,3.6538,3.6569,3.6863,3.7218,3.7542,3.7495,3.7785,3.8454,3.8136,3.8406,3.9382,3.997,4.0669,4.174,4.2332,4.2909,4.3814,4.3873,4.4138,4.444,4.457,4.4587,4.4604,4.4587,4.4485,4.4113,4.4062,4.4045,4.4045,4.4045,4.4198,4.4536,4.4299,4.4079,4.4045,4.4045,4.4045,4.4045,4.4367,4.4536,4.457,4.457,4.457,4.457,4.457,4.457,4.457,4.457,4.457,4.2596,4.2506,4.1878,4.1519,4.1339,4.0846,4.0247,3.9664,3.9634,3.9559,3.9439,3.9424,3.9125,3.8646,3.8616,3.8332,3.7913,3.7868,3.7883,3.7868,3.7868,3.7868,3.7784,3.763,3.763,3.7784,3.763,3.763,3.7799,3.7868,3.7778,3.7584,3.7,3.6701,3.6671,3.6043,3.5729,3.5714,3.5579,3.5489,3.5489,3.5489,3.5489,3.5489,3.5489,3.525,3.4756,3.4711,3.4472,3.3993,3.3948,3.3948,3.3948,3.3948,3.3948,3.4008,3.4412,3.4711,3.4741,3.519,3.5489,3.5489,3.5489,3.5489,3.5489,3.5489,3.5489,3.5564,3.6139,3.6588,3.6828,3.7338,3.7898,3.8512,3.8631,3.8826,3.9391,3.999,4.05,4.069,4.1264,4.2062,4.2785,4.3169,4.378,4.4636,4.484,4.4874,4.5026,4.5077,4.506,4.484,4.4705,4.4536,4.457,4.4536,4.4536,4.457,4.4553,4.4502,4.4519,4.4553,4.4553,4.4519,4.4536,4.457,4.457,4.457,4.457,4.457,4.457,4.457,4.457,4.457,4.457,4.324,4.315,4.2536,4.1923,4.1414,4.1324,4.092,4.0352,4.0307,3.9963,3.9514,3.9424,3.9394,3.9334,3.9305,3.9245,3.917,3.923,3.92,3.9185,3.923,3.923,3.9011,3.8164,3.8281,3.8867,3.8135,3.8164,3.8952,3.9083,3.8901,3.8302,3.7644,3.733,3.7255,3.6701,3.6387,3.6372,3.5818,3.5489,3.5489,3.5489,3.5489,3.5489,3.5489,3.5489,3.537,3.5415,3.5385,3.534,3.5265,3.5295,3.5295,3.531,3.5295,3.528,3.5355,3.5415,3.54,3.5474,3.5489,3.5489,3.5489,3.5489,3.5504,3.5519,3.5504,3.5639,3.6118,3.6731,3.7285,3.7913,3.8556,3.9125,3.926,3.9364,3.9394,3.9481,3.9809,4.0622,4.0758,4.1147,4.1997,4.2818,4.3936,4.5301,4.5551,4.5771,4.6227,4.6346,4.616,4.5635,4.5077,4.4671,4.4604,4.457,4.457,4.457,4.457,4.457,4.457,4.457,4.457,4.457,4.457,4.457,4.457,4.457,4.4637,4.4739,4.4705,4.4637,4.4587,4.4654,4.4688,4.3688,4.3314,4.3045,4.2551,4.1998,4.1968,4.1579,4.101,4.098,4.0816,4.0546,4.0187,3.9783,3.9439,3.9424,3.9424,3.9424,3.9424,3.9424,3.9352,3.8782,3.8472,3.8294,3.7329,3.7098,3.7558,3.7663,3.7994,3.8472,3.9104,3.926,3.896,3.8332,3.7988,3.7943,3.7345,3.6851,3.6492,3.6222,3.5908,3.5549,3.5489,3.5489,3.5489,3.5489,3.5489,3.5489,3.5489,3.5489,3.5489,3.5489,3.5489,3.5489,3.5489,3.5489,3.5489,3.5489,3.5489,3.5489,3.5489,3.5489,3.5489,3.5489,3.5489,3.5519,3.5848,3.6088,3.6163,3.6656,3.7285,3.7928,3.8601,3.9125,3.9379,3.9424,3.9424,3.9424,3.9424,3.9538,3.9864,3.9935,4.0309,4.1276,4.2813,4.4351,4.5529,4.6041,4.6515,4.6786,4.6786,4.6667,4.6397,4.6058,4.55,4.484,4.457,4.457,4.457,4.457,4.457,4.4604,4.457,4.457,4.4604,4.4671,4.4671,4.457,4.4993,4.5246,4.5246,4.528,4.5348,4.5788,4.5551,4.5449,4.4197,4.3614,4.3419,4.306,4.2641,4.2626,4.2252,4.1683,4.1654,4.1549,4.1339,4.0861,4.0427,3.9948,3.9604,3.9424,3.9424,3.9424,3.925,3.8943,3.8144,3.7663,3.7266,3.6304,3.6132,3.6604,3.7098,3.7663,3.8234,3.8958,3.9424,3.9334,3.8901,3.8661,3.8601,3.8018,3.7464,3.7045,3.6851,3.6417,3.5878,3.5774,3.5684,3.5534,3.5489,3.5489,3.5489,3.5489,3.5489,3.5489,3.5489,3.5489,3.5489,3.5489,3.5489,3.5489,3.5489,3.5489,3.5489,3.5489,3.5489,3.5519,3.5639,3.5759,3.5878,3.6372,3.6806,3.7045,3.7404,3.7898,3.8332,3.902,3.9409,3.9424,3.9424,3.9424,3.9424,3.9424,3.9424,3.9424,3.9481,3.994,4.1258,4.2896,4.4443,4.6077,4.6802,4.7225,4.7344,4.7445,4.7378,4.7141,4.709,4.6464,4.5213,4.4959,4.4857,4.4587,4.457,4.4654,4.4807,4.4891,4.5111,4.5449,4.5213,4.5229,4.5466,4.5821,4.6024,4.6024,4.6041,4.616,4.6498,4.6261,4.6278,4.487,4.4212,4.3599,4.3359,4.3284,4.3254,4.291,4.2327,4.2404,4.1998,4.1519,4.1354,4.1324,4.1175,4.0053,3.9469,3.9469,3.9529,3.9062,3.826,3.7915,3.7295,3.6212,3.5278,3.5789,3.7183,3.671,3.7405,3.9177,3.9352,3.9424,3.9409,3.9349,3.9349,3.9245,3.8661,3.8332,3.8138,3.7659,3.706,3.6522,3.6432,3.6148,3.5684,3.5504,3.5489,3.5489,3.5489,3.5489,3.5489,3.5489,3.5489,3.5489,3.5489,3.5489,3.5489,3.5489,3.5489,3.5489,3.5534,3.5549,3.5609,3.6118,3.6447,3.6477,3.7,3.7569,3.8197,3.8257,3.8392,3.8497,3.905,3.9409,3.9424,3.9424,3.9424,3.9424,3.9484,3.9439,3.9484,3.9574,4.0542,4.2579,4.3039,4.472,4.6742,4.78,4.8054,4.8528,4.8765,4.8477,4.8037,4.7767,4.7361,4.6041,4.5669,4.5348,4.5145,4.5111,4.4925,4.5331,4.5737,4.6058,4.6329,4.6295,4.638,4.6599,4.6735,4.6802,4.6819,4.6786,4.6938,4.7293,4.6938,4.6955,4.5559,4.4885,4.4242,4.3958,4.3913,4.3524,4.318,4.2985,4.3,4.2865,4.2581,4.2192,4.2013,4.1968,4.107,4.0681,4.0681,4.0681,4.0442,3.9944,3.8646,3.7819,3.7262,3.5247,3.4907,3.613,3.6246,3.7329,3.9177,3.9424,3.9424,3.9424,3.9424,3.9424,3.9364,3.917,3.8841,3.8407,3.8153,3.7719,3.715,3.7075,3.6956,3.6701,3.5923,3.5489,3.5489,3.5489,3.5489,3.5489,3.5489,3.5489,3.5489,3.5489,3.5489,3.5489,3.5489,3.5489,3.5549,3.5908,3.6133,3.6178,3.6716,3.7075,3.718,3.7659,3.8153,3.8407,3.8841,3.902,3.908,3.9275,3.9424,3.9424,3.9424,3.9424,3.9514,3.9768,4.0038,4.0113,4.0382,4.1519,4.3137,4.4145,4.5375,4.7418,4.8325,4.868,4.89,4.9018,4.8883,4.8697,4.8595,4.8274,4.7344,4.6667,4.6295,4.6177,4.6092,4.6109,4.6363,4.6413,4.6667,4.6853,4.6989,4.7039,4.7107,4.7394,4.7496,4.7902,4.7851,4.7716,4.8139,4.7733,4.78,4.6052,4.5559,4.49,4.4631,4.4541,4.3928,4.3643,4.3629,4.3434,4.3344,4.324,4.2851,4.2686,4.2611,4.2207,4.1766,4.1444,4.0997,4.0451,3.9635,3.8242,3.7321,3.6743,3.5082,3.4915,3.6297,3.7219,3.8359,3.9533,3.9514,3.9424,3.9424,3.9424,3.9424,3.9424,3.9424,3.917,3.8781,3.8721,3.8392,3.7823,3.7719,3.7599,3.733,3.6552,3.6013,3.5833,3.5624,3.5489,3.5489,3.5489,3.5489,3.5489,3.5489,3.5489,3.5504,3.5714,3.5818,3.5893,3.6417,3.6776,3.6821,3.7345,3.7734,3.7764,3.8332,3.8661,3.8841,3.9095,3.9424,3.9424,3.9424,3.9424,3.9424,3.9424,3.9424,3.9469,4.0008,4.0442,4.0726,4.104,4.2276,4.4018,4.4829,4.6143,4.7945,4.8714,4.8984,4.9018,4.9018,4.9018,4.9001,4.8968,4.8765,4.8274,4.7817,4.7039,4.6819,4.6735,4.6887,4.7141,4.7158,4.7242,4.7394,4.7462,4.7479,4.7648,4.797,4.8376,4.8849,4.8697,4.8392,4.8528,4.8528,4.8494,4.6352,4.6232,4.5589,4.5304,4.5214,4.4601,4.4317,4.4152,4.3643,4.3419,4.3329,4.3284,4.3225,4.3269,4.3135,4.2621,4.1502,4.0377,3.8931,3.7241,3.6711,3.6126,3.5289,3.5123,3.6031,3.8048,3.9576,4.0248,4.0367,3.9828,3.9529,3.9484,3.9439,3.9424,3.9424,3.9424,3.9409,3.9334,3.932,3.9035,3.8482,3.8392,3.8153,3.7629,3.7419,3.7105,3.6567,3.5923,3.5564,3.5504,3.5489,3.5489,3.5504,3.5564,3.5549,3.5684,3.6148,3.6462,3.6552,3.7045,3.7419,3.7509,3.8018,3.8392,3.8482,3.8945,3.932,3.932,3.9364,3.9424,3.9424,3.9424,3.9424,3.9424,3.9424,3.9424,3.9604,4.0053,4.0696,4.1309,4.1731,4.2597,4.4369,4.5436,4.6453,4.8228,4.8951,4.9018,4.9018,4.9018,4.9018,4.9018,4.9018,4.89,4.8934,4.8883,4.802,4.7327,4.7259,4.731,4.7767,4.7936,4.8071,4.8223,4.8308,4.8325,4.8308,4.8578,4.8663,4.8968,4.8883,4.8849,4.8815,4.8798,4.8866,4.6995,4.692,4.6277,4.5992,4.5918,4.5274,4.4751,4.4317,4.4077,4.3763,4.3389,4.3344,4.3344,4.3344,4.325,4.2725,4.1544,4.0322,3.9405,3.8687,3.7896,3.7374,3.7052,3.6649,3.7443,3.9169,4.0521,4.1085,4.0965,4.0412,4.0098,4.0038,3.9649,3.9439,3.9454,3.9424,3.9424,3.9424,3.9424,3.929,3.911,3.9095,3.8975,3.8781,3.8347,3.7973,3.7764,3.6761,3.5983,3.5564,3.5489,3.5489,3.5579,3.5923,3.6163,3.6252,3.6776,3.712,3.7195,3.7704,3.8093,3.8197,3.8706,3.905,3.9095,3.9275,3.9424,3.9424,3.9424,3.9424,3.9424,3.9424,3.9469,3.9439,3.9424,3.9664,4.0187,4.1055,4.1983,4.2659,4.332,4.4417,4.5562,4.6253,4.7292,4.8618,4.9018,4.9018,4.9018,4.9018,4.9018,4.9018,4.9018,4.9018,4.9018,4.9018,4.8578,4.8088,4.7986,4.7885,4.8291,4.8545,4.8731,4.8832,4.8951,4.9018,4.9018,4.9018,4.9018,4.9018,4.8968,4.8968,4.9001,4.9018,4.9018,4.7309,4.7264,4.686,4.6681,4.6606,4.5963,4.5289,4.4691,4.4407,4.3958,4.3419,4.3344,4.3344,4.3344,4.3344,4.2644,4.1601,4.0404,3.9623,3.9108,3.803,3.7848,3.8698,3.8891,3.9381,4.0421,4.134,4.1743,4.1713,4.1115,4.0756,4.0666,4.0337,4.0023,3.9813,3.9768,3.9694,3.9484,3.9424,3.9424,3.9424,3.9424,3.9424,3.9349,3.9005,3.8646,3.8377,3.7599,3.6896,3.6342,3.6222,3.6222,3.6252,3.6611,3.6821,3.6941,3.7375,3.7778,3.7823,3.8392,3.8766,3.8856,3.917,3.9394,3.9424,3.9424,3.9424,3.9424,3.9424,3.9529,3.9738,3.9798,3.9873,4.0142,3.9948,4.0217,4.0995,4.1833,4.2566,4.3202,4.4082,4.5138,4.6119,4.7036,4.7933,4.8781,4.9018,4.9018,4.9018,4.9018,4.9018,4.9018,4.9018,4.9018,4.9018,4.9018,4.9018,4.8883,4.8781,4.868,4.8815,4.8832,4.8934,4.8934,4.9001,4.9018,4.9018,4.9018,4.9018,4.9018,4.9018,4.9018,4.9018,4.9018,4.9018,4.7309,4.7309,4.7309,4.7264,4.7174,4.6621,4.5933,4.5229,4.4676,4.4018,4.3464,4.3344,4.3344,4.3344,4.3344,4.2739,4.1684,4.0661,3.9871,3.8814,3.7861,3.803,3.9858,4.0732,4.1248,4.17,4.2219,4.2432,4.2387,4.1758,4.1429,4.1429,4.1265,4.1055,4.0531,4.0427,4.0068,3.9634,3.9484,3.9424,3.9424,3.9424,3.9424,3.9424,3.9349,3.9095,3.8616,3.8407,3.8048,3.7494,3.724,3.721,3.7345,3.7419,3.7479,3.7509,3.8078,3.8377,3.8586,3.8945,3.932,3.932,3.9364,3.9424,3.9424,3.9424,3.9424,3.9439,3.9514,3.9768,4.0217,4.0427,4.0711,4.122,4.092,4.116,4.2102,4.2372,4.2776,4.3322,4.4205,4.5211,4.6189,4.7104,4.808,4.8719,4.9018,4.9018,4.9018,4.9018,4.9018,4.9018,4.9018,4.9018,4.9018,4.9018,4.9018,4.9018,4.9018,4.9018,4.9018,4.9018,4.9018,4.9018,4.9018,4.9018,4.9018,4.9018,4.9018,4.9018,4.9018,4.9018,4.9018,4.9018,4.9018,4.7309,4.7309,4.7309,4.7309,4.7294,4.71,4.6367,4.5349,4.5125,4.4362,4.3539,4.3344,4.3344,4.3344,4.3344,4.3076,4.2548,4.1601,4.1601,4.1601,3.9871,3.9784,4.0916,4.142,4.2029,4.2695,4.2882,4.3075,4.303,4.2417,4.2117,4.2073,4.1669,4.1354,4.1085,4.0666,4.0352,4.0083,3.9634,3.9424,3.9424,3.9424,3.9424,3.9424,3.9424,3.9334,3.9155,3.914,3.8571,3.7524,3.7404,3.7404,3.7524,3.7883,3.8138,3.8227,3.8721,3.914,3.917,3.9305,3.9424,3.9424,3.9424,3.9424,3.9424,3.9424,3.9424,3.9514,3.9813,4.0217,4.0472,4.0876,4.1414,4.1953,4.1893,4.1938,4.2357,4.2791,4.3165,4.3457,4.4781,4.5762,4.64,4.7523,4.8576,4.894,4.9018,4.9018,4.9018,4.9018,4.9018,4.9018,4.9018,4.9018,4.9018,4.9018,4.9018,4.9018,4.9018,4.9018,4.9018,4.9018,4.9018,4.9018,4.9018,4.9018,4.9018,4.9018,4.9018,4.9018,4.9018,4.9018,4.9018,4.9018,4.9018,4.7309,4.7309,4.7309,4.7309,4.7309,4.7309,4.6546,4.5469,4.5259,4.4556,4.3554,4.3344,4.3344,4.3344,4.3344,4.3344,4.3155,4.2111,4.1932,4.2126,4.0575,4.0575,4.1337,4.1587,4.2208,4.317,4.3344,4.3329,4.3269,4.294,4.2791,4.2716,4.2387,4.2073,4.1758,4.1145,4.0636,4.0337,3.9783,3.9424,3.9424,3.9424,3.9424,3.9424,3.9424,3.9424,3.9424,3.9424,3.902,3.8422,3.8272,3.8257,3.8272,3.8586,3.8826,3.8841,3.923,3.9409,3.9424,3.9424,3.9424,3.9424,3.9424,3.9424,3.9499,3.9634,3.9828,3.9903,4.0442,4.0876,4.128,4.1803,4.2327,4.2686,4.2776,4.2761,4.2776,4.309,4.3299,4.3756,4.4899,4.6173,4.6244,4.7868,4.8736,4.9018,4.9018,4.9018,4.9018,4.9018,4.9018,4.9018,4.9018,4.9018,4.9018,4.9018,4.9018,4.9018,4.9018,4.9018,4.9018,4.9018,4.9018,4.9018,4.9018,4.9018,4.9018,4.9018,4.9018,4.9018,4.9018,4.9018,4.9018,4.9018,4.9018,4.7309,4.7309,4.7309,4.7309,4.7309,4.7294,4.6531,4.5439,4.5289,4.4556,4.3539,4.3344,4.3344,4.3344,4.3344,4.3344,4.325,4.2371,4.1864,4.1518,4.0746,4.0746,4.1504,4.1587,4.2275,4.317,4.3344,4.3344,4.3314,4.3299,4.3314,4.3225,4.3225,4.2985,4.2372,4.1713,4.107,4.0531,3.9813,3.9439,3.9424,3.9424,3.9424,3.9424,3.9424,3.9424,3.9424,3.9424,3.9349,3.9394,3.9424,3.929,3.932,3.9379,3.9379,3.9334,3.9379,3.9424,3.9424,3.9424,3.9424,3.9439,3.9499,3.9514,3.9709,4.0127,4.0502,4.0502,4.1085,4.1698,4.2297,4.2955,4.315,4.321,4.3269,4.3314,4.3344,4.3344,4.3344,4.3409,4.5032,4.6032,4.6662,4.7655,4.9018,4.9018,4.9018,4.9018,4.9018,4.9018,4.9018,4.9018,4.9018,4.9018,4.9018,4.9018,4.9018,4.9018,4.9018,4.9018,4.9018,4.9018,4.9018,4.9018,4.9018,4.9018,4.9018,4.9018,4.9018,4.9018,4.9018,4.9018,4.9018,4.9018,4.9018,4.7309,4.7309,4.7309,4.7309,4.7309,4.7279,4.6531,4.5319,4.5289,4.4556,4.3554,4.3344,4.3344,4.3344,4.3344,4.3344,4.3344,4.29,4.2548,4.1601,4.142,4.1337,4.1587,4.1587,4.2193,4.3076,4.3344,4.3344,4.3344,4.3344,4.3344,4.3344,4.3329,4.3269,4.2985,4.1983,4.1339,4.098,4.0038,3.9469,3.9424,3.9424,3.9424,3.9424,3.9424,3.9424,3.9424,3.9424,3.9424,3.9424,3.9424,3.9424,3.9424,3.9424,3.9424,3.9424,3.9424,3.9424,3.9424,3.9424,3.9439,3.9529,3.9858,4.0202,4.0232,4.0786,4.113,4.128,4.1773,4.2402,4.2955,4.3225,4.3329,4.3344,4.3344,4.3344,4.3344,4.3344,4.3344,4.3693,4.4974,4.6173,4.6314,4.7868,4.8798,4.894,4.9018,4.9018,4.9018,4.9018,4.9018,4.9018,4.9018,4.9018,4.9018,4.9018,4.9018,4.9018,4.9018,4.9018,4.9018,4.9018,4.9018,4.9018,4.9018,4.9018,4.9018,4.9018,4.9018,4.9018,4.9018,4.9018,4.9018,4.9018,4.9018,4.7309,4.7309,4.7309,4.7309,4.7309,4.7279,4.6531,4.5454,4.5289,4.4556,4.3539,4.3344,4.3344,4.3344,4.3344,4.3344,4.3344,4.3265,4.2386,4.1267,4.1169,4.1267,4.1,4.142,4.2193,4.317,4.3344,4.3344,4.3344,4.3344,4.3344,4.3344,4.3344,4.3329,4.324,4.2327,4.1713,4.125,4.0412,3.9753,3.9484,3.9424,3.9424,3.9424,3.9424,3.9424,3.9424,3.9424,3.9424,3.9424,3.9424,3.9424,3.9424,3.9424,3.9424,3.9424,3.9424,3.9424,3.9424,3.9439,3.9559,3.9873,4.0232,4.0531,4.0905,4.1459,4.1803,4.1968,4.2402,4.2985,4.3299,4.3344,4.3344,4.3344,4.3344,4.3344,4.3344,4.3344,4.3344,4.3693,4.4958,4.5889,4.6747,4.8015,4.8719,4.9001,4.9018,4.9018,4.9018,4.9018,4.9018,4.9018,4.9018,4.9018,4.9018,4.9018,4.9018,4.9018,4.9018,4.9018,4.9018,4.9018,4.9018,4.9018,4.9018,4.9018,4.9018,4.9018,4.9018,4.9018,4.9018,4.9018,4.9018,4.9018,4.9018,4.7309,4.7309,4.7309,4.7309,4.7309,4.7294,4.6546,4.5394,4.5289,4.4556,4.3509,4.3344,4.3344,4.3344,4.3344,4.325,4.2996,4.282,4.1782,3.9958,4.1085,4.0916,4.0575,4.1351,4.2386,4.325,4.3344,4.3344,4.3344,4.3344,4.3344,4.3344,4.3344,4.3344,4.3195,4.2686,4.2087,4.1579,4.0935,4.0247,3.9768,3.9634,3.9604,3.9424,3.9424,3.9424,3.9424,3.9424,3.9424,3.9424,3.9424,3.9424,3.9424,3.9424,3.9424,3.9424,3.9424,3.9514,3.9664,3.9694,3.9888,4.0472,4.0726,4.098,4.1534,4.2087,4.2432,4.2641,4.2955,4.3254,4.3344,4.3344,4.3344,4.3344,4.3344,4.3344,4.3344,4.3344,4.3344,4.3551,4.4899,4.6032,4.6815,4.7803,4.8433,4.9018,4.9018,4.9018,4.9018,4.9001,4.9001,4.9001,4.9018,4.9018,4.9018,4.9018,4.9018,4.9018,4.9018,4.9018,4.9018,4.9018,4.9018,4.9018,4.9018,4.9018,4.9018,4.9018,4.9018,4.9018,4.9018,4.9018,4.9018,4.9018,4.9018,4.7309,4.7309,4.7309,4.7309,4.7309,4.7294,4.6516,4.5424,4.5259,4.4556,4.3449,4.3344,4.3344,4.3344,4.3344,4.282,4.2371,4.2193,4.0986,3.9508,4.0632,4.1085,4.0661,4.1961,4.2981,4.325,4.3344,4.3344,4.3344,4.3344,4.3344,4.3344,4.3344,4.3344,4.3165,4.2731,4.2372,4.2043,4.1504,4.0891,4.0292,4.0038,3.9828,3.9484,3.9424,3.9424,3.9424,3.9424,3.9424,3.9424,3.9424,3.9424,3.9454,3.9454,3.9499,3.9514,3.9529,3.9723,4.0142,4.0247,4.0591,4.1145,4.1594,4.1938,4.2297,4.2716,4.3,4.312,4.3195,4.3344,4.3344,4.3344,4.3344,4.3344,4.3344,4.3344,4.3344,4.3344,4.3344,4.3488,4.4899,4.6244,4.6884,4.7589,4.8576,4.9018,4.9018,4.9018,4.9018,4.894,4.8877,4.894,4.9018,4.9018,4.9018,4.9018,4.9018,4.9018,4.9018,4.9018,4.9018,4.9018,4.9018,4.9018,4.9018,4.9018,4.9018,4.9018,4.9018,4.9018,4.9018,4.9018,4.9018,4.9018,4.9018,4.7309,4.7309,4.7309,4.7309,4.7249,4.6935,4.6232,4.5319,4.493,4.4242,4.3554,4.3344,4.3344,4.3344,4.3344,4.29,4.2548,4.2452,4.1489,4.0632,4.1587,4.1864,4.1,4.2563,4.309,4.3344,4.3344,4.3344,4.3344,4.3344,4.3344,4.3344,4.3344,4.3344,4.3299,4.306,4.2671,4.2387,4.2028,4.1399,4.0457,4.0142,3.9694,3.9529,3.9424,3.9424,3.9424,3.9424,3.9424,3.9424,3.9424,3.9424,3.9514,3.9723,3.9918,3.9948,3.9948,4.0217,4.0771,4.0935,4.122,4.1803,4.2237,4.2536,4.2806,4.312,4.3329,4.3344,4.3344,4.3344,4.3344,4.3344,4.3344,4.3344,4.3344,4.3344,4.3344,4.3344,4.3344,4.3472,4.4974,4.6032,4.6523,4.744,4.8656,4.9018,4.894,4.894,4.8861,4.8576,4.837,4.8656,4.8656,4.8798,4.8861,4.894,4.9001,4.9018,4.9018,4.9018,4.9018,4.9018,4.9018,4.9018,4.9018,4.9018,4.9018,4.9018,4.9018,4.9018,4.9018,4.9018,4.9018,4.9018,4.9018,4.7309,4.7309,4.7309,4.7234,4.704,4.6561,4.5858,4.511,4.4556,4.3973,4.3389,4.3344,4.3344,4.3344,4.3265,4.317,4.2981,4.2886,4.2029,4.1351,4.2126,4.229,4.2111,4.2629,4.3344,4.3344,4.3344,4.3344,4.3344,4.3344,4.3344,4.3344,4.3344,4.3344,4.3314,4.3254,4.294,4.2746,4.2521,4.1878,4.0771,3.9858,3.9424,3.9424,3.9424,3.9424,3.9424,3.9424,3.9424,3.9424,3.9439,3.9469,3.9679,4.0113,4.0516,4.0726,4.0681,4.098,4.1384,4.1579,4.1863,4.2491,4.2551,4.2865,4.3105,4.3284,4.3344,4.3344,4.3344,4.3344,4.3344,4.3344,4.3344,4.3344,4.3344,4.3344,4.3344,4.3344,4.3344,4.3897,4.518,4.5674,4.5889,4.744,4.8656,4.808,4.8015,4.7998,4.7868,4.7506,4.744,4.7998,4.8289,4.8513,4.8656,4.8861,4.894,4.9018,4.9018,4.9018,4.9018,4.9018,4.9018,4.9018,4.9018,4.9018,4.9018,4.9018,4.9018,4.9018,4.9018,4.9018,4.9018,4.9018,4.9018,4.7309,4.7309,4.7309,4.698,4.6486,4.6337,4.5589,4.4511,4.4332,4.3928,4.3344,4.3344,4.3344,4.3344,4.3344,4.2725,4.2193,4.2029,4.1699,4.1099,4.1699,4.2111,4.185,4.2805,4.325,4.3344,4.3344,4.3344,4.3344,4.3344,4.3344,4.3344,4.3344,4.3344,4.3344,4.3344,4.3299,4.321,4.3165,4.2536,4.1324,4.0142,3.9649,3.9544,3.9559,3.9544,3.9574,3.9544,3.9499,3.9424,3.9439,3.9723,4.0172,4.0322,4.1085,4.1579,4.1728,4.1549,4.2117,4.2252,4.2447,4.297,4.3135,4.3254,4.3314,4.3344,4.3344,4.3344,4.3344,4.3344,4.3344,4.3359,4.3344,4.3404,4.3479,4.3449,4.3419,4.3344,4.3344,4.363,4.4631,4.4856,4.5005,4.6968,4.8513,4.7655,4.7088,4.7088,4.702,4.6799,4.6384,4.6815,4.7506,4.7803,4.8225,4.8433,4.8781,4.894,4.9018,4.9018,4.9018,4.9018,4.9018,4.9018,4.9018,4.9018,4.9018,4.9018,4.9018,4.9018,4.9018,4.9018,4.9018,4.9018,4.9018,4.7309,4.7309,4.7309,4.6935,4.6307,4.5918,4.52,4.4377,4.3913,4.3599,4.3374,4.3344,4.3344,4.3344,4.3344,4.3076,4.2644,4.2548,4.2386,4.1879,4.2222,4.2563,4.271,4.3061,4.3265,4.3344,4.3344,4.3344,4.3344,4.3344,4.3344,4.3344,4.3344,4.3344,4.3344,4.3344,4.3344,4.321,4.2955,4.2521,4.1848,4.1085,4.0516,4.0516,4.0487,4.0292,4.0053,3.9978,3.9753,3.9634,3.9709,4.0068,4.0546,4.1055,4.1848,4.2177,4.2491,4.2626,4.288,4.2895,4.306,4.321,4.3344,4.3329,4.3344,4.3344,4.3344,4.3344,4.3344,4.3359,4.3464,4.3688,4.3838,4.3883,4.3823,4.3823,4.3733,4.3404,4.3409,4.3708,4.4004,4.4143,4.4434,4.5762,4.702,4.673,4.6314,4.6384,4.6454,4.6454,4.5977,4.5488,4.626,4.702,4.7523,4.7933,4.8497,4.8719,4.9018,4.9018,4.9018,4.9018,4.9018,4.9018,4.9018,4.9018,4.9018,4.9018,4.9018,4.9018,4.9018,4.9018,4.9018,4.9018,4.9018,4.7309,4.7309,4.7309,4.683,4.6037,4.5514,4.4811,4.4032,4.3569,4.3344,4.3344,4.3344,4.3344,4.3344,4.3344,4.325,4.325,4.3344,4.3344,4.3344,4.3344,4.325,4.317,4.3265,4.3344,4.3344,4.3344,4.3344,4.3344,4.3344,4.3344,4.3344,4.3344,4.3344,4.3344,4.3344,4.3344,4.3284,4.2731,4.2402,4.2177,4.1669,4.1384,4.1339,4.1324,4.113,4.0741,4.0651,4.0337,4.0232,4.0397,4.0756,4.113,4.1743,4.2327,4.2656,4.297,4.3165,4.324,4.3254,4.3329,4.3344,4.3344,4.3344,4.3344,4.3344,4.3344,4.3344,4.3344,4.3404,4.3629,4.4062,4.4302,4.4377,4.4362,4.4362,4.4212,4.3703,4.3359,4.3488,4.3708,4.3693,4.4128,4.475,4.5311,4.5457,4.553,4.569,4.569,4.5602,4.5196,4.4571,4.5285,4.6119,4.6884,4.744,4.7998,4.8576,4.8861,4.9018,4.9018,4.9018,4.9018,4.9018,4.9018,4.9018,4.9018,4.9018,4.9018,4.9018,4.9018,4.9018,4.9018,4.9018,4.9018,4.7309,4.7309,4.7294,4.6546,4.5394,4.5319,4.4571,4.3524,4.3374,4.3344,4.3344,4.3344,4.3344,4.3344,4.3344,4.3344,4.3344,4.3344,4.3344,4.3344,4.3344,4.3344,4.3344,4.3344,4.3344,4.3344,4.3344,4.3344,4.3344,4.3344,4.3344,4.3344,4.3344,4.3344,4.3344,4.3344,4.3344,4.324,4.2776,4.2491,4.2312,4.1938,4.1579,4.1534,4.1459,4.1354,4.1324,4.1309,4.1175,4.1025,4.1205,4.1504,4.1878,4.2282,4.2716,4.306,4.321,4.3344,4.3344,4.3344,4.3344,4.3344,4.3344,4.3344,4.3344,4.3344,4.3344,4.3374,4.3449,4.3718,4.4003,4.4377,4.4855,4.496,4.4915,4.4616,4.4317,4.3703,4.3404,4.3344,4.3409,4.3472,4.3472,4.4113,4.4251,4.4388,4.4615,4.4781,4.4343,4.419,4.3974,4.3771,4.4373,4.5211,4.6119,4.6815,4.7506,4.8289,4.8781,4.894,4.9018,4.9018,4.9018,4.9018,4.9018,4.9018,4.9018,4.9018,4.9018,4.9018,4.9018,4.9018,4.9018,4.9018,4.9018,4.7309,4.7279,4.6875,4.6157,4.5259,4.4855,4.4182,4.3434,4.3344,4.3344,4.3344,4.3344,4.3344,4.3344,4.3344,4.3344,4.3344,4.3344,4.3344,4.3344,4.3344,4.3344,4.3344,4.3344,4.3344,4.3344,4.3344,4.3344,4.3344,4.3344,4.3344,4.3344,4.3344,4.3344,4.3344,4.3344,4.3344,4.3299,4.3105,4.2955,4.291,4.2791,4.2581,4.2581,4.2596,4.2342,4.2073,4.1998,4.1743,4.1609,4.1818,4.2117,4.2432,4.2716,4.303,4.3284,4.3329,4.3344,4.3344,4.3344,4.3344,4.3344,4.3344,4.3344,4.3344,4.3344,4.3344,4.3434,4.3703,4.4062,4.4242,4.502,4.5708,4.5693,4.5439,4.499,4.4496,4.3883,4.3419,4.3344,4.3329,4.3329,4.3329,4.3409,4.3409,4.3488,4.363,4.3786,4.3488,4.3344,4.3344,4.3344,4.3849,4.4526,4.5431,4.626,4.7088,4.7868,4.8656,4.8861,4.9018,4.9018,4.9018,4.9018,4.9018,4.9018,4.9018,4.9018,4.9018,4.9018,4.9018,4.9018,4.9018,4.9018,4.9018,4.7189,4.6935,4.6307,4.5753,4.5229,4.4586,4.3943,4.3404,4.3344,4.3344,4.3344,4.3344,4.3344,4.3344,4.3344,4.3344,4.3344,4.3344,4.3344,4.3344,4.3344,4.3344,4.3344,4.3344,4.3344,4.3344,4.3344,4.3344,4.3344,4.3344,4.3344,4.3344,4.3344,4.3344,4.3344,4.3344,4.3344,4.3344,4.3344,4.3344,4.3314,4.3299,4.3269,4.324,4.321,4.306,4.2746,4.2626,4.2476,4.2342,4.2402,4.2611,4.2806,4.303,4.3284,4.3344,4.3344,4.3344,4.3344,4.3344,4.3344,4.3344,4.3344,4.3344,4.3344,4.3344,4.3344,4.3389,4.3883,4.4392,4.4556,4.5514,4.6292,4.6337,4.5559,4.5065,4.4691,4.4167,4.3688,4.3344,4.3344,4.3344,4.3344,4.3344,4.3344,4.3344,4.3409,4.3566,4.3409,4.3344,4.3344,4.3344,4.3409,4.4082,4.4662,4.5706,4.6747,4.7721,4.837,4.8861,4.9018,4.9018,4.9018,4.9018,4.9018,4.9018,4.9018,4.9018,4.9018,4.9018,4.9018,4.9018,4.9018,4.9018,4.9018,4.692,4.6292,4.5603,4.5289,4.514,4.4571,4.3913,4.3374,4.3344,4.3344,4.3344,4.3344,4.3344,4.3344,4.3344,4.3344,4.3344,4.3344,4.3344,4.3344,4.3344,4.3344,4.3344,4.3344,4.3344,4.3344,4.3344,4.3344,4.3344,4.3344,4.3344,4.3344,4.3344,4.3344,4.3344,4.3344,4.3344,4.3344,4.3344,4.3344,4.3344,4.3344,4.3344,4.3344,4.3344,4.3225,4.3165,4.312,4.3015,4.3,4.3015,4.3135,4.321,4.324,4.3344,4.3344,4.3344,4.3344,4.3344,4.3344,4.3344,4.3344,4.3344,4.3344,4.3344,4.3344,4.3344,4.3389,4.4018,4.4646,4.5229,4.5933,4.6606,4.6651,4.5873,4.5214,4.484,4.4167,4.3599,4.3344,4.3344,4.3344,4.3344,4.3344,4.3344,4.3344,4.3344,4.3344,4.3344,4.3344,4.3344,4.3344,4.3344,4.363,4.4358,4.5416,4.647,4.7373,4.808,4.8576,4.894,4.9018,4.9018,4.9018,4.9018,4.9018,4.9018,4.9018,4.9018,4.9018,4.9018,4.9018,4.9018,4.9018,4.9018,4.6531,4.6232,4.511,4.4631,4.4556,4.3958,4.3524,4.3359,4.3344,4.3344,4.3344,4.3344,4.3344,4.3344,4.3344,4.3344,4.3344,4.3344,4.3344,4.3344,4.3344,4.3344,4.3344,4.3344,4.3344,4.3344,4.3344,4.3344,4.3344,4.3344,4.3344,4.3344,4.317,4.3344,4.3344,4.3344,4.3344,4.3344,4.3344,4.3344,4.3344,4.3344,4.3344,4.3344,4.3344,4.3344,4.3344,4.3344,4.3344,4.3344,4.3344,4.3344,4.3344,4.3344,4.3344,4.3344,4.3344,4.3344,4.3344,4.3344,4.3344,4.3344,4.3344,4.3344,4.3344,4.3344,4.3344,4.3569,4.4257,4.4855,4.5364,4.6396,4.6995,4.6875,4.6247,4.5529,4.493,4.4003,4.3344,4.3344,4.3344,4.3344,4.3344,4.3344,4.3344,4.3344,4.3344,4.3344,4.3344,4.3344,4.3344,4.3344,4.3329,4.3472,4.3974,4.4989,4.569,4.647,4.7373,4.8161,4.8513,4.8861,4.9018,4.9018,4.9018,4.9018,4.9018,4.9018,4.9018,4.9018,4.9018,4.9018,4.9018,4.9018,4.9018,4.6187,4.5858,4.4781,4.4182,4.3928,4.3509,4.3344,4.3344,4.3344,4.3344,4.3344,4.3344,4.3344,4.3344,4.3344,4.3344,4.3344,4.3344,4.3344,4.3344,4.3344,4.3344,4.3344,4.3344,4.3344,4.3344,4.3344,4.3344,4.3344,4.3344,4.3344,4.325,4.2915,4.2981,4.3076,4.3344,4.3344,4.3344,4.3344,4.3344,4.3344,4.3344,4.3344,4.3344,4.3344,4.3344,4.3344,4.3344,4.3344,4.3344,4.3344,4.3344,4.3344,4.3344,4.3344,4.3344,4.3344,4.3344,4.3344,4.3344,4.3344,4.3344,4.3344,4.3344,4.3344,4.3344,4.3344,4.3658,4.4436,4.493,4.5439,4.6546,4.695,4.683,4.6516,4.5783,4.511,4.4212,4.3539,4.3524,4.3344,4.3344,4.3344,4.3344,4.3344,4.3344,4.3344,4.3344,4.3344,4.3344,4.3344,4.3344,4.3344,4.3409,4.3693,4.4434,4.5064,4.5634,4.6609,4.7589,4.8225,4.8576,4.8798,4.9018,4.9018,4.9018,4.9018,4.9018,4.9018,4.9018,4.9018,4.9018,4.9018,4.9018,4.9018,4.5888,4.5214,4.4556,4.3913,4.3404,4.3344,4.3344,4.3344,4.3344,4.3344,4.3344,4.3344,4.3344,4.3344,4.3344,4.3344,4.3344,4.3344,4.3344,4.3344,4.3344,4.3344,4.3344,4.3344,4.3344,4.3344,4.3344,4.3344,4.3344,4.3344,4.3344,4.317,4.2644,4.2725,4.3076,4.3344,4.3344,4.3344,4.3344,4.3344,4.3344,4.3344,4.3344,4.3344,4.3344,4.3344,4.3344,4.3344,4.3344,4.3344,4.3344,4.3344,4.3344,4.3344,4.3344,4.3344,4.3344,4.3344,4.3344,4.3344,4.3344,4.3344,4.3344,4.3344,4.3344,4.3344,4.3344,4.3599,4.4227,4.4751,4.5349,4.6097,4.68,4.6711,4.6606,4.6037,4.5439,4.4721,4.4047,4.3718,4.3434,4.3359,4.3344,4.3344,4.3344,4.3344,4.3344,4.3344,4.3344,4.3344,4.3344,4.3344,4.3344,4.3344,4.3708,4.4066,4.4571,4.5138,4.6048,4.7036,4.7655,4.8289,4.8576,4.8798,4.894,4.9018,4.9018,4.9018,4.9018,4.9018,4.9018,4.9018,4.9018,4.9018,4.9018,4.52,4.4541,4.3883,4.3494,4.3344,4.3344,4.3344,4.3344,4.3344,4.3344,4.3344,4.3344,4.325,4.3344,4.3344,4.3344,4.3344,4.3344,4.3344,4.3344,4.3344,4.3344,4.3265,4.325,4.3265,4.3265,4.3265,4.317,4.3265,4.3265,4.325,4.317,4.2725,4.2981,4.317,4.3344,4.3344,4.3344,4.3344,4.3344,4.3344,4.3344,4.3344,4.3344,4.3344,4.3344,4.3344,4.3344,4.3344,4.3344,4.3344,4.3344,4.3344,4.3344,4.3344,4.3344,4.3344,4.3344,4.3344,4.3344,4.3344,4.3344,4.3344,4.3344,4.3344,4.3344,4.3344,4.3629,4.4197,4.4825,4.5409,4.6082,4.6726,4.692,4.6741,4.6277,4.5663,4.499,4.4332,4.3793,4.3524,4.3344,4.3344,4.3344,4.3344,4.3344,4.3344,4.3344,4.3344,4.3344,4.3344,4.3344,4.3344,4.3344,4.3344,4.363,4.4143,4.4721,4.5561,4.64,4.7239,4.7868,4.8289,4.8639,4.894,4.9018,4.9018,4.9018,4.9018,4.9018,4.9018,4.9018,4.9018,4.9018,4.9018,4.4676,4.4242,4.3599,4.3344,4.325,4.282,4.2629,4.2644,4.2644,4.282,4.325,4.2805,4.29,4.3265,4.3344,4.3344,4.3344,4.3344,4.3344,4.3344,4.325,4.3344,4.325,4.2996,4.29,4.2981,4.2996,4.2739,4.3076,4.282,4.2725,4.325,4.2981,4.2981,4.317,4.3344,4.3344,4.3344,4.3344,4.3344,4.3344,4.3344,4.3344,4.3344,4.3344,4.3344,4.3344,4.3344,4.3344,4.3344,4.3344,4.3344,4.3344,4.3344,4.3344,4.3344,4.3344,4.3344,4.3344,4.3344,4.3344,4.3344,4.3344,4.3344,4.3344,4.3344,4.3344,4.3494,4.4302,4.5035,4.5603,4.6172,4.6726,4.7249,4.6875,4.6501,4.5858,4.5185,4.4571,4.3958,4.3629,4.3419,4.3344,4.3344,4.3344,4.3344,4.3344,4.3344,4.3344,4.3344,4.3344,4.3344,4.3344,4.3344,4.3344,4.3344,4.3708,4.422,4.4796,4.5706,4.6747,4.7589,4.8161,4.8576,4.9001,4.9018,4.9018,4.9018,4.9018,4.9018,4.9018,4.9018,4.9018,4.9018,4.9018,4.4287,4.4167,4.3599,4.3344,4.3155,4.2208,4.1684,4.1504,4.1337,4.1947,4.2548,4.2029,4.2208,4.2805,4.3155,4.3265,4.317,4.3076,4.3076,4.325,4.2915,4.2996,4.2996,4.2467,4.2805,4.2725,4.2725,4.2725,4.29,4.2739,4.2725,4.3235,4.2534,4.2548,4.317,4.3265,4.3344,4.3344,4.3344,4.3344,4.3344,4.3344,4.3344,4.3344,4.3344,4.3344,4.3344,4.3344,4.3344,4.3344,4.3344,4.3344,4.3344,4.3344,4.3344,4.3344,4.3344,4.3344,4.3344,4.3344,4.3344,4.3344,4.3344,4.3344,4.3344,4.3344,4.3344,4.3464,4.4152,4.4631,4.514,4.5948,4.6606,4.689,4.6741,4.6411,4.5963,4.5214,4.4407,4.3868,4.3524,4.3344,4.3344,4.3344,4.3344,4.3344,4.3344,4.3344,4.3344,4.3344,4.3344,4.3344,4.3344,4.3344,4.3344,4.3344,4.3344,4.3708,4.422,4.5138,4.6314,4.7239,4.808,4.8576,4.9018,4.9018,4.9018,4.9018,4.9018,4.9018,4.9018,4.9018,4.9018,4.9018,4.9018,4.4018,4.3554,4.3389,4.3344,4.317,4.2097,4.1587,4.142,3.9683,3.9683,4.0661,4.1253,4.1753,4.2111,4.2981,4.3344,4.317,4.282,4.2725,4.282,4.2644,4.29,4.3155,4.2805,4.2981,4.3076,4.3076,4.29,4.3076,4.2996,4.29,4.325,4.2805,4.2996,4.325,4.3344,4.3344,4.3344,4.3344,4.3344,4.3344,4.3344,4.3344,4.3344,4.3344,4.3344,4.3344,4.3344,4.3344,4.3344,4.3344,4.3344,4.3344,4.3344,4.3344,4.3344,4.3344,4.3344,4.3344,4.3344,4.3344,4.3344,4.3344,4.3344,4.3344,4.3344,4.3404,4.3569,4.3838,4.4257,4.4766,4.5648,4.6322,4.6456,4.6546,4.6262,4.5963,4.5095,4.4212,4.3808,4.3419,4.3344,4.3344,4.3344,4.3344,4.3344,4.3344,4.3344,4.3344,4.3344,4.3344,4.3344,4.3344,4.3344,4.3344,4.3344,4.3344,4.3344,4.3708,4.469,4.5961,4.7306,4.8513,4.8736,4.9018,4.9018,4.9018,4.9018,4.9018,4.9018,4.9018,4.9018,4.9018,4.9018,4.9018,4.3658,4.3344,4.3344,4.2996,4.2386,4.1337,4.0561,3.977,3.8107,3.7678,3.8572,4.0045,4.1085,4.1684,4.2805,4.317,4.3076,4.2725,4.29,4.29,4.2644,4.29,4.2996,4.2886,4.2981,4.3076,4.325,4.325,4.3344,4.3265,4.325,4.3344,4.3344,4.3344,4.3344,4.3344,4.3344,4.3344,4.3344,4.3344,4.3344,4.3344,4.3344,4.3344,4.3344,4.3344,4.3344,4.3344,4.3344,4.3344,4.3344,4.3344,4.3344,4.3344,4.3344,4.3344,4.3344,4.3344,4.3344,4.3344,4.3344,4.3344,4.3344,4.3344,4.3344,4.3344,4.3344,4.3509,4.3958,4.4392,4.4586,4.5274,4.5633,4.5843,4.5813,4.5618,4.5095,4.4362,4.3838,4.3569,4.3344,4.3344,4.3344,4.3344,4.3344,4.3344,4.3344,4.3344,4.3344,4.3344,4.3344,4.3344,4.3344,4.3344,4.3344,4.3344,4.3344,4.3344,4.3329,4.454,4.5961,4.7737,4.9001,4.9018,4.9018,4.9018,4.9018,4.9018,4.9018,4.9018,4.9018,4.9018,4.9018,4.9018,4.9018,4.317,4.3076,4.29,4.2304,4.1253,4.0145,3.9094,3.8107,3.6883,3.6452,3.6896,3.8841,4.0232,4.1253,4.229,4.2644,4.2548,4.1601,4.2111,4.2805,4.2644,4.2739,4.2725,4.2534,4.2886,4.3076,4.325,4.3344,4.3344,4.3344,4.3344,4.3344,4.3344,4.3344,4.3344,4.3344,4.3344,4.3344,4.3344,4.3344,4.3344,4.3344,4.3344,4.3344,4.3344,4.3344,4.3344,4.3344,4.3344,4.3344,4.3344,4.3344,4.3344,4.3344,4.3344,4.3344,4.3344,4.3344,4.3344,4.3344,4.3344,4.3344,4.3344,4.3344,4.3344,4.3344,4.3344,4.3539,4.3988,4.4212,4.4407,4.4676,4.499,4.517,4.5095,4.4945,4.4302,4.3763,4.3554,4.3344,4.3344,4.3344,4.3344,4.3344,4.3344,4.3344,4.3344,4.3344,4.3344,4.3344,4.3344,4.3344,4.3344,4.3344,4.3344,4.3344,4.3329,4.3488,4.3693,4.4765,4.6032,4.7803,4.894,4.9018,4.9018,4.9018,4.9018,4.9018,4.9018,4.9018,4.9018,4.9018,4.9018,4.9018,4.9018,4.2739,4.1864,4.093,4.0404,4.0059,3.8992,3.8289,3.7939,3.6896,3.637,3.6709,3.7678,3.8635,3.8814,4.0059,4.0845,4.1518,4.0689,4.0958,4.1601,4.155,4.2076,4.271,4.2841,4.3061,4.325,4.3344,4.3344,4.3344,4.3344,4.3344,4.3344,4.3344,4.3344,4.3344,4.3344,4.3344,4.3344,4.3344,4.3344,4.3344,4.3344,4.3344,4.3344,4.3344,4.3344,4.3344,4.3344,4.3344,4.3344,4.3344,4.3344,4.3344,4.3344,4.3344,4.3344,4.3344,4.3344,4.3344,4.3344,4.3344,4.3344,4.3344,4.3344,4.3344,4.3344,4.3344,4.3344,4.3629,4.3629,4.3823,4.4182,4.4496,4.4496,4.4466,4.4167,4.3703,4.3524,4.3404,4.3344,4.3344,4.3344,4.3344,4.3344,4.3344,4.3344,4.3344,4.3344,4.3344,4.3344,4.3344,4.3344,4.3344,4.3344,4.3344,4.3329,4.3329,4.3551,4.4205,4.5473,4.6747,4.8015,4.8798,4.894,4.9018,4.9018,4.9018,4.9018,4.9018,4.9018,4.9018,4.9018,4.9018,4.9018,4.9018]},{"header":{"parameterUnit":"m.s-1","parameterCategory":1,"la1":31.0,"la2":29.5877,"lo1":-88.7671,"lo2":-86.6584,"dy":0.0162,"dx":0.0185,"nx":115,"ny":88,"refTime":"2024-08-20T06:00:00:Z","depth":0,"parameterNumber":3,"parameterNumberName":"V-component_of_WINDS"},"data":[0.0,0.0,0.0,0.0,0.0,0.0,0.0,0.0,0.0,0.0,0.0,0.0,0.0,0.0,0.0,0.0,0.0,0.0,0.0,0.0,0.0,0.0,0.0,0.0,0.0,0.0,0.0,0.0,0.0,0.0,0.0,0.0,0.0,0.0,0.0,0.0,0.0,0.0,0.0,0.0,0.0,0.0,0.0,0.0,0.0,0.0,0.0,0.0,0.0,0.0,0.0,0.0,0.0,0.0,0.0,0.0,0.0,0.0,0.0,0.0,0.0,0.0,0.0,0.0,0.0,0.0,0.0,0.0,0.0,0.0,0.0,0.0,0.0,0.0,0.0,0.0,0.0,0.0,0.0,0.0,0.0,0.0,0.0,0.0,0.0,0.0,0.0,0.0,0.0,0.0,0.0,0.0,0.0,0.0,0.0,0.0,0.0,0.0,0.0,0.0,0.0,0.0,0.0,0.0,0.0,0.0,0.0,0.0,0.0,0.0,0.0,0.0,0.0,0.0,0.0,0.0,0.0,0.0,0.0,0.0,0.0,0.0,0.0,0.0,0.0,0.0,0.0,0.0,0.0,0.0,0.0,0.0,0.0,0.0,0.0,0.0,0.0,0.0,0.0,0.0,0.0,0.0,0.0,0.0,0.0,0.0,0.0,0.0,0.0,0.0,0.0,0.0,0.0,0.0,0.0,0.0,0.0,0.0,0.0,0.0,0.0,0.0,0.0,0.0,0.0,0.0,0.0,0.0,0.0,0.0,0.0,0.0,0.0,0.0,0.0,0.0,0.0,0.0,0.0,0.0,0.0,0.0,0.0,0.0,0.0,0.0,0.0,0.0,0.0,0.0,0.0,0.0,0.0,0.0,0.0,0.0,0.0,0.0,0.0,0.0,0.0,0.0,0.0,0.0,0.0,0.0,0.0,0.0,0.0,0.0,0.0,0.0,0.0,0.0,0.0,0.0,0.0,0.0,0.0,0.0,0.0,0.0,0.0,0.0,0.0,0.0,0.0,0.0,0.0,0.0,0.0,0.0,0.0,0.0,0.0,0.0,0.0,0.0,0.0,0.0,0.0,0.0,0.0,0.0,0.0,0.0,0.0,0.0,0.0,0.0,0.0,0.0,0.0,0.0,0.0,0.0,0.0,0.0,0.0,0.0,0.0,0.0,0.0,0.0,0.0,0.0,0.0,0.0,0.0,0.0,0.0,0.0,0.0,0.0,0.0,0.0,0.0,0.0,0.0,0.0,0.0,0.0,0.0,0.0,0.0,0.0,0.0,0.0,0.0,0.0,0.0,0.0,0.0,0.0,0.0,0.0,0.0,0.0,0.0,0.0,0.0,0.0,0.0,0.0,0.0,0.0,0.0,0.0,0.0,0.0,0.0,0.0,0.0,0.0,0.0,0.0,0.0,0.0,0.0,0.0,0.0,0.0,0.0,0.0,0.0,0.0,0.0,0.0,0.0,0.0,0.0,0.0,0.0,0.0,0.0,0.0,0.0,0.0,0.0,0.0,0.0,0.0,0.0,0.0,0.0,0.0,0.0,0.0,0.0,0.0,0.0,0.0,0.0,0.0,0.0,0.0,0.0,0.0,0.0,0.0,0.0,0.0,0.0,0.0,0.0,0.0,0.0,0.0,0.0,0.0,0.0,0.0,0.0,0.0,0.0,0.0,0.0,0.0,0.0,0.0,0.0,0.0,0.0,0.0,0.0,0.0,0.0,0.0,0.0,0.0,0.0,0.0,0.0,0.0,0.0,0.0,0.0,0.0,0.0,0.0,0.0,0.0,0.0,0.0,0.0,0.0,0.0,0.0,0.0,0.0,0.0,0.0,0.0,0.0,0.0,0.0,0.0,0.0,0.0,0.0,0.0,0.0,0.0,0.0,0.0,0.0,0.0,0.0,0.0,0.0,0.0,0.0,0.0,0.0,0.0,0.0,0.0,0.0,0.0,0.0,0.0,0.0,0.0,0.0,0.0,0.0,0.0,0.0,0.0,0.0,0.0,0.0,0.0,0.0,0.0,0.0,0.0,0.0,0.0,0.0,0.0,0.0,0.0,0.0,0.0,0.0,0.0,0.0,0.0,0.0,0.0,0.0,0.0,0.0,0.0,0.0,0.0,0.0,0.0,0.0,0.0,0.0,0.0,0.0,0.0,0.0,0.0,0.0,0.0,0.0,0.0,0.0,0.0,0.0,0.0,0.0,0.0,0.0,0.0,0.0,0.0,0.0,0.0,0.0,0.0,0.0,0.0,0.0,0.0,0.0,0.0,0.0,0.0,0.0,0.0,0.0,0.0,0.0,0.0,0.0,0.0,0.0,0.0,0.0,0.0,0.0,0.0,0.0,0.0,0.0,0.0,0.0,0.0,0.0,0.0,0.0,0.0,0.0,0.0,0.0,0.0,0.0,0.0,0.0,0.0,0.0,0.0,0.0,0.0,0.0,0.0,0.0,0.0,0.0,0.0,0.0,0.0,0.0,0.0,0.0,0.0,0.0,0.0,0.0,0.0,0.0,0.0,0.0,0.0,0.0,0.0,0.0,0.0,0.0,0.0,0.0,0.0,0.0,0.0,0.0,0.0,0.0,0.0,0.0,0.0,0.0,0.0,0.0,0.0,0.0,0.0,0.0,0.0,0.0,0.0,0.0,0.0,0.0,0.0,0.0,0.0,0.0,0.0,0.0,0.0,0.0,0.0,0.0,0.0,0.0,0.0,0.0,0.0,0.0,0.0,0.0,0.0,0.0,0.0,0.0,0.0,0.0,0.0,0.0,0.0,0.0,0.0,0.0,0.0,0.0,0.0,0.0,0.0,0.0,0.0,0.0,0.0,0.0,0.0,0.0,0.0,0.0,0.0,0.0,0.0,0.0,0.0,0.0,0.0,0.0,0.0,0.0,0.0,0.0,0.0,0.0,0.0,0.0,0.0,0.0,0.0,0.0,0.0,0.0,0.0,0.0,0.0,0.0,0.0,0.0,0.0,0.0,0.0,0.0,0.0,0.0,0.0,0.0,0.0,0.0,0.0,0.0,0.0,0.0,0.0,0.0,0.0,0.0,0.0,0.0,0.0,0.0,0.0,0.0,0.0,0.0,0.0,0.0,0.0,0.0,0.0,0.0,0.0,0.0,0.0,0.0,0.0,0.0,0.0,0.0,0.0,0.0,0.0,0.0,0.0,0.0,0.0,0.0,0.0,0.0,0.0,0.0,0.0,0.0,0.0,0.0,0.0,0.0,0.0,0.0,0.0,0.0,0.0,0.0,0.0,0.0,0.0,0.0,0.0,0.0,0.0,0.0,0.0,0.0,0.0,0.0,0.0,0.0,0.0,0.0,0.0,0.0,0.0,0.0,0.0,0.0,0.0,0.0,0.0,0.0,0.0,0.0,0.0,0.0,0.0,0.0,0.0,0.0,0.0,0.0,0.0,0.0,0.0,0.0,0.0,0.0,0.0,0.0,0.0,0.0,0.0,0.0,0.0,0.0,0.0,0.0,0.0,0.0,0.0,0.0,0.0,0.0,0.0,0.0,0.0,0.0,0.0,0.0,0.0,0.0,0.0,0.0,0.0,0.0,0.0,0.0,0.0,0.0,0.0,0.0,0.0,0.0,0.0,0.0,0.0,0.0,0.0,0.0,0.0,0.0,0.0,0.0,0.0,0.0,0.0,0.0,0.0,0.0,0.0,0.0,0.0,0.0,0.0,0.0,0.0,0.0,0.0,0.0,0.0,0.0,0.0,0.0,0.0,0.0,0.0,0.0,0.0,0.0,0.0,0.0,0.0,0.0,0.0,0.0,0.0,0.0,0.0,0.0,0.0,0.0,0.0,0.0,0.0,0.0,0.0,0.0,0.0,0.0,0.0,0.0,0.0,0.0,0.0,0.0,0.0,0.0,0.0,0.0,0.0,0.0,0.0,0.0,0.0,0.0,0.0,0.0,0.0,0.0,0.0,0.0,0.0,0.0,0.0,0.0,0.0,0.0,0.0,0.0,0.0,0.0,0.0,0.0,0.0,0.0,0.0,0.0,0.0,0.0,0.0,0.0,0.0,0.0,0.0,0.0,0.0,0.0,0.0,0.0,0.0,0.0,0.0,0.0,0.0,0.0,0.0,0.0,0.0,0.0,0.0,0.0,0.0,0.0,0.0,0.0,0.0,0.0,0.0,0.0,0.0,0.0,0.0,0.0,0.0,0.0,0.0,0.0,0.0,0.0,0.0,0.0,0.0,0.0,0.0,0.0,0.0,0.0,0.0,0.0,0.0,0.0,0.0,0.0,0.0,0.0,0.0,0.0,1.5977,0.0,0.0,0.0,0.0,0.0,0.0,0.0,0.0,0.0,0.0,0.0,0.0,0.0,0.0,0.0,0.0,0.0,0.0,0.0,0.0,0.0,0.0,0.0,0.0,0.0,0.0,0.0,0.0,0.0,0.0,0.0,0.0,0.0,0.0,0.0,0.0,0.0,0.0,0.0,0.0,0.0,0.0,0.0,0.0,0.0,0.0,0.0,0.0,0.0,0.0,0.0,0.0,0.0,0.0,0.0,0.0,0.0,0.0,0.0,0.0,0.0,0.0,0.0,0.0,0.0,0.0,0.0,0.0,0.0,0.0,0.0,0.0,0.0,0.0,0.0,0.0,0.0,0.0,0.0,0.0,0.0,0.0,0.0,0.0,0.0,0.0,0.0,0.0,0.0,0.0,0.0,0.0,0.0,0.0,0.0,0.0,0.0,0.0,0.0,0.0,0.0,0.0,0.0,0.0,0.0,0.0,0.0,0.0,0.0,0.0,1.7275,1.7031,1.6836,1.6406,1.5732,0.0,0.0,0.0,0.0,0.0,0.0,0.0,0.0,0.0,0.0,0.0,0.0,0.0,0.0,0.0,0.0,0.0,0.0,0.0,0.0,0.0,0.0,0.0,0.0,0.0,0.0,0.0,0.0,0.0,0.0,0.0,0.0,0.0,0.0,0.0,0.0,0.0,0.0,0.0,0.0,0.0,0.0,0.0,0.0,0.0,0.0,0.0,0.0,0.0,0.0,0.0,0.0,0.0,0.0,0.0,0.0,0.0,0.0,0.0,0.0,0.0,0.0,0.0,0.0,0.0,0.0,0.0,0.0,0.0,0.0,0.0,0.0,0.0,0.0,0.0,0.0,0.0,0.0,0.0,0.0,0.0,0.0,0.0,0.0,0.0,0.0,0.0,0.0,0.0,0.0,0.0,0.0,0.0,0.0,0.0,0.0,0.0,0.0,0.0,0.0,0.0,0.0,0.0,0.0,0.0,0.0,0.0,0.0,0.0,0.0,0.0,0.0,1.6924,1.6465,1.5596,0.0,0.0,0.0,0.0,0.0,0.0,0.0,0.0,0.0,0.0,0.0,0.0,0.0,0.0,0.0,0.0,0.0,0.0,0.0,0.0,0.0,0.0,0.0,0.0,0.0,0.0,0.0,0.0,0.0,0.0,0.0,0.0,0.0,0.0,0.0,0.0,0.0,0.0,0.0,0.0,0.0,0.0,0.0,0.0,0.0,0.0,0.0,0.0,0.0,0.0,0.0,0.0,0.0,0.0,0.0,0.0,0.0,0.0,0.0,0.0,0.0,0.0,0.0,0.0,0.0,0.0,0.0,0.0,0.0,0.0,0.0,0.0,0.0,0.0,0.0,0.0,0.0,0.0,0.0,0.0,0.0,0.0,0.0,0.0,0.0,0.0,0.0,0.0,0.0,0.0,0.0,0.0,0.0,0.0,0.0,0.0,0.0,0.0,0.0,0.0,0.0,0.0,0.0,0.0,0.0,0.0,0.0,0.0,0.0,0.0,1.6728,1.7842,1.751,0.0,1.6074,0.0,0.0,0.0,0.0,0.0,0.0,0.0,0.0,0.0,0.0,0.0,0.0,0.0,0.0,0.0,0.0,0.0,0.0,0.0,0.0,0.0,0.0,0.0,0.0,0.0,0.0,0.0,0.0,0.0,0.0,0.0,0.0,0.0,0.0,0.0,0.0,0.0,0.0,0.0,0.0,0.0,0.0,0.0,0.0,0.0,0.0,0.0,0.0,0.0,0.0,0.0,0.0,0.0,0.0,0.0,0.0,0.0,0.0,0.0,0.0,0.0,0.0,0.0,0.0,0.0,0.0,0.0,0.0,0.0,0.0,0.0,0.0,0.0,0.0,0.0,0.0,0.0,0.0,0.0,0.0,0.0,0.0,0.0,0.0,0.0,0.0,0.0,0.0,0.0,0.0,0.0,0.0,0.0,0.0,0.0,0.0,0.0,0.0,0.0,0.0,0.0,0.0,0.0,0.0,0.0,0.0,0.0,0.0,0.0,0.0,0.0,1.7246,1.6582,1.6045,0.0,0.0,0.0,0.0,0.0,0.0,0.0,0.0,0.0,0.0,0.0,0.0,0.0,0.0,0.0,0.0,0.0,0.0,0.0,0.0,0.0,0.0,0.0,0.0,0.0,0.0,0.0,0.0,0.0,0.0,0.0,0.0,0.0,0.0,0.0,0.0,0.0,0.0,0.0,0.0,0.0,0.0,0.0,0.0,0.0,0.0,0.0,0.0,0.0,0.0,0.0,0.0,0.0,0.0,0.0,0.0,0.0,0.0,0.0,0.0,0.0,0.0,0.0,0.0,0.0,0.0,0.0,0.0,0.0,0.0,0.0,0.0,0.0,0.0,0.0,0.0,0.0,0.0,0.0,0.0,0.0,0.0,0.0,0.0,0.0,0.0,0.0,0.0,0.0,0.0,0.0,0.0,0.0,0.0,0.0,0.0,0.0,0.0,0.0,0.0,0.0,0.0,0.0,0.0,0.0,0.0,0.0,0.0,0.0,0.0,1.6562,0.0,1.6417,1.6094,1.5732,1.5254,0.0,0.0,0.0,0.0,0.0,0.0,0.0,0.0,0.0,0.0,0.0,0.0,0.0,0.0,0.0,0.0,0.0,0.0,0.0,0.0,0.0,0.0,0.0,0.0,0.0,0.0,0.0,0.0,0.0,0.0,0.0,0.0,0.0,0.0,0.0,0.0,0.0,0.0,0.0,0.0,0.0,0.0,0.0,0.0,0.0,0.0,0.0,0.0,0.0,0.0,0.0,0.0,0.0,0.0,0.0,0.0,0.0,0.0,0.0,0.0,0.0,0.0,0.0,0.0,0.0,0.0,0.0,0.0,0.0,0.0,0.0,0.0,0.0,0.0,0.0,0.0,0.0,0.0,0.0,0.0,0.0,0.0,0.0,0.0,0.0,0.0,0.0,0.0,0.0,0.0,0.0,0.0,0.0,0.0,0.0,0.0,0.0,0.0,0.0,0.0,0.0,0.0,0.0,0.0,0.0,0.0,0.0,0.0,0.0,1.6112,1.5388,1.5802,1.6751,1.6514,0.0,0.0,0.0,0.0,0.0,0.0,0.0,0.0,0.0,0.0,0.0,0.0,0.0,0.0,0.0,0.0,0.0,0.0,0.0,0.0,0.0,0.0,0.0,0.0,0.0,0.0,0.0,0.0,0.0,0.0,0.0,0.0,0.0,0.0,0.0,0.0,0.0,0.0,0.0,0.0,0.0,0.0,0.0,0.0,0.0,0.0,0.0,0.0,0.0,0.0,0.0,0.0,0.0,0.0,0.0,0.0,0.0,0.0,0.0,0.0,0.0,0.0,0.0,0.0,0.0,0.0,0.0,0.0,0.0,0.0,0.0,0.0,0.0,0.0,0.0,0.0,0.0,0.0,0.0,0.0,0.0,0.0,0.0,0.0,0.0,0.0,0.0,0.0,0.0,0.0,0.0,0.0,0.0,0.0,0.0,0.0,0.0,0.0,0.0,0.0,0.0,0.0,0.0,0.0,0.0,0.0,0.0,0.0,0.0,1.5172,1.5269,1.5827,1.6727,1.6379,1.5957,0.0,0.0,0.0,0.0,0.0,0.0,0.0,0.0,0.0,0.0,0.0,0.0,0.0,0.0,0.0,0.0,0.0,0.0,0.0,0.0,0.0,0.0,0.0,0.0,0.0,0.0,0.0,0.0,0.0,0.0,0.0,0.0,0.0,0.0,0.0,0.0,0.0,0.0,0.0,0.0,0.0,0.0,0.0,0.0,0.0,0.0,0.0,0.0,0.0,0.0,0.0,0.0,0.0,0.0,0.0,0.0,0.0,0.0,0.0,0.0,0.0,0.0,0.0,0.0,0.0,0.0,0.0,0.0,0.0,0.0,0.0,0.0,0.0,0.0,0.0,0.0,0.0,0.0,0.0,0.0,0.0,0.0,0.0,0.0,0.0,0.0,0.0,0.0,0.0,0.0,0.0,0.0,0.0,0.0,0.0,0.0,0.0,0.0,0.0,0.0,0.0,0.0,0.0,0.0,0.0,0.0,0.0,0.0,0.0,1.3542,0.0,1.5815,0.0,1.5569,1.5204,0.0,0.0,0.0,0.0,0.0,0.0,0.0,0.0,0.0,0.0,0.0,0.0,0.0,0.0,0.0,0.0,0.0,0.0,0.0,0.0,0.0,0.0,0.0,0.0,0.0,0.0,0.0,0.0,0.0,0.0,0.0,0.0,0.0,0.0,0.0,0.0,0.0,0.0,0.0,0.0,0.0,0.0,0.0,0.0,0.0,0.0,0.0,0.0,0.0,0.0,0.0,0.0,0.0,0.0,0.0,0.0,0.0,0.0,0.0,0.0,0.0,0.0,0.0,0.0,0.0,0.0,0.0,0.0,0.0,0.0,0.0,0.0,0.0,0.0,0.0,0.0,0.0,0.0,0.0,0.0,0.0,0.0,0.0,0.0,0.0,0.0,0.0,0.0,0.0,0.0,0.0,0.0,0.0,0.0,0.0,0.0,0.0,0.0,0.0,0.0,0.0,0.0,0.0,0.0,0.0,0.0,0.0,0.0,1.3604,1.317,1.4753,1.5215,1.4178,1.4564,1.4372,0.0,0.0,0.0,0.0,0.0,0.0,0.0,0.0,0.0,0.0,0.0,0.0,0.0,0.0,0.0,0.0,0.0,0.0,0.0,0.0,0.0,0.0,0.0,0.0,0.0,0.0,0.0,0.0,0.0,0.0,0.0,0.0,0.0,0.0,0.0,0.0,0.0,0.0,0.0,0.0,0.0,0.0,0.0,0.0,0.0,0.0,0.0,0.0,0.0,0.0,0.0,0.0,0.0,0.0,0.0,0.0,0.0,0.0,0.0,0.0,0.0,0.0,0.0,0.0,0.0,0.0,0.0,0.0,0.0,0.0,0.0,0.0,0.0,0.0,0.0,0.0,0.0,0.0,0.0,0.0,0.0,0.0,0.0,0.0,0.0,0.0,0.0,0.0,0.0,0.0,0.0,0.0,0.0,0.0,0.0,0.0,0.0,0.0,0.0,0.0,0.0,0.0,0.0,0.0,0.0,0.0,0.0,0.0,0.0,1.3092,1.4916,1.5584,1.4887,1.5088,1.484,0.0,0.0,0.0,0.0,0.0,0.0,0.0,0.0,0.0,0.0,0.0,0.0,0.0,0.0,0.0,0.0,0.0,0.0,0.0,0.0,0.0,0.0,0.0,0.0,0.0,0.0,0.0,0.0,0.0,0.0,0.0,0.0,0.0,0.0,0.0,0.0,0.0,0.0,0.0,0.0,0.0,0.0,0.0,0.0,0.0,0.0,0.0,0.0,0.0,0.0,0.0,0.0,0.0,0.0,0.0,0.0,0.0,0.0,0.0,0.0,0.0,0.0,0.0,0.0,0.0,0.0,0.0,0.0,0.0,0.0,0.0,0.0,0.0,0.0,0.0,0.0,0.0,0.0,0.0,0.0,0.0,0.0,0.0,0.0,0.0,0.0,0.0,0.0,0.0,0.0,0.0,0.0,0.0,0.0,0.0,0.0,0.0,0.0,0.0,0.0,0.0,0.0,0.0,0.0,0.0,0.0,0.0,0.0,0.0,1.4197,1.5618,1.6253,1.5871,1.5533,1.5186,1.4869,0.0,0.0,0.0,0.0,0.0,0.0,0.0,0.0,0.0,0.0,0.0,0.0,0.0,0.0,0.0,0.0,0.0,0.0,0.0,0.0,0.0,0.0,0.0,0.0,0.0,0.0,0.0,0.0,0.0,0.0,0.0,0.0,0.0,0.0,0.0,0.0,0.0,0.0,0.0,0.0,0.0,0.0,0.0,0.0,0.0,0.0,0.0,0.0,0.0,0.0,0.0,0.0,0.0,0.0,0.0,0.0,0.0,0.0,0.0,0.0,0.0,0.0,0.0,0.0,0.0,0.0,0.0,0.0,0.0,0.0,0.0,0.0,0.0,0.0,0.0,0.0,0.0,0.0,0.0,0.0,0.0,0.0,0.0,0.0,0.0,0.0,0.0,0.0,0.0,0.0,0.0,0.0,0.0,0.0,0.0,0.0,0.0,0.0,0.0,0.0,0.0,0.0,0.0,0.0,0.0,0.0,0.0,0.0,1.601,1.6775,1.7141,1.708,1.6031,1.5412,0.0,0.0,0.0,0.0,0.0,0.0,0.0,0.0,0.0,0.0,0.0,0.0,0.0,0.0,0.0,0.0,0.0,0.0,0.0,0.0,0.0,0.0,0.0,0.0,0.0,0.0,0.0,0.0,0.0,0.0,0.0,0.0,0.0,0.0,0.0,0.0,0.0,0.0,0.0,0.0,0.0,0.0,0.0,0.0,0.0,0.0,0.0,0.0,0.0,0.0,0.0,0.0,0.0,0.0,0.0,0.0,0.0,0.0,0.0,0.0,0.0,0.0,0.0,0.0,0.0,0.0,0.0,0.0,0.0,0.0,0.0,0.0,0.0,0.0,0.0,0.0,0.0,0.0,0.0,0.0,0.0,0.0,0.0,0.0,0.0,0.0,0.0,0.0,0.0,0.0,0.0,0.0,0.0,0.0,0.0,0.0,0.0,0.0,0.0,0.0,0.0,0.0,0.0,0.0,0.0,0.0,0.0,0.0,0.0,1.6563,1.9204,1.9873,1.8497,1.7713,1.6788,0.0,0.0,0.0,0.0,0.0,0.0,0.0,0.0,0.0,0.0,0.0,0.0,0.0,0.0,0.0,0.0,0.0,0.0,0.0,0.0,0.0,0.0,0.0,0.0,0.0,0.0,0.0,0.0,0.0,0.0,0.0,0.0,0.0,0.0,0.0,0.0,0.0,0.0,0.0,0.0,0.0,0.0,0.0,0.0,0.0,0.0,0.0,0.0,0.0,0.0,0.0,0.0,0.0,0.0,0.0,0.0,0.0,0.0,0.0,0.0,0.0,0.0,0.0,0.0,0.0,0.0,0.0,0.0,0.0,0.0,0.0,0.0,0.0,0.0,0.0,0.0,0.0,0.0,0.0,0.0,0.0,0.0,0.0,0.0,0.0,0.0,0.0,0.0,0.0,0.0,0.0,0.0,0.0,0.0,0.0,0.0,0.0,0.0,0.0,0.0,0.0,0.0,0.0,0.0,0.0,0.0,0.0,0.0,1.6925,1.8021,2.0674,2.1559,2.023,1.9322,1.8062,0.0,0.0,0.0,0.0,0.0,0.0,0.0,0.0,0.0,0.0,0.0,0.0,0.0,0.0,0.0,0.0,0.0,0.0,0.0,0.0,0.0,0.0,0.0,0.0,0.0,0.0,0.0,0.0,0.0,0.0,0.0,0.0,0.0,0.0,0.0,0.0,0.0,0.0,0.0,0.0,0.0,0.0,0.0,0.0,0.0,0.0,0.0,0.0,0.0,0.0,0.0,0.0,0.0,0.0,0.0,0.0,0.0,0.0,0.0,0.0,0.0,0.0,0.0,0.0,0.0,0.0,0.0,0.0,0.0,0.0,0.0,0.0,0.0,0.0,0.0,0.0,0.0,0.0,0.0,0.0,0.0,0.0,0.0,0.0,0.0,0.0,0.0,0.0,0.0,0.0,0.0,0.0,0.0,0.0,0.0,0.0,0.0,0.0,0.0,0.0,0.0,0.0,0.0,0.0,0.0,0.0,0.0,0.0,1.783,1.9816,2.1606,2.2353,2.1875,2.0644,1.918,0.0,0.0,0.0,0.0,0.0,0.0,0.0,0.0,0.0,0.0,0.0,0.0,0.0,0.0,0.0,0.0,0.0,0.0,0.0,0.0,0.0,0.0,0.0,0.0,0.0,0.0,0.0,0.0,0.0,0.0,0.0,0.0,0.0,0.0,0.0,0.0,0.0,0.0,0.0,0.0,0.0,0.0,0.0,0.0,0.0,0.0,0.0,0.0,0.0,0.0,0.0,0.0,0.0,0.0,0.0,0.0,0.0,0.0,0.0,0.0,0.0,0.0,0.0,0.0,0.0,0.0,0.0,0.0,0.0,0.0,0.0,0.0,0.0,0.0,0.0,0.0,0.0,0.0,0.0,0.0,0.0,0.0,0.0,0.0,0.0,0.0,0.0,0.0,0.0,0.0,0.0,0.0,0.0,0.0,0.0,0.0,0.0,0.0,0.0,0.0,0.0,0.0,0.0,0.0,0.0,0.0,0.0,0.0,1.8873,2.0218,2.2026,2.2646,2.1904,2.0937,1.9629,0.0,0.0,0.0,0.0,0.0,0.0,0.0,0.0,0.0,0.0,0.0,0.0,0.0,0.0,0.0,0.0,0.0,0.0,0.0,0.0,0.0,0.0,0.0,0.0,0.0,0.0,0.0,0.0,0.0,0.0,0.0,0.0,0.0,0.0,0.0,0.0,0.0,0.0,0.0,0.0,0.0,0.0,0.0,0.0,0.0,0.0,0.0,0.0,1.045,0.0,0.0,0.0,0.0,0.0,0.0,0.0,0.0,0.0,0.0,0.0,0.0,0.0,0.0,0.0,0.0,0.0,0.0,0.0,0.0,0.0,0.0,0.0,0.0,0.0,0.0,0.0,0.0,0.0,0.0,0.0,0.0,0.0,0.0,0.0,0.0,0.0,0.0,0.0,0.0,0.0,0.0,0.0,0.0,0.0,0.0,0.0,0.0,0.0,0.0,0.0,0.0,0.0,0.0,0.0,0.0,0.0,0.0,0.0,1.9894,2.1344,2.2534,2.2734,2.1914,2.1426,2.0328,0.0,0.0,0.0,0.0,0.0,0.0,0.0,0.0,0.0,0.0,0.0,0.0,0.0,0.0,0.0,0.0,0.0,0.0,0.0,0.0,0.0,0.0,0.0,0.0,0.0,0.0,0.0,0.0,0.0,0.0,0.0,0.0,0.0,0.0,0.0,0.0,0.0,0.0,0.0,0.0,0.0,0.0,0.0,0.0,0.0,0.0,0.0,0.0,0.0,0.0,0.0,0.0,0.0,0.0,0.0,0.0,0.0,0.0,0.0,0.0,0.0,0.0,0.0,0.0,0.0,0.0,0.0,0.0,0.0,0.0,0.0,0.0,0.0,0.0,0.0,0.0,0.0,0.0,0.0,0.0,0.0,0.0,0.0,0.0,0.0,0.0,0.0,0.0,0.0,0.0,0.0,0.0,0.0,0.0,0.0,0.0,0.0,0.0,0.0,0.0,0.0,0.0,0.0,0.0,0.0,0.0,0.0,1.9324,2.0677,2.2483,2.2959,2.2734,2.1924,2.1894,2.1101,1.9337,0.0,0.0,0.0,0.0,0.0,0.0,0.0,0.0,0.0,0.0,0.0,0.0,0.0,0.0,0.0,0.0,0.0,0.0,0.0,0.0,0.0,0.0,0.0,0.0,0.0,0.0,0.0,0.0,0.0,0.0,0.0,0.0,0.0,0.0,0.0,0.0,0.0,0.0,1.0227,1.1425,0.0,0.0,0.0,0.0,0.0,0.0,0.0,0.0,1.1022,0.0,0.0,0.0,0.0,0.0,0.0,0.0,0.0,0.0,0.0,0.0,0.0,0.0,0.0,0.0,0.0,0.0,0.0,0.0,0.0,0.0,0.0,0.0,0.0,0.0,0.0,0.0,0.0,0.0,0.0,0.0,0.0,0.0,0.0,0.0,0.0,0.0,0.0,0.0,0.0,0.0,0.0,0.0,0.0,0.0,0.0,0.0,0.0,0.0,0.0,0.0,0.0,0.0,0.0,0.0,0.0,2.0164,1.9975,2.0905,2.2969,2.3096,2.2734,2.1934,2.1894,2.1332,2.0019,0.0,0.0,0.0,0.0,0.0,0.0,0.0,0.0,0.0,0.0,0.0,0.0,0.0,0.0,0.0,0.0,0.0,0.0,0.0,0.0,0.0,0.0,0.0,0.0,0.0,0.0,0.0,0.0,0.0,0.0,0.0,0.0,0.0,0.0,0.0,0.0,0.0,0.0,0.0,1.203,1.2465,0.0,0.0,0.0,0.0,0.0,0.0,0.0,0.0,1.1156,0.0,0.0,0.0,0.0,0.0,0.0,0.0,0.0,0.0,0.0,0.0,0.0,0.0,0.0,0.0,0.0,0.0,0.0,0.0,0.0,0.0,0.0,0.0,0.0,0.0,0.0,0.0,0.0,0.0,0.0,0.0,0.0,0.0,0.0,0.0,0.0,0.0,0.0,0.0,0.0,0.0,0.0,0.0,0.0,0.0,0.0,0.0,0.0,0.0,0.0,0.0,0.0,0.0,0.0,0.0,1.9775,2.0576,2.165,2.3076,2.293,2.2519,2.1894,2.1006,2.0126,0.0,0.0,0.0,0.0,0.0,0.0,0.0,0.0,0.0,0.0,0.0,0.0,0.0,0.0,0.0,0.0,0.0,0.0,0.0,0.0,0.0,0.0,0.0,0.0,0.0,0.0,0.0,0.0,0.0,0.0,0.0,0.0,0.0,0.0,0.0,0.0,0.0,0.0,0.0,0.0,1.1902,1.2402,1.2614,0.0,0.0,0.0,0.0,0.0,0.0,1.1283,1.1142,0.0,0.0,0.0,0.0,0.0,0.0,0.0,0.0,0.0,0.0,0.0,0.0,0.0,0.0,0.0,0.0,0.0,0.0,0.0,0.0,0.0,0.0,0.0,0.0,0.0,0.0,0.0,0.0,0.0,0.0,0.0,0.0,0.0,0.0,0.0,0.0,0.0,0.0,0.0,0.0,0.0,0.0,0.0,0.0,0.0,0.0,0.0,0.0,0.0,0.0,0.0,0.0,0.0,0.0,0.0,1.9268,2.083,2.2119,2.3066,2.2734,2.2314,2.1875,2.0592,1.9404,0.0,0.0,0.0,0.0,0.0,0.0,0.0,0.0,0.0,0.0,0.0,0.0,0.0,0.0,0.0,0.0,0.0,0.0,0.0,0.0,0.0,0.0,0.0,0.0,0.0,0.0,0.0,0.0,0.0,0.0,0.0,0.0,0.0,0.0,0.0,0.0,0.0,0.0,0.0,0.0,0.0,1.2408,1.312,1.2839,0.0,0.0,0.0,0.0,1.1989,1.161,0.0,0.0,0.0,0.0,0.0,0.0,0.0,0.0,0.0,0.0,0.0,0.0,0.0,0.0,0.0,0.0,0.0,0.0,0.0,0.0,0.0,0.0,0.0,0.0,0.0,0.0,0.0,0.0,0.0,0.0,0.0,0.0,0.0,0.0,0.0,0.0,0.0,0.0,0.0,0.0,0.0,0.0,0.0,0.0,0.0,0.0,0.0,0.0,0.0,0.0,0.0,0.0,0.0,0.0,0.0,0.0,1.9209,2.0234,2.1504,2.3027,2.2725,2.2314,2.1894,2.1683,2.0862,0.0,0.0,0.0,0.0,0.0,0.0,0.0,0.0,0.0,0.0,0.0,0.0,0.0,0.0,0.0,0.0,0.0,0.0,0.0,0.0,0.0,0.0,0.0,0.0,0.0,0.0,0.0,0.0,0.0,0.0,0.0,0.0,0.0,0.0,0.0,0.0,0.0,0.0,0.0,0.0,0.0,1.303,1.2906,1.3255,1.3382,0.0,0.0,1.315,1.2391,1.2412,0.0,0.0,0.0,0.0,0.0,0.0,0.0,0.0,0.0,0.0,0.0,0.0,0.0,0.0,0.0,0.0,0.0,0.0,0.0,0.0,0.0,0.0,0.0,0.0,0.0,0.0,0.0,0.0,0.0,0.0,0.0,0.0,0.0,0.0,0.0,0.0,0.0,0.0,0.0,0.0,0.0,0.0,0.0,0.0,0.0,0.0,0.0,0.0,0.0,0.0,0.0,0.0,0.0,0.0,0.0,1.7197,1.9238,2.0615,2.1904,2.3066,2.25,2.207,2.1885,2.0961,1.9984,0.0,0.0,0.0,0.0,0.0,0.0,0.0,0.0,0.0,0.0,0.0,0.0,0.0,0.0,0.0,0.0,0.0,0.0,0.0,0.0,0.0,0.0,0.0,0.0,0.0,0.0,0.0,0.0,0.0,0.0,0.0,0.0,0.0,0.0,0.0,0.0,0.0,0.0,0.0,0.0,0.0,0.0,1.4561,1.4698,0.0,0.0,0.0,1.4004,1.2966,0.0,0.0,0.0,0.0,0.0,0.0,0.0,0.0,0.0,0.0,0.0,0.0,0.0,0.0,0.0,0.0,0.0,0.0,0.0,0.0,0.0,0.0,0.0,0.0,0.0,0.0,0.0,0.0,0.0,0.0,0.0,0.0,0.0,0.0,0.0,0.0,0.0,0.0,0.0,0.0,0.0,0.0,0.0,0.0,0.0,0.0,0.0,0.0,0.0,0.0,0.0,0.0,0.0,0.0,0.0,0.0,0.0,1.9268,2.0996,2.2295,2.3076,2.2324,2.1894,2.1846,2.0628,0.0,0.0,0.0,0.0,0.0,0.0,0.0,0.0,0.0,0.0,0.0,0.0,0.0,0.0,0.0,0.0,0.0,0.0,0.0,0.0,0.0,0.0,0.0,0.0,0.0,0.0,0.0,1.2744,0.0,0.0,0.0,0.0,0.0,0.0,0.0,0.0,0.0,0.0,0.0,0.0,0.0,0.0,1.3846,1.5848,1.5881,1.5991,0.0,0.0,1.4922,1.385,1.3148,1.2914,0.0,0.0,0.0,0.0,0.0,0.0,0.0,0.0,0.0,0.0,0.0,0.0,0.0,0.0,0.0,0.0,0.0,0.0,0.0,0.0,0.0,0.0,0.0,0.0,0.0,0.0,0.0,0.0,0.0,0.0,0.0,0.0,0.0,0.0,0.0,0.0,0.0,0.0,0.0,0.0,0.0,0.0,0.0,0.0,0.0,0.0,0.0,0.0,0.0,0.0,0.0,0.0,0.0,0.0,0.0,1.9277,2.1006,2.2295,2.3076,2.2324,2.1894,2.1938,2.1808,2.0732,0.0,0.0,0.0,0.0,0.0,0.0,0.0,0.0,0.0,0.0,0.0,0.0,0.0,0.0,0.0,0.0,0.0,0.0,0.0,0.0,0.0,0.0,0.0,0.0,0.0,0.0,0.0,0.0,0.0,0.0,0.0,0.0,0.0,0.0,0.0,0.0,0.0,0.0,0.0,0.0,0.0,1.4483,1.5711,1.6545,1.7172,0.0,1.7105,1.6276,1.526,1.4529,1.4044,1.4206,0.0,0.0,0.0,0.0,0.0,0.0,0.0,0.0,0.0,0.0,0.0,0.0,0.0,0.0,0.0,0.0,0.0,0.0,0.0,0.0,0.0,0.0,0.0,0.0,0.0,0.0,0.0,0.0,0.0,0.0,0.0,0.0,0.0,0.0,0.0,0.0,0.0,0.0,0.0,0.0,0.0,0.0,0.0,0.0,0.0,0.0,0.0,0.0,0.0,0.0,0.0,0.0,0.0,1.7578,1.9277,2.1006,2.2295,2.3066,2.2324,2.1894,2.1894,2.1934,2.1008,0.0,0.0,0.0,0.0,0.0,0.0,0.0,0.0,0.0,0.0,0.0,0.0,0.0,0.0,0.0,0.0,0.0,0.0,0.0,0.0,0.0,0.0,0.0,0.0,0.0,0.0,0.0,0.0,1.2891,1.2715,1.2286,0.0,0.0,0.0,0.0,0.0,0.0,0.0,0.0,0.0,0.0,1.6751,1.8338,1.8823,0.0,0.0,1.8472,1.729,1.6088,1.4698,1.389,1.4103,1.3482,0.0,0.0,0.0,0.0,0.0,0.0,0.0,0.0,0.0,0.0,0.0,0.0,0.0,0.0,0.0,0.0,0.0,0.0,0.0,0.0,0.0,0.0,0.0,0.0,0.0,0.0,0.0,0.0,0.0,0.0,0.0,0.0,0.0,0.0,0.0,0.0,0.0,0.0,0.0,0.0,0.0,0.0,0.0,0.0,0.0,0.0,0.0,0.0,0.0,0.0,0.0,0.0,1.7773,1.9463,2.1191,2.2412,2.3028,2.2314,2.204,2.2299,2.2071,2.1297,0.0,0.0,0.0,0.0,0.0,0.0,0.0,0.0,0.0,0.0,0.0,0.0,0.0,0.0,0.0,0.0,0.0,0.0,0.0,0.0,0.0,0.0,0.0,0.0,0.0,0.0,0.0,0.0,1.2891,1.2608,1.1873,0.0,0.0,0.0,0.0,0.0,0.0,0.0,0.0,0.0,0.0,1.8454,2.0201,2.0377,2.0377,2.0386,1.9161,1.7819,1.6468,1.4902,1.4097,1.4712,0.0,0.0,0.0,0.0,0.0,0.0,0.0,0.0,0.0,0.0,0.0,0.0,0.0,0.0,0.0,0.0,0.0,0.0,0.0,0.0,0.0,0.0,0.0,0.0,0.0,0.0,0.0,1.6547,0.0,0.0,1.6534,0.0,0.0,0.0,0.0,0.0,0.0,0.0,0.0,0.0,0.0,0.0,0.0,0.0,0.0,0.0,0.0,0.0,0.0,0.0,0.0,0.0,0.0,1.8203,1.9883,2.1592,2.2705,2.3105,2.2314,2.2339,2.321,2.2353,2.1856,2.1655,0.0,0.0,0.0,0.0,0.0,0.0,0.0,0.0,0.0,0.0,0.0,0.0,0.0,0.0,0.0,0.0,0.0,0.0,0.0,0.0,0.0,0.0,0.0,0.0,0.0,0.0,1.2891,1.2891,1.2618,0.0,0.0,0.0,0.0,0.0,0.0,0.0,0.0,0.0,0.0,1.7962,1.9127,2.0643,2.0793,2.0706,2.0697,1.9229,1.766,1.6382,1.5254,1.4965,0.0,0.0,0.0,0.0,0.0,0.0,0.0,0.0,0.0,0.0,0.0,0.0,0.0,0.0,0.0,0.0,0.0,0.0,0.0,0.0,0.0,0.0,0.0,0.0,0.0,0.0,0.0,1.9246,1.8681,0.0,0.0,0.0,0.0,0.0,0.0,0.0,0.0,0.0,0.0,0.0,2.2347,2.3263,0.0,0.0,0.0,0.0,0.0,0.0,0.0,0.0,0.0,0.0,0.0,0.0,1.8496,1.9922,2.1631,2.2715,2.3105,2.2314,2.2339,2.3231,2.2731,2.2317,2.2077,0.0,0.0,0.0,0.0,0.0,0.0,0.0,0.0,0.0,0.0,0.0,0.0,0.0,0.0,0.0,0.0,0.0,0.0,0.0,0.0,0.0,0.0,0.0,0.0,0.0,1.2891,0.0,0.0,0.0,0.0,0.0,0.0,0.0,0.0,0.0,0.0,0.0,1.843,2.0083,2.0111,2.0575,2.2148,2.1651,2.1377,0.0,0.0,0.0,0.0,0.0,0.0,0.0,0.0,0.0,0.0,0.0,0.0,0.0,0.0,1.8188,1.4963,1.4157,1.3741,1.3033,0.0,0.0,0.0,0.0,0.0,0.0,0.0,0.0,0.0,0.0,0.0,0.0,0.0,0.0,2.1204,2.0639,2.0112,0.0,0.0,0.0,0.0,0.0,0.0,0.0,0.0,2.2934,2.4243,2.4607,2.5523,2.5473,0.0,2.477,2.3443,0.0,0.0,0.0,0.0,0.0,0.0,0.0,0.0,1.936,2.0381,2.1934,2.2861,2.3086,2.2621,2.2879,2.3769,2.3609,2.3043,2.2314,2.1066,1.9798,0.0,0.0,0.0,0.0,0.0,0.0,0.0,0.0,0.0,0.0,0.0,0.0,0.0,0.0,0.0,0.0,0.0,0.0,0.0,0.0,0.0,0.0,0.0,1.3154,0.0,0.0,0.0,0.0,0.0,0.0,0.0,0.0,0.0,1.9033,1.9497,2.04,2.189,2.175,2.1917,2.2921,0.0,0.0,0.0,0.0,0.0,0.0,0.0,1.8599,1.9024,1.9303,1.9624,2.0037,2.1317,2.1955,2.0876,0.0,0.0,1.721,1.6362,1.6082,1.5405,1.5423,1.5293,1.4592,1.4776,1.4774,0.0,0.0,0.0,0.0,0.0,0.0,0.0,0.0,2.3088,2.2975,0.0,2.1895,0.0,0.0,0.0,0.0,2.0047,2.2138,0.0,0.0,2.6214,2.7293,2.7344,2.7833,2.7833,2.7381,2.7821,2.7218,2.5444,2.1822,0.0,0.0,0.0,0.0,0.0,0.0,2.0892,2.1301,2.2565,2.3135,2.3202,2.3257,2.3801,2.4748,2.4831,2.4054,2.251,2.187,2.0803,1.9208,1.8581,0.0,0.0,0.0,0.0,0.0,0.0,0.0,0.0,0.0,0.0,0.0,0.0,0.0,0.0,0.0,0.0,0.0,0.0,0.0,0.0,1.3506,0.0,0.0,0.0,0.0,0.0,0.0,0.0,0.0,0.0,0.0,2.0068,2.1103,2.2051,2.2471,0.0,0.0,0.0,0.0,2.2589,2.1569,2.1153,2.0569,1.9516,1.9226,1.965,2.0811,0.0,0.0,2.1884,2.2588,2.2861,2.208,2.2522,2.2403,1.9991,1.91,1.8696,1.8916,1.8485,1.7916,1.7131,1.6843,1.6521,2.6628,0.0,0.0,0.0,0.0,2.5247,2.5862,2.6992,2.6364,2.5787,2.5234,2.4657,0.0,0.0,0.0,0.0,0.0,0.0,2.4934,2.5086,2.6594,2.7695,2.8461,2.8624,2.8612,2.8473,2.8624,2.8247,2.7356,2.5822,2.3725,2.0981,0.0,0.0,0.0,0.0,2.2842,2.2904,2.3856,2.4296,2.4286,2.4054,2.4451,2.5522,2.5391,2.5146,2.4657,2.3376,2.2259,2.1393,2.0075,0.0,0.0,0.0,0.0,0.0,0.0,0.0,0.0,0.0,0.0,0.0,0.0,0.0,0.0,0.0,0.0,0.0,0.0,0.0,1.3467,1.3506,1.4053,0.0,0.0,0.0,0.0,0.0,0.0,0.0,0.0,0.0,2.1709,2.208,2.249,0.0,0.0,2.2129,2.296,2.2394,2.2031,2.2492,2.2484,0.0,2.2048,2.1717,2.172,2.237,2.2513,2.2591,2.2736,2.2892,2.3057,2.2803,2.2978,2.2862,2.2217,2.1228,2.0288,1.9569,1.9256,1.9059,1.8799,1.8725,1.8364,2.8473,2.7193,2.644,2.6502,2.7092,2.6967,2.7557,2.8586,2.8122,2.7745,2.7406,2.6841,2.5925,2.4745,2.4305,0.0,0.0,0.0,2.6457,2.6844,2.7553,2.8411,2.9239,2.9264,2.9264,2.9277,2.9277,2.9101,2.8775,2.8448,2.6889,2.4128,0.0,0.0,2.2875,2.4149,2.4653,2.4491,2.5074,2.5462,2.5452,2.5234,2.5527,2.6372,2.589,2.5586,2.5573,2.4443,2.3439,2.2661,2.1468,2.02,0.0,0.0,0.0,0.0,0.0,0.0,0.0,0.0,0.0,0.0,0.0,1.3916,1.3428,0.0,0.0,0.0,1.3691,1.4141,1.4736,1.5088,0.0,0.0,0.0,0.0,0.0,0.0,0.0,2.1328,2.1777,2.2187,2.2685,2.2764,2.2852,2.3105,2.2501,2.2306,2.296,0.0,2.2306,2.296,2.3144,2.3144,2.3135,2.292,2.2852,2.3096,2.3144,2.3144,2.3144,2.3144,2.3144,2.3144,2.3144,2.3144,2.3144,2.2492,2.1854,2.1123,2.0953,2.0773,2.0305,2.0215,1.9852,2.9917,2.9842,2.88,2.8323,2.8285,2.8787,2.8699,2.8285,2.8775,2.8988,2.8963,2.8461,2.7959,2.7419,2.6402,0.0,2.681,2.7243,2.8021,2.8988,2.9001,2.9277,2.9779,2.9779,2.9779,2.9779,2.9779,2.9779,2.9767,2.9767,2.9264,2.8235,2.7231,2.647,2.6044,2.6435,2.641,2.6018,2.64,2.6637,2.6625,2.6632,2.6881,2.7356,2.6214,2.5586,2.5573,2.5046,2.428,2.319,2.2636,2.1581,2.0024,0.0,0.0,0.0,0.0,0.0,0.0,0.0,0.0,0.0,0.0,0.0,0.0,0.0,0.0,0.0,1.5117,0.0,1.6694,1.7578,0.0,0.0,0.0,1.915,2.0068,2.0869,2.1504,2.1934,0.0,0.0,2.3144,2.3144,2.3144,2.3144,2.3144,2.3144,2.3144,2.3047,2.3144,2.3144,2.3144,2.3144,2.3144,2.3125,2.3115,2.3135,2.3144,2.3144,2.3144,2.3144,2.3144,2.3144,2.3144,2.3144,2.3144,2.3047,2.3135,2.296,2.296,2.2677,2.1667,2.1471,2.1114,3.1022,3.0984,3.0721,3.0143,2.9415,2.9528,2.9515,2.9402,2.9541,2.9591,2.9578,2.9453,2.9315,2.9176,2.8913,2.8875,2.9013,2.9139,2.9327,2.9578,2.9578,2.9666,2.9779,2.9779,2.9779,2.9779,2.9779,2.9779,2.9779,2.9779,2.9654,2.939,2.9126,2.855,2.7642,2.8064,2.805,2.7587,2.7624,2.7695,2.774,2.7721,2.7802,2.7908,2.6402,2.5586,2.5573,2.4695,2.4067,2.3778,2.2849,2.1945,2.1129,1.966,0.0,0.0,0.0,0.0,0.0,0.0,0.0,0.0,0.0,1.5498,1.4184,0.0,1.5752,0.0,1.6885,1.7471,1.7686,1.8174,0.0,0.0,2.0371,2.0703,2.2197,2.2275,2.2383,2.2793,2.3018,2.3144,2.3144,2.3144,2.3144,2.3144,2.3144,2.3144,2.3144,2.3144,2.3144,2.3144,2.3144,2.3144,2.3144,2.3144,2.3144,2.3144,2.3144,2.3144,2.3144,2.3144,2.3144,2.3144,2.3144,2.3144,2.3144,2.3144,2.3144,2.3144,2.3144,2.3047,2.2677,2.2677,2.2315,3.1386,3.1386,3.1386,3.1047,3.0482,3.0256,3.0018,2.9792,2.9779,2.9779,2.9779,2.9779,2.9779,2.9779,2.9779,2.9779,2.9779,2.9779,2.9779,2.9779,2.9779,2.9779,2.9779,2.9779,2.9779,2.9779,2.9779,2.9779,2.9779,2.9779,2.9779,2.9779,2.9779,2.9478,2.89,2.9164,2.9145,2.8858,2.8858,2.8858,2.8821,2.835,2.7996,2.772,2.6603,2.5749,2.5259,2.4895,2.4381,2.3653,2.3012,2.2322,2.1518,2.0388,1.9623,0.0,0.0,0.0,0.0,0.0,0.0,0.0,0.0,0.0,0.0,0.0,1.6826,1.7266,1.8242,1.9014,1.9414,2.0,2.083,2.1963,2.2329,2.2641,2.3037,2.3342,2.3533,2.3467,2.3428,2.3496,2.3672,2.3711,2.3711,2.3701,2.3711,2.3564,2.3125,2.3144,2.3144,2.3144,2.3144,2.3144,2.3144,2.3144,2.3144,2.3144,2.3144,2.3144,2.3144,2.3144,2.3144,2.3144,2.3144,2.3203,2.3389,2.3428,2.3477,2.3662,2.3711,2.3564,2.3223,2.3291,2.3142,3.1612,3.1599,3.1599,3.1574,3.1461,3.1009,3.047,2.9892,2.9905,2.9854,2.9779,2.9779,2.9779,2.9779,2.9779,2.9779,2.9779,2.9779,2.9779,2.9779,2.9779,2.9779,2.9779,2.9779,2.9779,2.9779,2.9779,2.9779,2.9779,2.9779,2.9779,2.9779,2.9779,2.9779,2.9779,2.9779,2.9779,2.9779,2.9779,2.9779,2.9767,2.875,2.7946,2.7394,2.6716,2.5875,2.4883,2.5184,2.4732,2.329,2.3253,2.2887,2.187,2.128,2.0941,0.0,2.0761,0.0,0.0,0.0,0.0,0.0,0.0,0.0,0.0,1.8066,1.8066,1.832,1.9551,2.0615,2.1338,2.2193,2.2896,2.3337,2.4296,2.4563,2.363,2.4313,2.464,2.3988,2.3867,2.4014,2.4326,2.4424,2.4414,2.4365,2.4346,2.4102,2.3486,2.3359,2.3369,2.3301,2.3252,2.3271,2.3271,2.3252,2.3271,2.3301,2.3291,2.3223,2.3242,2.3242,2.3242,2.3242,2.331,2.3457,2.3809,2.3877,2.3984,2.4287,2.4346,2.4131,2.3574,2.3623,2.3857,3.2754,3.2767,3.2754,3.2491,3.2051,3.1951,3.1361,3.0457,3.0457,3.0218,2.9792,2.9779,2.9779,2.9779,2.9779,2.9779,2.9779,2.9779,2.9779,2.9779,2.9779,2.9779,2.9779,2.9779,2.9779,2.9779,2.9779,2.9779,2.9779,2.9779,2.9779,2.9779,2.9779,2.9779,2.9779,0.0,0.0,0.0,2.9779,2.9779,2.9767,2.9126,2.8499,2.7934,2.6527,0.0,2.4858,2.4481,2.4155,2.3866,2.4255,0.0,0.0,0.0,0.0,0.0,0.0,0.0,0.0,0.0,0.0,0.0,2.1879,2.1246,1.9891,2.0492,2.0771,2.0195,2.1572,2.2461,2.2295,2.3527,2.4353,2.4522,2.5462,2.5877,2.5051,2.5201,2.5026,2.4421,2.4297,2.4326,2.4434,2.4424,2.4434,2.4473,2.4424,2.4355,2.4219,2.415,2.416,2.416,2.3867,2.3672,2.3672,2.3662,2.3779,2.4033,2.3877,2.3691,2.3672,2.3662,2.3662,2.3672,2.3945,2.417,2.4287,2.4297,2.4336,2.4404,2.4434,2.4365,2.4209,2.4238,2.4297,3.3483,3.3458,3.3181,3.2905,0.0,3.2641,3.2164,3.1386,3.111,3.0846,3.0595,3.0583,3.0444,3.0206,3.0206,3.0055,2.9792,2.9779,2.9779,2.9779,2.9779,2.9779,2.9779,2.9779,2.9779,2.9779,2.9779,2.9779,2.9779,2.9779,2.9779,2.9779,2.9779,2.9779,2.9779,2.9779,2.9779,2.9779,2.9779,2.9779,2.9767,2.9227,2.8662,2.8109,2.7281,0.0,0.0,0.0,0.0,0.0,0.0,0.0,0.0,0.0,0.0,2.3552,2.3555,2.3367,2.3158,2.3989,2.4635,2.4773,2.5062,2.4395,2.2402,2.3225,2.3671,2.3229,2.4147,2.4724,2.4514,2.5176,2.5728,2.6029,2.6986,2.744,2.6867,2.6693,2.637,2.5727,2.5089,2.4805,2.5039,2.5068,2.5068,2.5068,2.5059,2.5059,2.5019,2.4678,2.4424,2.4414,2.4258,2.4102,2.4102,2.4102,2.416,2.4336,2.4238,2.4121,2.4102,2.4102,2.4102,2.4111,2.4277,2.4463,2.4697,2.4736,2.4795,2.501,2.5068,2.5068,2.5059,2.4893,2.4736,3.4035,3.3997,3.3458,3.3232,3.3219,3.3119,3.2805,3.2315,3.1662,0.0,0.0,3.1386,3.116,3.0758,3.0746,3.0507,3.008,3.008,3.008,3.0068,3.008,3.008,3.0068,3.008,3.008,3.008,3.008,3.0068,3.0068,3.008,3.0018,2.9942,2.993,2.9892,2.9792,2.9779,2.9779,2.9779,2.9779,2.9779,2.9779,2.9327,2.8812,2.826,2.8147,2.7406,2.5975,2.6352,2.5988,2.4669,2.4669,2.4682,2.4582,2.4669,2.4883,2.5259,2.6201,2.654,2.6101,2.7419,2.8097,2.7745,2.7763,2.7008,2.5279,2.5622,2.5936,2.5947,2.6318,2.6517,2.6595,2.6854,2.713,2.7713,2.868,2.9142,2.8591,2.8411,2.7988,2.7091,2.6194,2.5589,2.5635,2.5684,2.5732,2.5723,2.5654,2.5732,2.5654,2.5137,2.4697,2.459,2.4551,2.4531,2.4531,2.4531,2.456,2.4697,2.4619,2.4531,2.4531,2.4531,2.4531,2.4531,2.459,2.4824,2.5107,2.5185,2.5312,2.5664,2.5732,2.5732,2.5703,2.5449,2.5195,3.46,3.4562,3.401,3.3784,3.3746,3.3282,3.3031,3.2867,3.1851,3.1386,3.1386,3.1386,3.1348,3.1273,3.1286,3.1235,3.1173,3.1173,3.116,3.116,3.1173,3.1173,3.1173,3.1173,3.116,3.1173,3.116,3.1173,3.116,3.1148,3.0947,3.0545,3.0495,3.0269,2.9829,2.9779,2.9779,2.9779,2.9779,2.9779,2.9779,2.9716,2.9402,2.8837,2.836,2.7795,2.7092,2.713,2.7067,2.6854,2.7268,2.7318,2.6866,2.7231,2.7356,2.7017,2.7519,2.7833,2.777,2.8411,2.8988,2.939,2.9424,2.8922,2.7707,2.6852,2.6371,2.6382,2.6603,2.6745,2.7116,2.8008,2.8811,2.9391,3.0416,3.079,3.0174,2.9973,2.937,2.7846,2.74,2.6737,2.5984,2.582,2.583,2.5732,2.5732,2.5732,2.5713,2.5644,2.5391,2.5078,2.4971,2.498,2.498,2.498,2.5107,2.5508,2.5195,2.498,2.4971,2.498,2.498,2.4971,2.5234,2.5488,2.5605,2.5644,2.5644,2.5732,2.5732,2.5732,2.5732,2.5654,2.5615,3.5177,3.5102,3.4575,3.4349,3.4311,3.3759,3.3345,3.3043,3.2541,3.2303,3.2303,3.2303,3.2127,3.1851,3.1838,3.1662,3.1386,3.1386,3.1386,3.1386,3.1386,3.1386,3.1386,3.1386,3.1386,3.1386,3.1386,3.1386,3.1386,3.1386,3.1273,3.1022,3.0771,3.0482,3.0244,2.9942,2.9779,2.9779,2.9779,2.9779,2.9779,2.9779,2.9666,2.939,2.9139,2.8762,2.821,2.8172,2.8047,2.7733,2.7971,2.7996,2.7758,2.7971,2.7984,2.777,2.8247,2.8561,2.8561,2.9076,2.9503,2.9767,2.9779,2.9611,2.9028,2.8621,2.8291,2.8315,2.8542,2.8817,2.9068,2.9825,3.0462,3.1001,3.1577,3.1801,3.1749,3.1228,3.0507,2.9636,2.8958,2.8132,2.6849,2.6754,2.639,2.5917,2.5732,2.5742,2.5752,2.5742,2.5684,2.5469,2.5439,2.543,2.543,2.543,2.5518,2.5713,2.5576,2.5449,2.543,2.543,2.543,2.543,2.5615,2.5713,2.5732,2.5732,2.5732,2.5732,2.5732,2.5732,2.5732,2.5732,2.5732,3.5742,3.5667,3.514,3.4839,3.4688,3.4274,3.3771,3.3282,3.3257,3.3194,3.3093,3.3081,3.283,3.2428,3.2403,3.2164,3.1813,3.1775,3.1788,3.1775,3.1775,3.1775,3.1845,3.1997,3.1997,3.1845,3.1997,3.1997,3.1858,3.1775,3.17,3.1537,3.1047,3.0796,3.0771,3.0244,2.998,2.9967,2.9854,2.9779,2.9779,2.9779,2.9779,2.9779,2.9779,2.9578,2.9164,2.9126,2.8925,2.8524,2.8486,2.8486,2.8486,2.8486,2.8486,2.8536,2.8875,2.9126,2.9151,2.9528,2.9779,2.9779,2.9779,2.9779,2.9779,2.9779,2.9779,2.9842,3.019,3.0566,3.0766,3.1192,3.18,3.2315,3.2416,3.2579,3.2907,3.2239,3.15,3.1223,3.0395,2.9315,2.8319,2.7767,2.7092,2.6162,2.5889,2.5908,2.5996,2.6025,2.6016,2.5889,2.581,2.5713,2.5732,2.5713,2.5713,2.5732,2.5723,2.5693,2.5703,2.5723,2.5723,2.5703,2.5713,2.5732,2.5732,2.5732,2.5732,2.5732,2.5732,2.5732,2.5732,2.5732,2.5732,3.6282,3.6207,3.5692,3.5177,3.4751,3.4675,3.4336,3.3859,3.3822,3.3533,3.3156,3.3081,3.3056,3.3006,3.298,3.293,3.2867,3.2918,3.2893,3.288,3.2918,3.2918,3.3025,3.3913,3.3869,3.3195,3.3887,3.3765,3.2975,3.294,3.2641,3.2139,3.1587,3.1323,3.126,3.0796,3.0532,3.052,3.0055,2.9779,2.9779,2.9779,2.9779,2.9779,2.9779,2.9779,2.9679,2.9716,2.9691,2.9654,2.9591,2.9616,2.9616,2.9628,2.9616,2.9603,2.9666,2.9716,2.9704,2.9767,2.9779,2.9779,2.9779,2.9779,2.9792,2.9804,2.9792,2.9905,3.0306,3.0821,3.1286,3.1813,3.2353,3.283,3.2943,3.3031,3.3056,3.2982,3.2525,3.1311,3.1134,3.0586,2.9407,2.8341,2.7321,2.6419,2.6299,2.6426,2.6689,2.6758,2.665,2.6348,2.6025,2.5791,2.5752,2.5732,2.5732,2.5732,2.5732,2.5732,2.5732,2.5732,2.5732,2.5732,2.5732,2.5732,2.5732,2.5732,2.5771,2.583,2.581,2.5771,2.5742,2.5781,2.5801,3.6659,3.6345,3.6119,3.5705,3.524,3.5215,3.4889,3.4412,3.4387,3.4248,3.4022,3.3721,3.3382,3.3093,3.3081,3.3081,3.3081,3.3081,3.3081,3.3167,3.3713,3.4037,3.4178,3.5116,3.5359,3.487,3.4815,3.4511,3.4037,3.3398,3.2943,3.2692,3.2164,3.1876,3.1838,3.1336,3.0922,3.062,3.0394,3.0131,2.9829,2.9779,2.9779,2.9779,2.9779,2.9779,2.9779,2.9779,2.9779,2.9779,2.9779,2.9779,2.9779,2.9779,2.9779,2.9779,2.9779,2.9779,2.9779,2.9779,2.9779,2.9779,2.9779,2.9779,2.9804,3.008,3.0281,3.0344,3.0758,3.1286,3.1825,3.239,3.283,3.3043,3.3081,3.3081,3.3081,3.3081,3.2884,3.2426,3.2339,3.1777,3.0543,2.9014,2.7579,2.6685,2.6582,2.6855,2.7012,2.7012,2.6943,2.6787,2.6592,2.6269,2.5889,2.5732,2.5732,2.5732,2.5732,2.5732,2.5752,2.5732,2.5732,2.5752,2.5791,2.5791,2.5732,2.5977,2.6123,2.6123,2.6143,2.6182,2.6435,2.6299,2.624,3.7086,3.6596,3.6433,3.6132,3.578,3.5768,3.5454,3.4977,3.4951,3.4864,3.4688,3.4286,3.3922,3.352,3.3232,3.3081,3.3081,3.3081,3.3227,3.3556,3.4345,3.4815,3.521,3.6146,3.629,3.5814,3.5359,3.4815,3.4275,3.3569,3.3081,3.3006,3.2641,3.2441,3.239,3.1901,3.1436,3.1085,3.0922,3.0557,3.0105,3.0018,2.9942,2.9817,2.9779,2.9779,2.9779,2.9779,2.9779,2.9779,2.9779,2.9779,2.9779,2.9779,2.9779,2.9779,2.9779,2.9779,2.9779,2.9779,2.9779,2.9804,2.9905,3.0005,3.0105,3.052,3.0884,3.1085,3.1386,3.18,3.2164,3.2742,3.3068,3.3081,3.3081,3.3081,3.3081,3.3081,3.3081,3.3081,3.2982,3.2487,3.109,2.962,2.8313,2.7141,2.7021,2.7266,2.7334,2.7393,2.7353,2.7217,2.7187,2.6826,2.6103,2.5957,2.5898,2.5742,2.5732,2.5781,2.5869,2.5918,2.6045,2.624,2.6103,2.6113,2.625,2.6455,2.6572,2.6572,2.6582,2.665,2.6846,2.6709,2.6719,3.7651,3.7098,3.6584,3.6383,3.632,3.6295,3.6006,3.5516,3.5424,3.524,3.4839,3.47,3.4675,3.455,3.3608,3.3119,3.3119,3.3169,3.3658,3.445,3.4743,3.5237,3.6212,3.7175,3.6738,3.544,3.5762,3.5034,3.3313,3.3167,3.3081,3.3068,3.3018,3.3018,3.293,3.2441,3.2164,3.2001,3.1599,3.1097,3.0645,3.057,3.0331,2.9942,2.9792,2.9779,2.9779,2.9779,2.9779,2.9779,2.9779,2.9779,2.9779,2.9779,2.9779,2.9779,2.9779,2.9779,2.9779,2.9817,2.9829,2.988,3.0306,3.0583,3.0608,3.1047,3.1524,3.2051,3.2102,3.2215,3.2303,3.2767,3.3068,3.3081,3.3081,3.3081,3.3081,3.3131,3.3093,3.3131,3.3206,3.2394,3.0512,2.9996,2.918,2.8086,2.7598,2.7744,2.8018,2.8154,2.7988,2.7734,2.7578,2.7344,2.6582,2.6367,2.6182,2.6064,2.6045,2.5937,2.6172,2.6406,2.6592,2.6748,2.6728,2.6777,2.6904,2.6982,2.7021,2.7031,2.7012,2.71,2.7305,2.71,2.7109,3.8228,3.7663,3.7123,3.6885,3.6847,3.6521,3.6232,3.6069,3.6081,3.5968,3.573,3.5403,3.5253,3.5215,3.4462,3.4135,3.4135,3.4135,3.4388,3.4876,3.6196,3.7003,3.7425,3.8804,3.8768,3.7414,3.6563,3.5116,3.3313,3.3081,3.3081,3.3081,3.3081,3.3081,3.3031,3.2867,3.2591,3.2227,3.2014,3.165,3.1173,3.111,3.1009,3.0796,3.0143,2.9779,2.9779,2.9779,2.9779,2.9779,2.9779,2.9779,2.9779,2.9779,2.9779,2.9779,2.9779,2.9779,2.9829,3.0131,3.0319,3.0357,3.0809,3.111,3.1198,3.1599,3.2014,3.2227,3.2591,3.2742,3.2792,3.2955,3.3081,3.3081,3.3081,3.3081,3.3156,3.337,3.3596,3.3658,3.3884,3.3174,3.1341,3.0767,3.0033,2.8211,2.79,2.8105,2.8232,2.8301,2.8223,2.8115,2.8057,2.7871,2.7334,2.6943,2.6728,2.666,2.6611,2.6621,2.6768,2.6797,2.6943,2.7051,2.7129,2.7158,2.7197,2.7363,2.7422,2.7656,2.7627,2.7549,2.7793,2.7559,2.7598,3.8642,3.8228,3.7676,3.745,3.7374,3.686,3.6621,3.6609,3.6445,3.637,3.6282,3.5956,3.5818,3.5755,3.5416,3.5514,3.571,3.5481,3.5631,3.6479,3.7909,3.8816,3.923,4.018,3.9988,3.8416,3.6415,3.469,3.3467,3.3156,3.3081,3.3081,3.3081,3.3081,3.3081,3.3081,3.2867,3.2541,3.2491,3.2215,3.1738,3.165,3.1549,3.1323,3.067,3.0218,3.0068,2.9892,2.9779,2.9779,2.9779,2.9779,2.9779,2.9779,2.9779,2.9792,2.9967,3.0055,3.0118,3.0557,3.0859,3.0896,3.1336,3.1662,3.1687,3.2164,3.2441,3.2591,3.2805,3.3081,3.3081,3.3081,3.3081,3.3081,3.3081,3.3081,3.3119,3.3571,3.3935,3.4173,3.4437,3.3477,3.1689,3.139,3.0252,2.8242,2.8125,2.8281,2.8301,2.8301,2.8301,2.8291,2.8271,2.8154,2.7871,2.7607,2.7158,2.7031,2.6982,2.707,2.7217,2.7226,2.7275,2.7363,2.7402,2.7412,2.751,2.7695,2.793,2.8203,2.8115,2.7939,2.8018,2.8018,2.7998,3.8894,3.8793,3.8253,3.8015,3.7939,3.7425,3.7186,3.7048,3.6621,3.6433,3.6358,3.632,3.627,3.6307,3.6194,3.6887,3.7533,3.6999,3.7596,3.9244,3.9714,4.0299,4.1136,4.1124,4.0017,3.7883,3.5323,3.4073,3.3872,3.342,3.3169,3.3131,3.3093,3.3081,3.3081,3.3081,3.3068,3.3006,3.2993,3.2754,3.229,3.2215,3.2014,3.1574,3.1399,3.1135,3.0683,3.0143,2.9842,2.9792,2.9779,2.9779,2.9792,2.9842,2.9829,2.9942,3.0331,3.0595,3.067,3.1085,3.1399,3.1474,3.1901,3.2215,3.229,3.2679,3.2993,3.2993,3.3031,3.3081,3.3081,3.3081,3.3081,3.3081,3.3081,3.3081,3.3232,3.3608,3.4148,3.4663,3.4707,3.3732,3.2236,3.1373,3.0456,2.8835,2.8262,2.8301,2.8301,2.8301,2.8301,2.8301,2.8301,2.8232,2.8252,2.8223,2.7725,2.7324,2.7285,2.7314,2.7578,2.7676,2.7754,2.7842,2.7891,2.79,2.7891,2.8047,2.8096,2.8271,2.8223,2.8203,2.8184,2.8174,2.8213,3.9433,3.9371,3.8831,3.8592,3.853,3.799,3.755,3.7186,3.6985,3.6722,3.6408,3.637,3.637,3.637,3.6452,3.6977,3.8068,3.86,3.9233,3.9887,4.0639,4.1146,4.1331,4.1062,3.9456,3.7008,3.5225,3.4474,3.4374,3.3909,3.3646,3.3596,3.3269,3.3093,3.3106,3.3081,3.3081,3.3081,3.3081,3.2968,3.2817,3.2805,3.2704,3.2541,3.2177,3.1863,3.1687,3.0846,3.0193,2.9842,2.9779,2.9779,2.9854,3.0143,3.0344,3.0419,3.0859,3.1148,3.121,3.1637,3.1964,3.2051,3.2478,3.2767,3.2805,3.2955,3.3081,3.3081,3.3081,3.3081,3.3081,3.3081,3.3119,3.3093,3.3081,3.3282,3.3721,3.4449,3.5228,3.5637,3.508,3.3776,3.235,3.1493,3.0129,2.8638,2.8301,2.8301,2.8301,2.8301,2.8301,2.8301,2.8301,2.8301,2.8301,2.8301,2.8047,2.7764,2.7705,2.7646,2.7881,2.8027,2.8135,2.8193,2.8262,2.8301,2.8301,2.8301,2.8301,2.8301,2.8271,2.8271,2.8291,2.8301,2.8301,3.9697,3.9659,3.932,3.917,3.9107,3.8567,3.8002,3.75,3.7262,3.6885,3.6433,3.637,3.637,3.637,3.637,3.707,3.8121,3.936,4.0145,4.0675,4.1684,4.185,4.0958,4.0097,3.8869,3.7039,3.5621,3.5027,3.5002,3.45,3.4198,3.4123,3.3847,3.3583,3.3407,3.337,3.3307,3.3131,3.3081,3.3081,3.3081,3.3081,3.3081,3.3018,3.2729,3.2428,3.2202,3.1549,3.0959,3.0495,3.0394,3.0394,3.0419,3.0721,3.0896,3.0997,3.1361,3.17,3.1738,3.2215,3.2528,3.2604,3.2867,3.3056,3.3081,3.3081,3.3081,3.3081,3.3081,3.3169,3.3345,3.3395,3.3458,3.3684,3.352,3.3746,3.4399,3.5102,3.5717,3.5931,3.5222,3.3859,3.2443,3.1133,2.9807,2.8591,2.8301,2.8301,2.8301,2.8301,2.8301,2.8301,2.8301,2.8301,2.8301,2.8301,2.8301,2.8223,2.8164,2.8105,2.8184,2.8193,2.8252,2.8252,2.8291,2.8301,2.8301,2.8301,2.8301,2.8301,2.8301,2.8301,2.8301,2.8301,2.8301,3.9697,3.9697,3.9697,3.9659,3.9584,3.912,3.8542,3.7952,3.7487,3.6935,3.6471,3.637,3.637,3.637,3.637,3.6989,3.803,3.9094,3.9871,4.0901,4.1864,4.1684,3.9858,3.8822,3.8129,3.7547,3.6218,3.5604,3.5567,3.5039,3.4763,3.4763,3.4625,3.4449,3.401,3.3922,3.3621,3.3257,3.3131,3.3081,3.3081,3.3081,3.3081,3.3081,3.3018,3.2805,3.2403,3.2227,3.1926,3.1461,3.1248,3.1223,3.1336,3.1399,3.1449,3.1474,3.1951,3.2202,3.2378,3.2679,3.2993,3.2993,3.3031,3.3081,3.3081,3.3081,3.3081,3.3093,3.3156,3.337,3.3746,3.3922,3.4161,3.4587,3.4336,3.4537,3.5328,3.5554,3.5893,3.6031,3.5162,3.3761,3.2342,3.103,2.9608,2.8698,2.8301,2.8301,2.8301,2.8301,2.8301,2.8301,2.8301,2.8301,2.8301,2.8301,2.8301,2.8301,2.8301,2.8301,2.8301,2.8301,2.8301,2.8301,2.8301,2.8301,2.8301,2.8301,2.8301,2.8301,2.8301,2.8301,2.8301,2.8301,2.8301,3.9697,3.9697,3.9697,3.9697,3.9685,3.9521,3.8906,3.8052,3.7864,3.7224,3.6533,3.637,3.637,3.637,3.637,3.6628,3.715,3.8121,3.8121,3.8121,3.9871,3.9958,3.8827,3.8289,3.7678,3.6951,3.6463,3.6144,3.6107,3.5592,3.5341,3.5303,3.4964,3.47,3.4474,3.4123,3.3859,3.3633,3.3257,3.3081,3.3081,3.3081,3.3081,3.3081,3.3081,3.3006,3.2855,3.2842,3.2365,3.1486,3.1386,3.1386,3.1486,3.1788,3.2001,3.2077,3.2491,3.2842,3.2867,3.298,3.3081,3.3081,3.3081,3.3081,3.3081,3.3081,3.3081,3.3156,3.3407,3.3746,3.396,3.4299,3.4751,3.5203,3.5152,3.519,3.5542,3.5906,3.6219,3.6143,3.4362,3.2944,3.2039,3.0421,2.89,2.8398,2.8301,2.8301,2.8301,2.8301,2.8301,2.8301,2.8301,2.8301,2.8301,2.8301,2.8301,2.8301,2.8301,2.8301,2.8301,2.8301,2.8301,2.8301,2.8301,2.8301,2.8301,2.8301,2.8301,2.8301,2.8301,2.8301,2.8301,2.8301,2.8301,3.9697,3.9697,3.9697,3.9697,3.9697,3.9697,3.9057,3.8153,3.7977,3.7387,3.6546,3.637,3.637,3.637,3.637,3.637,3.6534,3.7586,3.7756,3.7599,3.9183,3.9183,3.8379,3.8107,3.7507,3.6546,3.637,3.6358,3.6307,3.6031,3.5906,3.5843,3.5567,3.5303,3.5039,3.4525,3.4098,3.3847,3.3382,3.3081,3.3081,3.3081,3.3081,3.3081,3.3081,3.3081,3.3081,3.3081,3.2742,3.224,3.2114,3.2102,3.2114,3.2378,3.2579,3.2591,3.2918,3.3068,3.3081,3.3081,3.3081,3.3081,3.3081,3.3081,3.3144,3.3257,3.342,3.3483,3.3935,3.4299,3.4638,3.5077,3.5516,3.5818,3.5893,3.5881,3.5893,3.6157,3.6332,3.575,3.4142,3.2331,3.223,2.9911,2.8708,2.8301,2.8301,2.8301,2.8301,2.8301,2.8301,2.8301,2.8301,2.8301,2.8301,2.8301,2.8301,2.8301,2.8301,2.8301,2.8301,2.8301,2.8301,2.8301,2.8301,2.8301,2.8301,2.8301,2.8301,2.8301,2.8301,2.8301,2.8301,2.8301,2.8301,3.9697,3.9697,3.9697,3.9697,3.9697,3.9685,3.9044,3.8128,3.8002,3.7387,3.6533,3.637,3.637,3.637,3.637,3.637,3.6452,3.7322,3.7861,3.8211,3.9006,3.9006,3.8198,3.8107,3.7402,3.6546,3.637,3.637,3.6345,3.6332,3.6345,3.627,3.627,3.6069,3.5554,3.5002,3.4462,3.401,3.3407,3.3093,3.3081,3.3081,3.3081,3.3081,3.3081,3.3081,3.3081,3.3081,3.3018,3.3056,3.3081,3.2968,3.2993,3.3043,3.3043,3.3006,3.3043,3.3081,3.3081,3.3081,3.3081,3.3093,3.3144,3.3156,3.3319,3.3671,3.3985,3.3985,3.4474,3.4989,3.5491,3.6044,3.6207,3.6257,3.6307,3.6345,3.637,3.637,3.637,3.6263,3.3934,3.2532,3.1622,3.0214,2.8301,2.8301,2.8301,2.8301,2.8301,2.8301,2.8301,2.8301,2.8301,2.8301,2.8301,2.8301,2.8301,2.8301,2.8301,2.8301,2.8301,2.8301,2.8301,2.8301,2.8301,2.8301,2.8301,2.8301,2.8301,2.8301,2.8301,2.8301,2.8301,2.8301,2.8301,3.9697,3.9697,3.9697,3.9697,3.9697,3.9672,3.9044,3.8027,3.8002,3.7387,3.6546,3.637,3.637,3.637,3.637,3.637,3.637,3.6803,3.715,3.8121,3.8289,3.8379,3.8107,3.8107,3.7494,3.6628,3.637,3.637,3.637,3.637,3.637,3.637,3.6358,3.6307,3.6069,3.5228,3.4688,3.4387,3.3596,3.3119,3.3081,3.3081,3.3081,3.3081,3.3081,3.3081,3.3081,3.3081,3.3081,3.3081,3.3081,3.3081,3.3081,3.3081,3.3081,3.3081,3.3081,3.3081,3.3081,3.3081,3.3093,3.3169,3.3445,3.3734,3.3759,3.4223,3.4512,3.4638,3.5052,3.5579,3.6044,3.627,3.6358,3.637,3.637,3.637,3.637,3.637,3.637,3.5858,3.4044,3.2331,3.2129,2.9911,2.8601,2.8398,2.8301,2.8301,2.8301,2.8301,2.8301,2.8301,2.8301,2.8301,2.8301,2.8301,2.8301,2.8301,2.8301,2.8301,2.8301,2.8301,2.8301,2.8301,2.8301,2.8301,2.8301,2.8301,2.8301,2.8301,2.8301,2.8301,2.8301,2.8301,2.8301,3.9697,3.9697,3.9697,3.9697,3.9697,3.9672,3.9044,3.814,3.8002,3.7387,3.6533,3.637,3.637,3.637,3.637,3.637,3.637,3.6465,3.7335,3.8482,3.8559,3.8482,3.8738,3.8289,3.7494,3.6546,3.637,3.637,3.637,3.637,3.637,3.637,3.637,3.6358,3.6282,3.5516,3.5002,3.4613,3.3909,3.3357,3.3131,3.3081,3.3081,3.3081,3.3081,3.3081,3.3081,3.3081,3.3081,3.3081,3.3081,3.3081,3.3081,3.3081,3.3081,3.3081,3.3081,3.3081,3.3081,3.3093,3.3194,3.3458,3.3759,3.401,3.4324,3.4788,3.5077,3.5215,3.5579,3.6069,3.6332,3.637,3.637,3.637,3.637,3.637,3.637,3.637,3.637,3.5858,3.4032,3.2733,3.1531,2.9713,2.8698,2.8291,2.8301,2.8301,2.8301,2.8301,2.8301,2.8301,2.8301,2.8301,2.8301,2.8301,2.8301,2.8301,2.8301,2.8301,2.8301,2.8301,2.8301,2.8301,2.8301,2.8301,2.8301,2.8301,2.8301,2.8301,2.8301,2.8301,2.8301,2.8301,2.8301,3.9697,3.9697,3.9697,3.9697,3.9697,3.9685,3.9057,3.809,3.8002,3.7387,3.6508,3.637,3.637,3.637,3.637,3.6452,3.6722,3.6896,3.7952,3.9784,3.8649,3.8827,3.9183,3.8392,3.7335,3.6452,3.637,3.637,3.637,3.637,3.637,3.637,3.637,3.637,3.6245,3.5818,3.5316,3.4889,3.4349,3.3771,3.337,3.3257,3.3232,3.3081,3.3081,3.3081,3.3081,3.3081,3.3081,3.3081,3.3081,3.3081,3.3081,3.3081,3.3081,3.3081,3.3081,3.3156,3.3282,3.3307,3.347,3.396,3.4173,3.4387,3.4851,3.5316,3.5604,3.578,3.6044,3.6295,3.637,3.637,3.637,3.637,3.637,3.637,3.637,3.637,3.637,3.6061,3.4142,3.2532,3.1429,3.0016,2.9102,2.8301,2.8301,2.8301,2.8301,2.8291,2.8291,2.8291,2.8301,2.8301,2.8301,2.8301,2.8301,2.8301,2.8301,2.8301,2.8301,2.8301,2.8301,2.8301,2.8301,2.8301,2.8301,2.8301,2.8301,2.8301,2.8301,2.8301,2.8301,2.8301,2.8301,3.9697,3.9697,3.9697,3.9697,3.9697,3.9685,3.9032,3.8115,3.7977,3.7387,3.6458,3.637,3.637,3.637,3.637,3.6896,3.7322,3.7494,3.8725,4.0204,3.9067,3.8649,3.9094,3.7782,3.6709,3.6452,3.637,3.637,3.637,3.637,3.637,3.637,3.637,3.637,3.6219,3.5855,3.5554,3.5278,3.4826,3.4311,3.3809,3.3596,3.342,3.3131,3.3081,3.3081,3.3081,3.3081,3.3081,3.3081,3.3081,3.3081,3.3106,3.3106,3.3144,3.3156,3.3169,3.3332,3.3684,3.3771,3.406,3.4525,3.4901,3.519,3.5491,3.5843,3.6081,3.6182,3.6245,3.637,3.637,3.637,3.637,3.637,3.637,3.637,3.637,3.637,3.637,3.6168,3.4142,3.223,3.1327,3.0317,2.89,2.8301,2.8301,2.8301,2.8301,2.8398,2.8504,2.8398,2.8301,2.8301,2.8301,2.8301,2.8301,2.8301,2.8301,2.8301,2.8301,2.8301,2.8301,2.8301,2.8301,2.8301,2.8301,2.8301,2.8301,2.8301,2.8301,2.8301,2.8301,2.8301,2.8301,3.9697,3.9697,3.9697,3.9697,3.9647,3.9383,3.8793,3.8027,3.7701,3.7123,3.6546,3.637,3.637,3.637,3.637,3.6803,3.715,3.723,3.8185,3.9067,3.8107,3.7861,3.8738,3.7163,3.664,3.637,3.637,3.637,3.637,3.637,3.637,3.637,3.637,3.637,3.6332,3.6132,3.5805,3.5567,3.5265,3.4738,3.3947,3.3684,3.3307,3.3169,3.3081,3.3081,3.3081,3.3081,3.3081,3.3081,3.3081,3.3081,3.3156,3.3332,3.3495,3.352,3.352,3.3746,3.4211,3.4349,3.4587,3.5077,3.5441,3.5692,3.5918,3.6182,3.6358,3.637,3.637,3.637,3.637,3.637,3.637,3.637,3.637,3.637,3.637,3.637,3.637,3.6156,3.4044,3.2532,3.1825,3.0514,2.8804,2.8301,2.8398,2.8398,2.8495,2.89,2.9207,2.8804,2.8804,2.8601,2.8495,2.8398,2.8291,2.8301,2.8301,2.8301,2.8301,2.8301,2.8301,2.8301,2.8301,2.8301,2.8301,2.8301,2.8301,2.8301,2.8301,2.8301,2.8301,2.8301,2.8301,3.9697,3.9697,3.9697,3.9634,3.9471,3.9069,3.8479,3.7852,3.7387,3.6897,3.6408,3.637,3.637,3.637,3.6465,3.6546,3.6709,3.679,3.7678,3.8392,3.7599,3.7415,3.7586,3.7057,3.637,3.637,3.637,3.637,3.637,3.637,3.637,3.637,3.637,3.637,3.6345,3.6295,3.6031,3.5868,3.568,3.514,3.4211,3.3445,3.3081,3.3081,3.3081,3.3081,3.3081,3.3081,3.3081,3.3081,3.3093,3.3119,3.3294,3.3658,3.3997,3.4173,3.4135,3.4387,3.4726,3.4889,3.5127,3.5655,3.5705,3.5968,3.6169,3.632,3.637,3.637,3.637,3.637,3.637,3.637,3.637,3.637,3.637,3.637,3.637,3.637,3.637,3.5547,3.3737,3.3032,3.2733,3.0514,2.8804,2.9608,2.9713,2.9702,2.9911,3.0411,3.0514,2.9702,2.9303,2.9006,2.8804,2.8495,2.8398,2.8301,2.8301,2.8301,2.8301,2.8301,2.8301,2.8301,2.8301,2.8301,2.8301,2.8301,2.8301,2.8301,2.8301,2.8301,2.8301,2.8301,2.8301,3.9697,3.9697,3.9697,3.9421,3.9007,3.8881,3.8253,3.7349,3.7199,3.686,3.637,3.637,3.637,3.637,3.637,3.6977,3.7494,3.7678,3.8043,3.8662,3.8043,3.7586,3.7848,3.6883,3.6452,3.637,3.637,3.637,3.637,3.637,3.637,3.637,3.637,3.637,3.637,3.637,3.6332,3.6257,3.6219,3.5692,3.4675,3.3684,3.3269,3.3181,3.3194,3.3181,3.3206,3.3181,3.3144,3.3081,3.3093,3.3332,3.3709,3.3834,3.4474,3.4889,3.5014,3.4864,3.5341,3.5454,3.5617,3.6056,3.6194,3.6295,3.6345,3.637,3.637,3.637,3.637,3.637,3.637,3.6383,3.637,3.642,3.6483,3.6458,3.6433,3.637,3.637,3.5966,3.4557,3.4264,3.4068,3.1235,2.9006,3.0214,3.1019,3.1019,3.1122,3.1418,3.2028,3.1429,3.0411,3.0016,2.9408,2.9102,2.8591,2.8398,2.8301,2.8301,2.8301,2.8301,2.8301,2.8301,2.8301,2.8301,2.8301,2.8301,2.8301,2.8301,2.8301,2.8301,2.8301,2.8301,2.8301,3.9697,3.9697,3.9697,3.9383,3.8856,3.853,3.7927,3.7236,3.6847,3.6584,3.6395,3.637,3.637,3.637,3.637,3.6628,3.707,3.715,3.7335,3.7874,3.752,3.7163,3.6964,3.6615,3.6465,3.637,3.637,3.637,3.637,3.637,3.637,3.637,3.637,3.637,3.637,3.637,3.637,3.6257,3.6044,3.568,3.5115,3.4474,3.3997,3.3997,3.3972,3.3809,3.3608,3.3545,3.3357,3.3257,3.3319,3.3621,3.4022,3.4449,3.5115,3.5391,3.5655,3.5768,3.5981,3.5994,3.6132,3.6257,3.637,3.6358,3.637,3.637,3.637,3.637,3.637,3.6383,3.6471,3.6659,3.6784,3.6822,3.6772,3.6772,3.6697,3.642,3.6263,3.587,3.5475,3.5271,3.4872,3.2944,3.1122,3.152,3.2129,3.2028,3.1927,3.1927,3.2644,3.3353,3.2241,3.1122,3.0421,2.9807,2.8996,2.8698,2.8301,2.8301,2.8301,2.8301,2.8301,2.8301,2.8301,2.8301,2.8301,2.8301,2.8301,2.8301,2.8301,2.8301,2.8301,2.8301,2.8301,3.9697,3.9697,3.9697,3.9295,3.863,3.8191,3.76,3.6948,3.6558,3.637,3.637,3.637,3.637,3.637,3.637,3.6452,3.6452,3.637,3.637,3.637,3.637,3.6452,3.6546,3.6465,3.637,3.637,3.637,3.637,3.637,3.637,3.637,3.637,3.637,3.637,3.637,3.637,3.637,3.632,3.5855,3.5579,3.5391,3.4964,3.4726,3.4688,3.4675,3.4512,3.4186,3.411,3.3847,3.3759,3.3897,3.4198,3.4512,3.5027,3.5516,3.5793,3.6056,3.6219,3.6282,3.6295,3.6358,3.637,3.637,3.637,3.637,3.637,3.637,3.637,3.637,3.642,3.6609,3.6973,3.7174,3.7236,3.7224,3.7224,3.7098,3.6671,3.6383,3.6168,3.587,3.5858,3.5259,3.4338,3.3528,3.333,3.3231,3.3044,3.3044,3.3132,3.3749,3.4666,3.3662,3.2443,3.1327,3.0514,2.9702,2.89,2.8495,2.8301,2.8301,2.8301,2.8301,2.8301,2.8301,2.8301,2.8301,2.8301,2.8301,2.8301,2.8301,2.8301,2.8301,2.8301,2.8301,3.9697,3.9697,3.9685,3.9057,3.809,3.8027,3.74,3.6521,3.6395,3.637,3.637,3.637,3.637,3.637,3.637,3.637,3.637,3.637,3.637,3.637,3.637,3.637,3.637,3.637,3.637,3.637,3.637,3.637,3.637,3.637,3.637,3.637,3.637,3.637,3.637,3.637,3.637,3.6282,3.5893,3.5655,3.5504,3.519,3.4889,3.4851,3.4788,3.47,3.4675,3.4663,3.455,3.4424,3.4575,3.4826,3.514,3.5479,3.5843,3.6132,3.6257,3.637,3.637,3.637,3.637,3.637,3.637,3.637,3.637,3.637,3.637,3.6395,3.6458,3.6684,3.6923,3.7236,3.7638,3.7726,3.7688,3.7437,3.7186,3.6671,3.642,3.637,3.6263,3.6156,3.6156,3.5246,3.5041,3.4836,3.4545,3.4362,3.4957,3.515,3.5451,3.5763,3.4981,3.3761,3.2443,3.1429,3.0411,2.9303,2.8591,2.8398,2.8301,2.8301,2.8301,2.8301,2.8301,2.8301,2.8301,2.8301,2.8301,2.8301,2.8301,2.8301,2.8301,2.8301,2.8301,3.9697,3.9672,3.9333,3.873,3.7977,3.7638,3.7073,3.6445,3.637,3.637,3.637,3.637,3.637,3.637,3.637,3.637,3.637,3.637,3.637,3.637,3.637,3.637,3.637,3.637,3.637,3.637,3.637,3.637,3.637,3.637,3.637,3.637,3.637,3.637,3.637,3.637,3.637,3.6332,3.6169,3.6044,3.6006,3.5906,3.573,3.573,3.5742,3.5529,3.5303,3.524,3.5027,3.4914,3.509,3.5341,3.5604,3.5843,3.6107,3.632,3.6358,3.637,3.637,3.637,3.637,3.637,3.637,3.637,3.637,3.637,3.637,3.6445,3.6671,3.6973,3.7123,3.7776,3.8354,3.8341,3.8128,3.7751,3.7337,3.6822,3.6433,3.637,3.6358,3.6358,3.6358,3.6263,3.6263,3.6168,3.5966,3.5775,3.6168,3.637,3.637,3.637,3.5667,3.4787,3.3464,3.2241,3.1019,2.9911,2.8804,2.8495,2.8301,2.8301,2.8301,2.8301,2.8301,2.8301,2.8301,2.8301,2.8301,2.8301,2.8301,2.8301,2.8301,2.8301,2.8301,3.9597,3.9383,3.8856,3.8391,3.7952,3.7412,3.6872,3.642,3.637,3.637,3.637,3.637,3.637,3.637,3.637,3.637,3.637,3.637,3.637,3.637,3.637,3.637,3.637,3.637,3.637,3.637,3.637,3.637,3.637,3.637,3.637,3.637,3.637,3.637,3.637,3.637,3.637,3.637,3.637,3.637,3.6345,3.6332,3.6307,3.6282,3.6257,3.6132,3.5868,3.5768,3.5642,3.5529,3.5579,3.5755,3.5918,3.6107,3.632,3.637,3.637,3.637,3.637,3.637,3.637,3.637,3.637,3.637,3.637,3.637,3.637,3.6408,3.6822,3.7249,3.7387,3.8191,3.8843,3.8881,3.8228,3.7814,3.75,3.7061,3.6659,3.637,3.637,3.637,3.637,3.637,3.637,3.637,3.6263,3.6073,3.6263,3.637,3.637,3.637,3.6263,3.5379,3.4581,3.3055,3.1531,3.011,2.9207,2.8495,2.8301,2.8301,2.8301,2.8301,2.8301,2.8301,2.8301,2.8301,2.8301,2.8301,2.8301,2.8301,2.8301,2.8301,2.8301,3.9371,3.8843,3.8266,3.8002,3.7877,3.74,3.6847,3.6395,3.637,3.637,3.637,3.637,3.637,3.637,3.637,3.637,3.637,3.637,3.637,3.637,3.637,3.637,3.637,3.637,3.637,3.637,3.637,3.637,3.637,3.637,3.637,3.637,3.637,3.637,3.637,3.637,3.637,3.637,3.637,3.637,3.637,3.637,3.637,3.637,3.637,3.627,3.6219,3.6182,3.6094,3.6081,3.6094,3.6194,3.6257,3.6282,3.637,3.637,3.637,3.637,3.637,3.637,3.637,3.637,3.637,3.637,3.637,3.637,3.637,3.6408,3.6935,3.7462,3.7952,3.8542,3.9107,3.9145,3.8492,3.7939,3.7626,3.7061,3.6584,3.637,3.637,3.637,3.637,3.637,3.637,3.637,3.637,3.637,3.637,3.637,3.637,3.637,3.637,3.5966,3.4969,3.3453,3.1938,3.0618,2.9608,2.89,2.8398,2.8301,2.8301,2.8301,2.8301,2.8301,2.8301,2.8301,2.8301,2.8301,2.8301,2.8301,2.8301,2.8301,2.8301,3.9044,3.8793,3.7852,3.745,3.7387,3.6885,3.6521,3.6383,3.637,3.637,3.637,3.637,3.637,3.637,3.637,3.637,3.637,3.637,3.637,3.637,3.637,3.637,3.637,3.637,3.637,3.637,3.637,3.637,3.637,3.637,3.637,3.637,3.6546,3.637,3.637,3.637,3.637,3.637,3.637,3.637,3.637,3.637,3.637,3.637,3.637,3.637,3.637,3.637,3.637,3.637,3.637,3.637,3.637,3.637,3.637,3.637,3.637,3.637,3.637,3.637,3.637,3.637,3.637,3.637,3.637,3.637,3.637,3.6558,3.7136,3.7638,3.8065,3.8931,3.9433,3.9333,3.8806,3.8203,3.7701,3.6923,3.637,3.637,3.637,3.637,3.637,3.637,3.637,3.637,3.637,3.637,3.637,3.637,3.637,3.637,3.6358,3.6156,3.5451,3.4056,3.3044,3.1938,3.0618,2.9513,2.9006,2.8495,2.8301,2.8301,2.8301,2.8301,2.8301,2.8301,2.8301,2.8301,2.8301,2.8301,2.8301,2.8301,2.8301,3.8755,3.8479,3.7575,3.7073,3.686,3.6508,3.637,3.637,3.637,3.637,3.637,3.637,3.637,3.637,3.637,3.637,3.637,3.637,3.637,3.637,3.637,3.637,3.637,3.637,3.637,3.637,3.637,3.637,3.637,3.637,3.637,3.6452,3.6815,3.6709,3.6628,3.637,3.637,3.637,3.637,3.637,3.637,3.637,3.637,3.637,3.637,3.637,3.637,3.637,3.637,3.637,3.637,3.637,3.637,3.637,3.637,3.637,3.637,3.637,3.637,3.637,3.637,3.637,3.637,3.637,3.637,3.637,3.637,3.6634,3.7287,3.7701,3.8128,3.9057,3.9396,3.9295,3.9032,3.8417,3.7852,3.7098,3.6533,3.6521,3.637,3.637,3.637,3.637,3.637,3.637,3.637,3.637,3.637,3.637,3.637,3.637,3.637,3.6263,3.5858,3.4872,3.3958,3.3155,3.1735,3.0317,2.9408,2.89,2.8601,2.8301,2.8301,2.8301,2.8301,2.8301,2.8301,2.8301,2.8301,2.8301,2.8301,2.8301,2.8301,3.8504,3.7939,3.7387,3.6847,3.642,3.637,3.637,3.637,3.637,3.637,3.637,3.637,3.637,3.637,3.637,3.637,3.637,3.637,3.637,3.637,3.637,3.637,3.637,3.637,3.637,3.637,3.637,3.637,3.637,3.637,3.637,3.6546,3.707,3.6977,3.6628,3.637,3.637,3.637,3.637,3.637,3.637,3.637,3.637,3.637,3.637,3.637,3.637,3.637,3.637,3.637,3.637,3.637,3.637,3.637,3.637,3.637,3.637,3.637,3.637,3.637,3.637,3.637,3.637,3.637,3.637,3.637,3.637,3.6584,3.7111,3.755,3.8052,3.868,3.927,3.9195,3.9107,3.863,3.8128,3.7525,3.696,3.6684,3.6445,3.6383,3.637,3.637,3.637,3.637,3.637,3.637,3.637,3.637,3.637,3.637,3.637,3.637,3.587,3.5367,3.4666,3.3859,3.2543,3.1133,3.0214,2.9303,2.89,2.8601,2.8398,2.8301,2.8301,2.8301,2.8301,2.8301,2.8301,2.8301,2.8301,2.8301,2.8301,3.7927,3.7374,3.6822,3.6496,3.637,3.637,3.637,3.637,3.637,3.637,3.637,3.637,3.6452,3.637,3.637,3.637,3.637,3.637,3.637,3.637,3.637,3.637,3.6465,3.6452,3.6465,3.6465,3.6465,3.6546,3.6465,3.6465,3.6452,3.6546,3.6977,3.6709,3.6546,3.637,3.637,3.637,3.637,3.637,3.637,3.637,3.637,3.637,3.637,3.637,3.637,3.637,3.637,3.637,3.637,3.637,3.637,3.637,3.637,3.637,3.637,3.637,3.637,3.637,3.637,3.637,3.637,3.637,3.637,3.637,3.637,3.6609,3.7086,3.7613,3.8103,3.8668,3.9207,3.9371,3.922,3.8831,3.8316,3.7751,3.7199,3.6747,3.6521,3.637,3.637,3.637,3.637,3.637,3.637,3.637,3.637,3.637,3.637,3.637,3.637,3.637,3.637,3.5966,3.5271,3.4471,3.3254,3.2039,3.0824,2.9911,2.9303,2.8794,2.8398,2.8301,2.8301,2.8301,2.8301,2.8301,2.8301,2.8301,2.8301,2.8301,2.8301,3.7487,3.7123,3.6584,3.637,3.6452,3.6896,3.7057,3.707,3.707,3.6896,3.6452,3.6883,3.6803,3.6465,3.637,3.637,3.637,3.637,3.637,3.637,3.6452,3.637,3.6452,3.6722,3.6803,3.6709,3.6722,3.6989,3.6628,3.6896,3.6977,3.6452,3.6709,3.6709,3.6546,3.637,3.637,3.637,3.637,3.637,3.637,3.637,3.637,3.637,3.637,3.637,3.637,3.637,3.637,3.637,3.637,3.637,3.637,3.637,3.637,3.637,3.637,3.637,3.637,3.637,3.637,3.637,3.637,3.637,3.637,3.637,3.637,3.6496,3.7174,3.7789,3.8266,3.8743,3.9207,3.9647,3.9333,3.9019,3.8479,3.7914,3.74,3.6885,3.6609,3.6433,3.637,3.637,3.637,3.637,3.637,3.637,3.637,3.637,3.637,3.637,3.637,3.637,3.637,3.637,3.587,3.5174,3.4374,3.3055,3.1531,3.0317,2.9513,2.89,2.8291,2.8301,2.8301,2.8301,2.8301,2.8301,2.8301,2.8301,2.8301,2.8301,2.8301,3.7161,3.7061,3.6584,3.637,3.6534,3.7507,3.803,3.8198,3.8379,3.7769,3.715,3.7678,3.7507,3.6883,3.6534,3.6465,3.6546,3.6628,3.6628,3.6452,3.6815,3.6722,3.6722,3.7243,3.6883,3.6977,3.6977,3.6977,3.6803,3.6989,3.6977,3.6439,3.7137,3.715,3.6546,3.6465,3.637,3.637,3.637,3.637,3.637,3.637,3.637,3.637,3.637,3.637,3.637,3.637,3.637,3.637,3.637,3.637,3.637,3.637,3.637,3.637,3.637,3.637,3.637,3.637,3.637,3.637,3.637,3.637,3.637,3.637,3.637,3.6471,3.7048,3.745,3.7877,3.8555,3.9107,3.9346,3.922,3.8944,3.8567,3.7939,3.7262,3.681,3.6521,3.637,3.637,3.637,3.637,3.637,3.637,3.637,3.637,3.637,3.637,3.637,3.637,3.637,3.637,3.637,3.637,3.587,3.5174,3.3859,3.2129,3.0824,2.9608,2.89,2.8301,2.8301,2.8301,2.8301,2.8301,2.8301,2.8301,2.8301,2.8301,2.8301,2.8301,3.6935,3.6546,3.6408,3.637,3.6546,3.7573,3.8107,3.8289,4.0031,4.0031,3.9094,3.8469,3.7926,3.7586,3.6709,3.637,3.6546,3.6896,3.6977,3.6896,3.707,3.6803,3.6534,3.6883,3.6709,3.6628,3.6628,3.6803,3.6628,3.6722,3.6803,3.6452,3.6883,3.6722,3.6452,3.637,3.637,3.637,3.637,3.637,3.637,3.637,3.637,3.637,3.637,3.637,3.637,3.637,3.637,3.637,3.637,3.637,3.637,3.637,3.637,3.637,3.637,3.637,3.637,3.637,3.637,3.637,3.637,3.637,3.637,3.637,3.642,3.6558,3.6784,3.7136,3.7563,3.8304,3.8868,3.8981,3.9057,3.8818,3.8567,3.7839,3.7098,3.6759,3.6433,3.637,3.637,3.637,3.637,3.637,3.637,3.637,3.637,3.637,3.637,3.637,3.637,3.637,3.637,3.637,3.637,3.637,3.587,3.4447,3.2632,3.0721,2.9006,2.8708,2.8301,2.8301,2.8301,2.8301,2.8301,2.8301,2.8301,2.8301,2.8301,2.8301,2.8301,3.6634,3.637,3.637,3.6722,3.7335,3.8379,3.9169,3.9944,4.1587,4.2029,4.1183,3.9697,3.8649,3.803,3.6883,3.6546,3.6628,3.6977,3.6803,3.6803,3.707,3.6803,3.6722,3.679,3.6709,3.6628,3.6452,3.6452,3.637,3.6465,3.6452,3.637,3.637,3.637,3.637,3.637,3.637,3.637,3.637,3.637,3.637,3.637,3.637,3.637,3.637,3.637,3.637,3.637,3.637,3.637,3.637,3.637,3.637,3.637,3.637,3.637,3.637,3.637,3.637,3.637,3.637,3.637,3.637,3.637,3.637,3.637,3.637,3.6508,3.6885,3.7249,3.7412,3.799,3.8291,3.8467,3.8442,3.8278,3.7839,3.7224,3.6784,3.6558,3.637,3.637,3.637,3.637,3.637,3.637,3.637,3.637,3.637,3.637,3.637,3.637,3.637,3.637,3.637,3.637,3.637,3.637,3.6358,3.4642,3.2632,3.012,2.8291,2.8301,2.8301,2.8301,2.8301,2.8301,2.8301,2.8301,2.8301,2.8301,2.8301,2.8301,2.8301,3.6546,3.6628,3.6803,3.7428,3.8469,3.9623,4.0661,4.1587,4.2805,4.325,4.282,4.093,3.9536,3.8469,3.7415,3.707,3.715,3.8121,3.7586,3.6883,3.707,3.6989,3.6977,3.7137,3.679,3.6628,3.6452,3.637,3.637,3.637,3.637,3.637,3.637,3.637,3.637,3.637,3.637,3.637,3.637,3.637,3.637,3.637,3.637,3.637,3.637,3.637,3.637,3.637,3.637,3.637,3.637,3.637,3.637,3.637,3.637,3.637,3.637,3.637,3.637,3.637,3.637,3.637,3.637,3.637,3.637,3.637,3.637,3.6533,3.691,3.7098,3.7262,3.7487,3.7751,3.7902,3.7839,3.7713,3.7174,3.6722,3.6546,3.637,3.637,3.637,3.637,3.637,3.637,3.637,3.637,3.637,3.637,3.637,3.637,3.637,3.637,3.637,3.637,3.637,3.6358,3.6168,3.5858,3.435,3.2532,3.0016,2.8398,2.8301,2.8301,2.8301,2.8301,2.8301,2.8301,2.8301,2.8301,2.8301,2.8301,2.8301,2.8301,3.6989,3.7861,3.8841,3.936,3.9711,4.0732,4.142,4.1767,4.282,4.3344,4.2981,4.2029,4.107,4.0901,3.9711,3.893,3.8211,3.8952,3.8698,3.8121,3.7742,3.739,3.6964,3.6752,3.6615,3.6452,3.637,3.637,3.637,3.637,3.637,3.637,3.637,3.637,3.637,3.637,3.637,3.637,3.637,3.637,3.637,3.637,3.637,3.637,3.637,3.637,3.637,3.637,3.637,3.637,3.637,3.637,3.637,3.637,3.637,3.637,3.637,3.637,3.637,3.637,3.637,3.637,3.637,3.637,3.637,3.637,3.637,3.637,3.6609,3.6609,3.6772,3.7073,3.7337,3.7337,3.7312,3.7061,3.6671,3.6521,3.642,3.637,3.637,3.637,3.637,3.637,3.637,3.637,3.637,3.637,3.637,3.637,3.637,3.637,3.637,3.637,3.637,3.6358,3.6358,3.6061,3.5162,3.3342,3.1531,2.9713,2.8601,2.8398,2.8301,2.8301,2.8301,2.8301,2.8301,2.8301,2.8301,2.8301,2.8301,2.8301,2.8301]}]]